[[{"header":{"parameterUnit":"m.s-1","parameterCategory":1,"la1":31.0,"la2":29.5877,"lo1":-88.7671,"lo2":-86.6584,"dy":0.0162,"dx":0.0185,"nx":115,"ny":88,"refTime":"2024-04-24T12:00:00:Z","depth":0,"parameterNumber":2,"parameterNumberName":"U-component_of_WINDS"},"data":[0.0,0.0,0.0,0.0,0.0,0.0,0.0,0.0,0.0,0.0,0.0,0.0,0.0,0.0,0.0,0.0,0.0,0.0,0.0,0.0,0.0,0.0,0.0,0.0,0.0,0.0,0.0,0.0,0.0,0.0,0.0,0.0,0.0,0.0,0.0,0.0,0.0,0.0,0.0,0.0,0.0,0.0,0.0,0.0,0.0,0.0,0.0,0.0,0.0,0.0,0.0,0.0,0.0,0.0,0.0,0.0,0.0,0.0,0.0,0.0,0.0,0.0,0.0,0.0,0.0,0.0,0.0,0.0,0.0,0.0,0.0,0.0,0.0,0.0,0.0,0.0,0.0,0.0,0.0,0.0,0.0,0.0,0.0,0.0,0.0,0.0,0.0,0.0,0.0,0.0,0.0,0.0,0.0,0.0,0.0,0.0,0.0,0.0,0.0,0.0,0.0,0.0,0.0,0.0,0.0,0.0,0.0,0.0,0.0,0.0,0.0,0.0,0.0,0.0,0.0,0.0,0.0,0.0,0.0,0.0,0.0,0.0,0.0,0.0,0.0,0.0,0.0,0.0,0.0,0.0,0.0,0.0,0.0,0.0,0.0,0.0,0.0,0.0,0.0,0.0,0.0,0.0,0.0,0.0,0.0,0.0,0.0,0.0,0.0,0.0,0.0,0.0,0.0,0.0,0.0,0.0,0.0,0.0,0.0,0.0,0.0,0.0,0.0,0.0,0.0,0.0,0.0,0.0,0.0,0.0,0.0,0.0,0.0,0.0,0.0,0.0,0.0,0.0,0.0,0.0,0.0,0.0,0.0,0.0,0.0,0.0,0.0,0.0,0.0,0.0,0.0,0.0,0.0,0.0,0.0,0.0,0.0,0.0,0.0,0.0,0.0,0.0,0.0,0.0,0.0,0.0,0.0,0.0,0.0,0.0,0.0,0.0,0.0,0.0,0.0,0.0,0.0,0.0,0.0,0.0,0.0,0.0,0.0,0.0,0.0,0.0,0.0,0.0,0.0,0.0,0.0,0.0,0.0,0.0,0.0,0.0,0.0,0.0,0.0,0.0,0.0,0.0,0.0,0.0,0.0,0.0,0.0,0.0,0.0,0.0,0.0,0.0,0.0,0.0,0.0,0.0,0.0,0.0,0.0,0.0,0.0,0.0,0.0,0.0,0.0,0.0,0.0,0.0,0.0,0.0,0.0,0.0,0.0,0.0,0.0,0.0,0.0,0.0,0.0,0.0,0.0,0.0,0.0,0.0,0.0,0.0,0.0,0.0,0.0,0.0,0.0,0.0,0.0,0.0,0.0,0.0,0.0,0.0,0.0,0.0,0.0,0.0,0.0,0.0,0.0,0.0,0.0,0.0,0.0,0.0,0.0,0.0,0.0,0.0,0.0,0.0,0.0,0.0,0.0,0.0,0.0,0.0,0.0,0.0,0.0,0.0,0.0,0.0,0.0,0.0,0.0,0.0,0.0,0.0,0.0,0.0,0.0,0.0,0.0,0.0,0.0,0.0,0.0,0.0,0.0,0.0,0.0,0.0,0.0,0.0,0.0,0.0,0.0,0.0,0.0,0.0,0.0,0.0,0.0,0.0,0.0,0.0,0.0,0.0,0.0,0.0,0.0,0.0,0.0,0.0,0.0,0.0,0.0,0.0,0.0,0.0,0.0,0.0,0.0,0.0,0.0,0.0,0.0,0.0,0.0,0.0,0.0,0.0,0.0,0.0,0.0,0.0,0.0,0.0,0.0,0.0,0.0,0.0,0.0,0.0,0.0,0.0,0.0,0.0,0.0,0.0,0.0,0.0,0.0,0.0,0.0,0.0,0.0,0.0,0.0,0.0,0.0,0.0,0.0,0.0,0.0,0.0,0.0,0.0,0.0,0.0,0.0,0.0,0.0,0.0,0.0,0.0,0.0,0.0,0.0,0.0,0.0,0.0,0.0,0.0,0.0,0.0,0.0,0.0,0.0,0.0,0.0,0.0,0.0,0.0,0.0,0.0,0.0,0.0,0.0,0.0,0.0,0.0,0.0,0.0,0.0,0.0,0.0,0.0,0.0,0.0,0.0,0.0,0.0,0.0,0.0,0.0,0.0,0.0,0.0,0.0,0.0,0.0,0.0,0.0,0.0,0.0,0.0,0.0,0.0,0.0,0.0,0.0,0.0,0.0,0.0,0.0,0.0,0.0,0.0,0.0,0.0,0.0,0.0,0.0,0.0,0.0,0.0,0.0,0.0,0.0,0.0,0.0,0.0,0.0,0.0,0.0,0.0,0.0,0.0,0.0,0.0,0.0,0.0,0.0,0.0,0.0,0.0,0.0,0.0,0.0,0.0,0.0,0.0,0.0,0.0,0.0,0.0,0.0,0.0,0.0,0.0,0.0,0.0,0.0,0.0,0.0,0.0,0.0,0.0,0.0,0.0,0.0,0.0,0.0,0.0,0.0,0.0,0.0,0.0,0.0,0.0,0.0,0.0,0.0,0.0,0.0,0.0,0.0,0.0,0.0,0.0,0.0,0.0,0.0,0.0,0.0,0.0,0.0,0.0,0.0,0.0,0.0,0.0,0.0,0.0,0.0,0.0,0.0,0.0,0.0,0.0,0.0,0.0,0.0,0.0,0.0,0.0,0.0,0.0,0.0,0.0,0.0,0.0,0.0,0.0,0.0,0.0,0.0,0.0,0.0,0.0,0.0,0.0,0.0,0.0,0.0,0.0,0.0,0.0,0.0,0.0,0.0,0.0,0.0,0.0,0.0,0.0,0.0,0.0,0.0,0.0,0.0,0.0,0.0,0.0,0.0,0.0,0.0,0.0,0.0,0.0,0.0,0.0,0.0,0.0,0.0,0.0,0.0,0.0,0.0,0.0,0.0,0.0,0.0,0.0,0.0,0.0,0.0,0.0,0.0,0.0,0.0,0.0,0.0,0.0,0.0,0.0,0.0,0.0,0.0,0.0,0.0,0.0,0.0,0.0,0.0,0.0,0.0,0.0,0.0,0.0,0.0,0.0,0.0,0.0,0.0,0.0,0.0,0.0,0.0,0.0,0.0,0.0,0.0,0.0,0.0,0.0,0.0,0.0,0.0,0.0,0.0,0.0,0.0,0.0,0.0,0.0,0.0,0.0,0.0,0.0,0.0,0.0,0.0,0.0,0.0,0.0,0.0,0.0,0.0,0.0,0.0,0.0,0.0,0.0,0.0,0.0,0.0,0.0,0.0,0.0,0.0,0.0,0.0,0.0,0.0,0.0,0.0,0.0,0.0,0.0,0.0,0.0,0.0,0.0,0.0,0.0,0.0,0.0,0.0,0.0,0.0,0.0,0.0,0.0,0.0,0.0,0.0,0.0,0.0,0.0,0.0,0.0,0.0,0.0,0.0,0.0,0.0,0.0,0.0,0.0,0.0,0.0,0.0,0.0,0.0,0.0,0.0,0.0,0.0,0.0,0.0,0.0,0.0,0.0,0.0,0.0,0.0,0.0,0.0,0.0,0.0,0.0,0.0,0.0,0.0,0.0,0.0,0.0,0.0,0.0,0.0,0.0,0.0,0.0,0.0,0.0,0.0,0.0,0.0,0.0,0.0,0.0,0.0,0.0,0.0,0.0,0.0,0.0,0.0,0.0,0.0,0.0,0.0,0.0,0.0,0.0,0.0,0.0,0.0,0.0,0.0,0.0,0.0,0.0,0.0,0.0,0.0,0.0,0.0,0.0,0.0,0.0,0.0,0.0,0.0,0.0,0.0,0.0,0.0,0.0,0.0,0.0,0.0,0.0,0.0,0.0,0.0,0.0,0.0,0.0,0.0,0.0,0.0,0.0,0.0,0.0,0.0,0.0,0.0,0.0,0.0,0.0,0.0,0.0,0.0,0.0,0.0,0.0,0.0,0.0,0.0,0.0,0.0,0.0,0.0,0.0,0.0,0.0,0.0,0.0,0.0,0.0,0.0,0.0,0.0,0.0,0.0,0.0,0.0,0.0,0.0,0.0,0.0,0.0,0.0,0.0,0.0,0.0,0.0,0.0,0.0,0.0,0.0,0.0,0.0,0.0,0.0,0.0,0.0,0.0,0.0,0.0,0.0,0.0,0.0,0.0,0.0,0.0,0.0,0.0,0.0,0.0,0.0,0.0,0.0,0.0,0.0,0.0,0.0,0.0,0.0,0.0,0.0,0.0,0.0,0.0,0.0,0.0,0.0,0.0,0.0,0.0,0.0,0.0,0.0,0.0,0.0,0.0,0.0,0.0,0.0,0.0,0.0,0.0,0.0,0.0,0.0,0.0,0.0,-0.7634,0.0,0.0,0.0,0.0,0.0,0.0,0.0,0.0,0.0,0.0,0.0,0.0,0.0,0.0,0.0,0.0,0.0,0.0,0.0,0.0,0.0,0.0,0.0,0.0,0.0,0.0,0.0,0.0,0.0,0.0,0.0,0.0,0.0,0.0,0.0,0.0,0.0,0.0,0.0,0.0,0.0,0.0,0.0,0.0,0.0,0.0,0.0,0.0,0.0,0.0,0.0,0.0,0.0,0.0,0.0,0.0,0.0,0.0,0.0,0.0,0.0,0.0,0.0,0.0,0.0,0.0,0.0,0.0,0.0,0.0,0.0,0.0,0.0,0.0,0.0,0.0,0.0,0.0,0.0,0.0,0.0,0.0,0.0,0.0,0.0,0.0,0.0,0.0,0.0,0.0,0.0,0.0,0.0,0.0,0.0,0.0,0.0,0.0,0.0,0.0,0.0,0.0,0.0,0.0,0.0,0.0,0.0,0.0,0.0,0.0,-0.7345,-0.7438,-0.7469,-0.7624,-0.7882,0.0,0.0,0.0,0.0,0.0,0.0,0.0,0.0,0.0,0.0,0.0,0.0,0.0,0.0,0.0,0.0,0.0,0.0,0.0,0.0,0.0,0.0,0.0,0.0,0.0,0.0,0.0,0.0,0.0,0.0,0.0,0.0,0.0,0.0,0.0,0.0,0.0,0.0,0.0,0.0,0.0,0.0,0.0,0.0,0.0,0.0,0.0,0.0,0.0,0.0,0.0,0.0,0.0,0.0,0.0,0.0,0.0,0.0,0.0,0.0,0.0,0.0,0.0,0.0,0.0,0.0,0.0,0.0,0.0,0.0,0.0,0.0,0.0,0.0,0.0,0.0,0.0,0.0,0.0,0.0,0.0,0.0,0.0,0.0,0.0,0.0,0.0,0.0,0.0,0.0,0.0,0.0,0.0,0.0,0.0,0.0,0.0,0.0,0.0,0.0,0.0,0.0,0.0,0.0,0.0,0.0,0.0,0.0,0.0,0.0,0.0,0.0,-0.7553,-0.78,-0.8341,0.0,0.0,0.0,0.0,0.0,0.0,0.0,0.0,0.0,0.0,0.0,0.0,0.0,0.0,0.0,0.0,0.0,0.0,0.0,0.0,0.0,0.0,0.0,0.0,0.0,0.0,0.0,0.0,0.0,0.0,0.0,0.0,0.0,0.0,0.0,0.0,0.0,0.0,0.0,0.0,0.0,0.0,0.0,0.0,0.0,0.0,0.0,0.0,0.0,0.0,0.0,0.0,0.0,0.0,0.0,0.0,0.0,0.0,0.0,0.0,0.0,0.0,0.0,0.0,0.0,0.0,0.0,0.0,0.0,0.0,0.0,0.0,0.0,0.0,0.0,0.0,0.0,0.0,0.0,0.0,0.0,0.0,0.0,0.0,0.0,0.0,0.0,0.0,0.0,0.0,0.0,0.0,0.0,0.0,0.0,0.0,0.0,0.0,0.0,0.0,0.0,0.0,0.0,0.0,0.0,0.0,0.0,0.0,0.0,0.0,-0.7524,-0.8016,-0.7969,0.0,-0.9021,0.0,0.0,0.0,0.0,0.0,0.0,0.0,0.0,0.0,0.0,0.0,0.0,0.0,0.0,0.0,0.0,0.0,0.0,0.0,0.0,0.0,0.0,0.0,0.0,0.0,0.0,0.0,0.0,0.0,0.0,0.0,0.0,0.0,0.0,0.0,0.0,0.0,0.0,0.0,0.0,0.0,0.0,0.0,0.0,0.0,0.0,0.0,0.0,0.0,0.0,0.0,0.0,0.0,0.0,0.0,0.0,0.0,0.0,0.0,0.0,0.0,0.0,0.0,0.0,0.0,0.0,0.0,0.0,0.0,0.0,0.0,0.0,0.0,0.0,0.0,0.0,0.0,0.0,0.0,0.0,0.0,0.0,0.0,0.0,0.0,0.0,0.0,0.0,0.0,0.0,0.0,0.0,0.0,0.0,0.0,0.0,0.0,0.0,0.0,0.0,0.0,0.0,0.0,0.0,0.0,0.0,0.0,0.0,0.0,0.0,-0.791,-0.805,-0.8213,-0.8353,0.0,0.0,0.0,0.0,0.0,0.0,0.0,0.0,0.0,0.0,0.0,0.0,0.0,0.0,0.0,0.0,0.0,0.0,0.0,0.0,0.0,0.0,0.0,0.0,0.0,0.0,0.0,0.0,0.0,0.0,0.0,0.0,0.0,0.0,0.0,0.0,0.0,0.0,0.0,0.0,0.0,0.0,0.0,0.0,0.0,0.0,0.0,0.0,0.0,0.0,0.0,0.0,0.0,0.0,0.0,0.0,0.0,0.0,0.0,0.0,0.0,0.0,0.0,0.0,0.0,0.0,0.0,0.0,0.0,0.0,0.0,0.0,0.0,0.0,0.0,0.0,0.0,0.0,0.0,0.0,0.0,0.0,0.0,0.0,0.0,0.0,0.0,0.0,0.0,0.0,0.0,0.0,0.0,0.0,0.0,0.0,0.0,0.0,0.0,0.0,0.0,0.0,0.0,0.0,0.0,0.0,0.0,0.0,0.0,0.0,-0.7858,-0.8218,-0.8339,-0.8529,-0.8462,-0.8172,0.0,0.0,0.0,0.0,0.0,0.0,0.0,0.0,0.0,0.0,0.0,0.0,0.0,0.0,0.0,0.0,0.0,0.0,0.0,0.0,0.0,0.0,0.0,0.0,0.0,0.0,0.0,0.0,0.0,0.0,0.0,0.0,0.0,0.0,0.0,0.0,0.0,0.0,0.0,0.0,0.0,0.0,0.0,0.0,0.0,0.0,0.0,0.0,0.0,0.0,0.0,0.0,0.0,0.0,0.0,0.0,0.0,0.0,0.0,0.0,0.0,0.0,0.0,0.0,0.0,0.0,0.0,0.0,0.0,0.0,0.0,0.0,0.0,0.0,0.0,0.0,0.0,0.0,0.0,0.0,0.0,0.0,0.0,0.0,0.0,0.0,0.0,0.0,0.0,0.0,0.0,0.0,0.0,0.0,0.0,0.0,0.0,0.0,0.0,0.0,0.0,0.0,0.0,0.0,0.0,0.0,0.0,0.0,-0.732,-0.7844,-0.8445,-0.91,-0.8978,-0.8801,0.0,0.0,0.0,0.0,0.0,0.0,0.0,0.0,0.0,0.0,0.0,0.0,0.0,0.0,0.0,0.0,0.0,0.0,0.0,0.0,0.0,0.0,0.0,0.0,0.0,0.0,0.0,0.0,0.0,0.0,0.0,0.0,0.0,0.0,0.0,0.0,0.0,0.0,0.0,0.0,0.0,0.0,0.0,0.0,0.0,0.0,0.0,0.0,0.0,0.0,0.0,0.0,0.0,0.0,0.0,0.0,0.0,0.0,0.0,0.0,0.0,0.0,0.0,0.0,0.0,0.0,0.0,0.0,0.0,0.0,0.0,0.0,0.0,0.0,0.0,0.0,0.0,0.0,0.0,0.0,0.0,0.0,0.0,0.0,0.0,0.0,0.0,0.0,0.0,0.0,0.0,0.0,0.0,0.0,0.0,0.0,0.0,0.0,0.0,0.0,0.0,0.0,0.0,0.0,0.0,0.0,0.0,0.0,0.0,-0.8415,-0.8804,-0.921,-0.9665,-0.9193,-0.8633,0.0,0.0,0.0,0.0,0.0,0.0,0.0,0.0,0.0,0.0,0.0,0.0,0.0,0.0,0.0,0.0,0.0,0.0,0.0,0.0,0.0,0.0,0.0,0.0,0.0,0.0,0.0,0.0,0.0,0.0,0.0,0.0,0.0,0.0,0.0,0.0,0.0,0.0,0.0,0.0,0.0,0.0,0.0,0.0,0.0,0.0,0.0,0.0,0.0,0.0,0.0,0.0,0.0,0.0,0.0,0.0,0.0,0.0,0.0,0.0,0.0,0.0,0.0,0.0,0.0,0.0,0.0,0.0,0.0,0.0,0.0,0.0,0.0,0.0,0.0,0.0,0.0,0.0,0.0,0.0,0.0,0.0,0.0,0.0,0.0,0.0,0.0,0.0,0.0,0.0,0.0,0.0,0.0,0.0,0.0,0.0,0.0,0.0,0.0,0.0,0.0,0.0,0.0,0.0,0.0,0.0,0.0,0.0,0.0,-0.9206,0.0,-0.9592,-0.9894,-0.9231,-0.8465,0.0,0.0,0.0,0.0,0.0,0.0,0.0,0.0,0.0,0.0,0.0,0.0,0.0,0.0,0.0,0.0,0.0,0.0,0.0,0.0,0.0,0.0,0.0,0.0,0.0,0.0,0.0,0.0,0.0,0.0,0.0,0.0,0.0,0.0,0.0,0.0,0.0,0.0,0.0,0.0,0.0,0.0,0.0,0.0,0.0,0.0,0.0,0.0,0.0,0.0,0.0,0.0,0.0,0.0,0.0,0.0,0.0,0.0,0.0,0.0,0.0,0.0,0.0,0.0,0.0,0.0,0.0,0.0,0.0,0.0,0.0,0.0,0.0,0.0,0.0,0.0,0.0,0.0,0.0,0.0,0.0,0.0,0.0,0.0,0.0,0.0,0.0,0.0,0.0,0.0,0.0,0.0,0.0,0.0,0.0,0.0,0.0,0.0,0.0,0.0,0.0,0.0,0.0,0.0,0.0,0.0,0.0,0.0,-0.8597,-0.9532,-0.9439,-0.9511,-0.9765,-0.9107,-0.8442,0.0,0.0,0.0,0.0,0.0,0.0,0.0,0.0,0.0,0.0,0.0,0.0,0.0,0.0,0.0,0.0,0.0,0.0,0.0,0.0,0.0,0.0,0.0,0.0,0.0,0.0,0.0,0.0,0.0,0.0,0.0,0.0,0.0,0.0,0.0,0.0,0.0,0.0,0.0,0.0,0.0,0.0,0.0,0.0,0.0,0.0,0.0,0.0,0.0,0.0,0.0,0.0,0.0,0.0,0.0,0.0,0.0,0.0,0.0,0.0,0.0,0.0,0.0,0.0,0.0,0.0,0.0,0.0,0.0,0.0,0.0,0.0,0.0,0.0,0.0,0.0,0.0,0.0,0.0,0.0,0.0,0.0,0.0,0.0,0.0,0.0,0.0,0.0,0.0,0.0,0.0,0.0,0.0,0.0,0.0,0.0,0.0,0.0,0.0,0.0,0.0,0.0,0.0,0.0,0.0,0.0,0.0,0.0,0.0,-0.9472,-0.9732,-0.9818,-0.9802,-0.9447,-0.8956,0.0,0.0,0.0,0.0,0.0,0.0,0.0,0.0,0.0,0.0,0.0,0.0,0.0,0.0,0.0,0.0,0.0,0.0,0.0,0.0,0.0,0.0,0.0,0.0,0.0,0.0,0.0,0.0,0.0,0.0,0.0,0.0,0.0,0.0,0.0,0.0,0.0,0.0,0.0,0.0,0.0,0.0,0.0,0.0,0.0,0.0,0.0,0.0,0.0,0.0,0.0,0.0,0.0,0.0,0.0,0.0,0.0,0.0,0.0,0.0,0.0,0.0,0.0,0.0,0.0,0.0,0.0,0.0,0.0,0.0,0.0,0.0,0.0,0.0,0.0,0.0,0.0,0.0,0.0,0.0,0.0,0.0,0.0,0.0,0.0,0.0,0.0,0.0,0.0,0.0,0.0,0.0,0.0,0.0,0.0,0.0,0.0,0.0,0.0,0.0,0.0,0.0,0.0,0.0,0.0,0.0,0.0,0.0,0.0,-1.0428,-1.0607,-1.0602,-1.0368,-1.0006,-0.9467,-0.8816,0.0,0.0,0.0,0.0,0.0,0.0,0.0,0.0,0.0,0.0,0.0,0.0,0.0,0.0,0.0,0.0,0.0,0.0,0.0,0.0,0.0,0.0,0.0,0.0,0.0,0.0,0.0,0.0,0.0,0.0,0.0,0.0,0.0,0.0,0.0,0.0,0.0,0.0,0.0,0.0,0.0,0.0,0.0,0.0,0.0,0.0,0.0,0.0,0.0,0.0,0.0,0.0,0.0,0.0,0.0,0.0,0.0,0.0,0.0,0.0,0.0,0.0,0.0,0.0,0.0,0.0,0.0,0.0,0.0,0.0,0.0,0.0,0.0,0.0,0.0,0.0,0.0,0.0,0.0,0.0,0.0,0.0,0.0,0.0,0.0,0.0,0.0,0.0,0.0,0.0,0.0,0.0,0.0,0.0,0.0,0.0,0.0,0.0,0.0,0.0,0.0,0.0,0.0,0.0,0.0,0.0,0.0,0.0,-1.2209,-1.1989,-1.1713,-1.1345,-1.0736,-1.0044,0.0,0.0,0.0,0.0,0.0,0.0,0.0,0.0,0.0,0.0,0.0,0.0,0.0,0.0,0.0,0.0,0.0,0.0,0.0,0.0,0.0,0.0,0.0,0.0,0.0,0.0,0.0,0.0,0.0,0.0,0.0,0.0,0.0,0.0,0.0,0.0,0.0,0.0,0.0,0.0,0.0,0.0,0.0,0.0,0.0,0.0,0.0,0.0,0.0,0.0,0.0,0.0,0.0,0.0,0.0,0.0,0.0,0.0,0.0,0.0,0.0,0.0,0.0,0.0,0.0,0.0,0.0,0.0,0.0,0.0,0.0,0.0,0.0,0.0,0.0,0.0,0.0,0.0,0.0,0.0,0.0,0.0,0.0,0.0,0.0,0.0,0.0,0.0,0.0,0.0,0.0,0.0,0.0,0.0,0.0,0.0,0.0,0.0,0.0,0.0,0.0,0.0,0.0,0.0,0.0,0.0,0.0,0.0,0.0,-1.2709,-1.3517,-1.3245,-1.1875,-1.1596,-1.0984,0.0,0.0,0.0,0.0,0.0,0.0,0.0,0.0,0.0,0.0,0.0,0.0,0.0,0.0,0.0,0.0,0.0,0.0,0.0,0.0,0.0,0.0,0.0,0.0,0.0,0.0,0.0,0.0,0.0,0.0,0.0,0.0,0.0,0.0,0.0,0.0,0.0,0.0,0.0,0.0,0.0,0.0,0.0,0.0,0.0,0.0,0.0,0.0,0.0,0.0,0.0,0.0,0.0,0.0,0.0,0.0,0.0,0.0,0.0,0.0,0.0,0.0,0.0,0.0,0.0,0.0,0.0,0.0,0.0,0.0,0.0,0.0,0.0,0.0,0.0,0.0,0.0,0.0,0.0,0.0,0.0,0.0,0.0,0.0,0.0,0.0,0.0,0.0,0.0,0.0,0.0,0.0,0.0,0.0,0.0,0.0,0.0,0.0,0.0,0.0,0.0,0.0,0.0,0.0,0.0,0.0,0.0,0.0,-1.2539,-1.375,-1.4811,-1.4771,-1.3651,-1.278,-1.182,0.0,0.0,0.0,0.0,0.0,0.0,0.0,0.0,0.0,0.0,0.0,0.0,0.0,0.0,0.0,0.0,0.0,0.0,0.0,0.0,0.0,0.0,0.0,0.0,0.0,0.0,0.0,0.0,0.0,0.0,0.0,0.0,0.0,0.0,0.0,0.0,0.0,0.0,0.0,0.0,0.0,0.0,0.0,0.0,0.0,0.0,0.0,0.0,0.0,0.0,0.0,0.0,0.0,0.0,0.0,0.0,0.0,0.0,0.0,0.0,0.0,0.0,0.0,0.0,0.0,0.0,0.0,0.0,0.0,0.0,0.0,0.0,0.0,0.0,0.0,0.0,0.0,0.0,0.0,0.0,0.0,0.0,0.0,0.0,0.0,0.0,0.0,0.0,0.0,0.0,0.0,0.0,0.0,0.0,0.0,0.0,0.0,0.0,0.0,0.0,0.0,0.0,0.0,0.0,0.0,0.0,0.0,0.0,-1.2925,-1.4953,-1.5849,-1.6142,-1.586,-1.4116,-1.2719,0.0,0.0,0.0,0.0,0.0,0.0,0.0,0.0,0.0,0.0,0.0,0.0,0.0,0.0,0.0,0.0,0.0,0.0,0.0,0.0,0.0,0.0,0.0,0.0,0.0,0.0,0.0,0.0,0.0,0.0,0.0,0.0,0.0,0.0,0.0,0.0,0.0,0.0,0.0,0.0,0.0,0.0,0.0,0.0,0.0,0.0,0.0,0.0,0.0,0.0,0.0,0.0,0.0,0.0,0.0,0.0,0.0,0.0,0.0,0.0,0.0,0.0,0.0,0.0,0.0,0.0,0.0,0.0,0.0,0.0,0.0,0.0,0.0,0.0,0.0,0.0,0.0,0.0,0.0,0.0,0.0,0.0,0.0,0.0,0.0,0.0,0.0,0.0,0.0,0.0,0.0,0.0,0.0,0.0,0.0,0.0,0.0,0.0,0.0,0.0,0.0,0.0,0.0,0.0,0.0,0.0,0.0,0.0,-1.359,-1.4977,-1.6191,-1.6703,-1.6404,-1.535,-1.399,0.0,0.0,0.0,0.0,0.0,0.0,0.0,0.0,0.0,0.0,0.0,0.0,0.0,0.0,0.0,0.0,0.0,0.0,0.0,0.0,0.0,0.0,0.0,0.0,0.0,0.0,0.0,0.0,0.0,0.0,0.0,0.0,0.0,0.0,0.0,0.0,0.0,0.0,0.0,0.0,0.0,0.0,0.0,0.0,0.0,0.0,0.0,0.0,-0.1174,0.0,0.0,0.0,0.0,0.0,0.0,0.0,0.0,0.0,0.0,0.0,0.0,0.0,0.0,0.0,0.0,0.0,0.0,0.0,0.0,0.0,0.0,0.0,0.0,0.0,0.0,0.0,0.0,0.0,0.0,0.0,0.0,0.0,0.0,0.0,0.0,0.0,0.0,0.0,0.0,0.0,0.0,0.0,0.0,0.0,0.0,0.0,0.0,0.0,0.0,0.0,0.0,0.0,0.0,0.0,0.0,0.0,0.0,0.0,-1.4292,-1.5808,-1.7103,-1.7531,-1.7073,-1.6435,-1.5035,0.0,0.0,0.0,0.0,0.0,0.0,0.0,0.0,0.0,0.0,0.0,0.0,0.0,0.0,0.0,0.0,0.0,0.0,0.0,0.0,0.0,0.0,0.0,0.0,0.0,0.0,0.0,0.0,0.0,0.0,0.0,0.0,0.0,0.0,0.0,0.0,0.0,0.0,0.0,0.0,0.0,0.0,0.0,0.0,0.0,0.0,0.0,0.0,0.0,0.0,0.0,0.0,0.0,0.0,0.0,0.0,0.0,0.0,0.0,0.0,0.0,0.0,0.0,0.0,0.0,0.0,0.0,0.0,0.0,0.0,0.0,0.0,0.0,0.0,0.0,0.0,0.0,0.0,0.0,0.0,0.0,0.0,0.0,0.0,0.0,0.0,0.0,0.0,0.0,0.0,0.0,0.0,0.0,0.0,0.0,0.0,0.0,0.0,0.0,0.0,0.0,0.0,0.0,0.0,0.0,0.0,0.0,-1.3238,-1.5049,-1.6754,-1.7995,-1.8302,-1.7654,-1.7284,-1.5947,-1.3457,0.0,0.0,0.0,0.0,0.0,0.0,0.0,0.0,0.0,0.0,0.0,0.0,0.0,0.0,0.0,0.0,0.0,0.0,0.0,0.0,0.0,0.0,0.0,0.0,0.0,0.0,0.0,0.0,0.0,0.0,0.0,0.0,0.0,0.0,0.0,0.0,0.0,0.0,-0.0863,-0.1077,0.0,0.0,0.0,0.0,0.0,0.0,0.0,0.0,-0.1415,0.0,0.0,0.0,0.0,0.0,0.0,0.0,0.0,0.0,0.0,0.0,0.0,0.0,0.0,0.0,0.0,0.0,0.0,0.0,0.0,0.0,0.0,0.0,0.0,0.0,0.0,0.0,0.0,0.0,0.0,0.0,0.0,0.0,0.0,0.0,0.0,0.0,0.0,0.0,0.0,0.0,0.0,0.0,0.0,0.0,0.0,0.0,0.0,0.0,0.0,0.0,0.0,0.0,0.0,0.0,0.0,-1.1556,-1.3787,-1.555,-1.6779,-1.8092,-1.8437,-1.7774,-1.7724,-1.6565,-1.4201,0.0,0.0,0.0,0.0,0.0,0.0,0.0,0.0,0.0,0.0,0.0,0.0,0.0,0.0,0.0,0.0,0.0,0.0,0.0,0.0,0.0,0.0,0.0,0.0,0.0,0.0,0.0,0.0,0.0,0.0,0.0,0.0,0.0,0.0,0.0,0.0,0.0,0.0,0.0,-0.1337,-0.1499,0.0,0.0,0.0,0.0,0.0,0.0,0.0,0.0,-0.1838,0.0,0.0,0.0,0.0,0.0,0.0,0.0,0.0,0.0,0.0,0.0,0.0,0.0,0.0,0.0,0.0,0.0,0.0,0.0,0.0,0.0,0.0,0.0,0.0,0.0,0.0,0.0,0.0,0.0,0.0,0.0,0.0,0.0,0.0,0.0,0.0,0.0,0.0,0.0,0.0,0.0,0.0,0.0,0.0,0.0,0.0,0.0,0.0,0.0,0.0,0.0,0.0,0.0,0.0,0.0,-1.2532,-1.4506,-1.6257,-1.7786,-1.8759,-1.8908,-1.8326,-1.7723,-1.6406,0.0,0.0,0.0,0.0,0.0,0.0,0.0,0.0,0.0,0.0,0.0,0.0,0.0,0.0,0.0,0.0,0.0,0.0,0.0,0.0,0.0,0.0,0.0,0.0,0.0,0.0,0.0,0.0,0.0,0.0,0.0,0.0,0.0,0.0,0.0,0.0,0.0,0.0,0.0,0.0,-0.1761,-0.1912,-0.2141,0.0,0.0,0.0,0.0,0.0,0.0,-0.235,-0.2253,0.0,0.0,0.0,0.0,0.0,0.0,0.0,0.0,0.0,0.0,0.0,0.0,0.0,0.0,0.0,0.0,0.0,0.0,0.0,0.0,0.0,0.0,0.0,0.0,0.0,0.0,0.0,0.0,0.0,0.0,0.0,0.0,0.0,0.0,0.0,0.0,0.0,0.0,0.0,0.0,0.0,0.0,0.0,0.0,0.0,0.0,0.0,0.0,0.0,0.0,0.0,0.0,0.0,0.0,0.0,-1.3576,-1.5164,-1.6979,-1.8908,-1.938,-1.9394,-1.8859,-1.778,-1.6323,0.0,0.0,0.0,0.0,0.0,0.0,0.0,0.0,0.0,0.0,0.0,0.0,0.0,0.0,0.0,0.0,0.0,0.0,0.0,0.0,0.0,0.0,0.0,0.0,0.0,0.0,0.0,0.0,0.0,0.0,0.0,0.0,0.0,0.0,0.0,0.0,0.0,0.0,0.0,0.0,0.0,-0.2323,-0.2644,-0.2742,0.0,0.0,0.0,0.0,-0.2894,-0.287,0.0,0.0,0.0,0.0,0.0,0.0,0.0,0.0,0.0,0.0,0.0,0.0,0.0,0.0,0.0,0.0,0.0,0.0,0.0,0.0,0.0,0.0,0.0,0.0,0.0,0.0,0.0,0.0,0.0,0.0,0.0,0.0,0.0,0.0,0.0,0.0,0.0,0.0,0.0,0.0,0.0,0.0,0.0,0.0,0.0,0.0,0.0,0.0,0.0,0.0,0.0,0.0,0.0,0.0,0.0,0.0,-1.4301,-1.5635,-1.7326,-1.9494,-1.9747,-1.9509,-1.8983,-1.8261,-1.6851,0.0,0.0,0.0,0.0,0.0,0.0,0.0,0.0,0.0,0.0,0.0,0.0,0.0,0.0,0.0,0.0,0.0,0.0,0.0,0.0,0.0,0.0,0.0,0.0,0.0,0.0,0.0,0.0,0.0,0.0,0.0,0.0,0.0,0.0,0.0,0.0,0.0,0.0,0.0,0.0,0.0,-0.2719,-0.2924,-0.3185,-0.3437,0.0,0.0,-0.3917,-0.3921,-0.3758,0.0,0.0,0.0,0.0,0.0,0.0,0.0,0.0,0.0,0.0,0.0,0.0,0.0,0.0,0.0,0.0,0.0,0.0,0.0,0.0,0.0,0.0,0.0,0.0,0.0,0.0,0.0,0.0,0.0,0.0,0.0,0.0,0.0,0.0,0.0,0.0,0.0,0.0,0.0,0.0,0.0,0.0,0.0,0.0,0.0,0.0,0.0,0.0,0.0,0.0,0.0,0.0,0.0,0.0,0.0,-1.2257,-1.5222,-1.8048,-1.9842,-2.046,-2.055,-2.0436,-2.0194,-1.8528,-1.6929,0.0,0.0,0.0,0.0,0.0,0.0,0.0,0.0,0.0,0.0,0.0,0.0,0.0,0.0,0.0,0.0,0.0,0.0,0.0,0.0,0.0,0.0,0.0,0.0,0.0,0.0,0.0,0.0,0.0,0.0,0.0,0.0,0.0,0.0,0.0,0.0,0.0,0.0,0.0,0.0,0.0,0.0,-0.3749,-0.4009,0.0,0.0,0.0,-0.4469,-0.442,0.0,0.0,0.0,0.0,0.0,0.0,0.0,0.0,0.0,0.0,0.0,0.0,0.0,0.0,0.0,0.0,0.0,0.0,0.0,0.0,0.0,0.0,0.0,0.0,0.0,0.0,0.0,0.0,0.0,0.0,0.0,0.0,0.0,0.0,0.0,0.0,0.0,0.0,0.0,0.0,0.0,0.0,0.0,0.0,0.0,0.0,0.0,0.0,0.0,0.0,0.0,0.0,0.0,0.0,0.0,0.0,0.0,-1.6055,-2.0047,-2.1851,-2.1311,-2.1337,-2.126,-2.1093,-1.8999,0.0,0.0,0.0,0.0,0.0,0.0,0.0,0.0,0.0,0.0,0.0,0.0,0.0,0.0,0.0,0.0,0.0,0.0,0.0,0.0,0.0,0.0,0.0,0.0,0.0,0.0,0.0,-0.3585,0.0,0.0,0.0,0.0,0.0,0.0,0.0,0.0,0.0,0.0,0.0,0.0,0.0,0.0,-0.4044,-0.4538,-0.4804,-0.4984,0.0,0.0,-0.5054,-0.5009,-0.4813,-0.4584,0.0,0.0,0.0,0.0,0.0,0.0,0.0,0.0,0.0,0.0,0.0,0.0,0.0,0.0,0.0,0.0,0.0,0.0,0.0,0.0,0.0,0.0,0.0,0.0,0.0,0.0,0.0,0.0,0.0,0.0,0.0,0.0,0.0,0.0,0.0,0.0,0.0,0.0,0.0,0.0,0.0,0.0,0.0,0.0,0.0,0.0,0.0,0.0,0.0,0.0,0.0,0.0,0.0,0.0,0.0,-1.6799,-2.0495,-2.2218,-2.1863,-2.1928,-2.1684,-2.1118,-1.99,-1.8201,0.0,0.0,0.0,0.0,0.0,0.0,0.0,0.0,0.0,0.0,0.0,0.0,0.0,0.0,0.0,0.0,0.0,0.0,0.0,0.0,0.0,0.0,0.0,0.0,0.0,0.0,0.0,0.0,0.0,0.0,0.0,0.0,0.0,0.0,0.0,0.0,0.0,0.0,0.0,0.0,0.0,-0.4546,-0.4971,-0.541,-0.5578,0.0,0.0,-0.5958,-0.5782,-0.5443,-0.5168,-0.5048,0.0,0.0,0.0,0.0,0.0,0.0,0.0,0.0,0.0,0.0,0.0,0.0,0.0,0.0,0.0,0.0,0.0,0.0,0.0,0.0,0.0,0.0,0.0,0.0,0.0,0.0,0.0,0.0,0.0,0.0,0.0,0.0,0.0,0.0,0.0,0.0,0.0,0.0,0.0,0.0,0.0,0.0,0.0,0.0,0.0,0.0,0.0,0.0,0.0,0.0,0.0,0.0,0.0,-1.3631,-1.7609,-2.0935,-2.2576,-2.2456,-2.2837,-2.2732,-2.2034,-2.086,-1.9253,0.0,0.0,0.0,0.0,0.0,0.0,0.0,0.0,0.0,0.0,0.0,0.0,0.0,0.0,0.0,0.0,0.0,0.0,0.0,0.0,0.0,0.0,0.0,0.0,0.0,0.0,0.0,0.0,-0.413,-0.405,-0.361,0.0,0.0,0.0,0.0,0.0,0.0,0.0,0.0,0.0,0.0,-0.5052,-0.5581,-0.599,0.0,0.0,-0.6235,-0.6289,-0.5982,-0.5729,-0.5481,-0.5153,-0.4864,0.0,0.0,0.0,0.0,0.0,0.0,0.0,0.0,0.0,0.0,0.0,0.0,0.0,0.0,0.0,0.0,0.0,0.0,0.0,0.0,0.0,0.0,0.0,0.0,0.0,0.0,0.0,0.0,0.0,0.0,0.0,0.0,0.0,0.0,0.0,0.0,0.0,0.0,0.0,0.0,0.0,0.0,0.0,0.0,0.0,0.0,0.0,0.0,0.0,0.0,0.0,0.0,-1.5067,-1.8153,-2.1349,-2.2937,-2.2818,-2.3564,-2.367,-2.2936,-2.1719,-2.0276,0.0,0.0,0.0,0.0,0.0,0.0,0.0,0.0,0.0,0.0,0.0,0.0,0.0,0.0,0.0,0.0,0.0,0.0,0.0,0.0,0.0,0.0,0.0,0.0,0.0,0.0,0.0,0.0,-0.4345,-0.4123,-0.3667,0.0,0.0,0.0,0.0,0.0,0.0,0.0,0.0,0.0,0.0,-0.5566,-0.6053,-0.6532,-0.6701,-0.6425,-0.6619,-0.6611,-0.6235,-0.5991,-0.5764,-0.547,0.0,0.0,0.0,0.0,0.0,0.0,0.0,0.0,0.0,0.0,0.0,0.0,0.0,0.0,0.0,0.0,0.0,0.0,0.0,0.0,0.0,0.0,0.0,0.0,0.0,0.0,0.0,0.0,0.0,0.0,-1.298,0.0,0.0,0.0,0.0,0.0,0.0,0.0,0.0,0.0,0.0,0.0,0.0,0.0,0.0,0.0,0.0,0.0,0.0,0.0,0.0,0.0,0.0,-1.7679,-1.8409,-2.1794,-2.3289,-2.2858,-2.395,-2.43,-2.3657,-2.2525,-2.1289,-1.9951,0.0,0.0,0.0,0.0,0.0,0.0,0.0,0.0,0.0,0.0,0.0,0.0,0.0,0.0,0.0,0.0,0.0,0.0,0.0,0.0,0.0,0.0,0.0,0.0,0.0,0.0,-0.4808,-0.4388,-0.4004,0.0,0.0,0.0,0.0,0.0,0.0,0.0,0.0,0.0,0.0,-0.5517,-0.6091,-0.6352,-0.6912,-0.7095,-0.6509,-0.6807,-0.6944,-0.6558,-0.6249,-0.6013,0.0,0.0,0.0,0.0,0.0,0.0,0.0,0.0,0.0,0.0,0.0,0.0,0.0,0.0,0.0,0.0,0.0,0.0,0.0,0.0,0.0,0.0,0.0,0.0,0.0,0.0,0.0,-1.6502,-1.638,0.0,0.0,0.0,0.0,0.0,0.0,0.0,0.0,0.0,0.0,0.0,-1.7893,-1.8248,0.0,0.0,0.0,0.0,0.0,0.0,0.0,0.0,0.0,0.0,0.0,0.0,-1.8466,-1.9899,-2.2665,-2.4082,-2.4039,-2.4778,-2.4789,-2.3987,-2.3595,-2.2307,-2.0043,0.0,0.0,0.0,0.0,0.0,0.0,0.0,0.0,0.0,0.0,0.0,0.0,0.0,0.0,0.0,0.0,0.0,0.0,0.0,0.0,0.0,0.0,0.0,0.0,0.0,-0.5665,0.0,0.0,0.0,0.0,0.0,0.0,0.0,0.0,0.0,0.0,0.0,-0.4864,-0.5411,-0.593,-0.6406,-0.6895,-0.7249,-0.7452,0.0,0.0,0.0,0.0,0.0,0.0,0.0,0.0,0.0,0.0,0.0,0.0,0.0,0.0,-0.4278,-0.3506,-0.3333,-0.3229,-0.3123,0.0,0.0,0.0,0.0,0.0,0.0,0.0,0.0,0.0,0.0,0.0,0.0,0.0,0.0,0.0,0.0,-1.8377,0.0,0.0,0.0,0.0,0.0,0.0,0.0,0.0,-1.743,-1.8097,-2.0231,-2.1055,-2.1042,0.0,-1.9841,-1.849,0.0,0.0,0.0,0.0,0.0,0.0,0.0,0.0,-1.922,-2.1074,-2.3063,-2.4297,-2.4595,-2.5177,-2.5177,-2.46,-2.4245,-2.3055,-2.086,-1.8737,-1.7044,0.0,0.0,0.0,0.0,0.0,0.0,0.0,0.0,0.0,0.0,0.0,0.0,0.0,0.0,0.0,0.0,0.0,0.0,0.0,0.0,0.0,0.0,0.0,-0.6254,0.0,0.0,0.0,0.0,0.0,0.0,0.0,0.0,0.0,-0.4467,-0.5074,-0.5654,-0.6101,-0.6638,-0.711,-0.7485,0.0,0.0,0.0,0.0,0.0,0.0,0.0,-0.7252,-0.7207,-0.7163,-0.7066,-0.6817,-0.6607,-0.6461,-0.6507,0.0,0.0,-0.4626,-0.4414,-0.4352,-0.4293,-0.4234,-0.4118,-0.3822,-0.3706,-0.3646,0.0,0.0,0.0,0.0,0.0,0.0,0.0,0.0,-2.216,-2.1993,0.0,-2.1184,0.0,0.0,0.0,0.0,0.0,-1.9333,0.0,0.0,-1.9431,-2.0119,-2.2583,-2.3853,-2.3638,-2.2178,-2.1952,-2.1449,-2.0608,-1.8345,0.0,0.0,0.0,0.0,0.0,0.0,-2.0097,-2.1944,-2.3073,-2.3986,-2.4718,-2.5273,-2.5522,-2.5508,-2.4587,-2.3486,-2.2275,-2.0806,-1.9463,-1.8297,-1.5879,0.0,0.0,0.0,0.0,0.0,0.0,0.0,0.0,0.0,0.0,0.0,0.0,0.0,0.0,0.0,0.0,0.0,0.0,0.0,0.0,-0.6724,0.0,0.0,0.0,0.0,0.0,0.0,0.0,0.0,0.0,0.0,-0.526,-0.5998,-0.6707,-0.6836,0.0,0.0,0.0,0.0,-0.8281,-0.7936,-0.7915,-0.8022,-0.8037,-0.7899,-0.7845,-0.8193,0.0,0.0,-0.7938,-0.7824,-0.7615,-0.741,-0.7419,-0.6997,-0.588,-0.5656,-0.5575,-0.5575,-0.5449,-0.5319,-0.5113,-0.4982,-0.4855,-2.7374,0.0,0.0,0.0,0.0,-2.3315,-2.3615,-2.4367,-2.4219,-2.4259,-2.4247,-2.3352,0.0,0.0,0.0,0.0,0.0,0.0,-2.2226,-2.3271,-2.3258,-2.3904,-2.5035,-2.6233,-2.623,-2.5164,-2.4587,-2.407,-2.3445,-2.1843,-2.0194,-1.852,0.0,0.0,0.0,0.0,-2.1589,-2.2941,-2.3809,-2.4991,-2.6479,-2.6595,-2.6456,-2.6272,-2.4984,-2.4041,-2.3567,-2.1783,-2.0412,-1.9502,-1.7486,0.0,0.0,0.0,0.0,0.0,0.0,0.0,0.0,0.0,0.0,0.0,0.0,0.0,0.0,0.0,0.0,0.0,0.0,0.0,-0.8283,-0.8361,-0.8164,0.0,0.0,0.0,0.0,0.0,0.0,0.0,0.0,0.0,-0.7694,-0.7433,-0.7422,0.0,0.0,-0.8521,-0.8636,-0.8816,-0.889,-0.8922,0.0,0.0,0.0,-0.8958,-0.8822,-0.8816,-0.876,-0.8917,-0.9145,-0.9057,-0.8875,-0.9008,-0.8779,-0.8444,-0.8134,-0.7493,-0.7114,-0.7032,-0.6881,-0.6655,-0.6434,-0.6289,-0.6141,-3.0861,-2.8912,-2.683,-2.6004,-2.6115,-2.5889,-2.6189,-2.6814,-2.6822,-2.6826,-2.6678,-2.5911,-2.5261,-2.4709,-2.4101,0.0,0.0,0.0,-2.4619,-2.5277,-2.6037,-2.6422,-2.655,-2.7381,-2.734,-2.6497,-2.6006,-2.5645,-2.5289,-2.4297,-2.3135,-2.1754,0.0,0.0,-2.04,-2.1197,-2.2338,-2.3806,-2.4283,-2.5269,-2.6854,-2.6732,-2.6567,-2.6316,-2.5342,-2.4627,-2.4191,-2.2744,-2.1515,-2.0444,-1.8627,-1.6803,0.0,0.0,0.0,0.0,0.0,0.0,0.0,0.0,0.0,0.0,0.0,-0.6878,0.0,0.0,0.0,0.0,-0.8487,-0.9106,-0.9591,-0.9632,0.0,0.0,0.0,0.0,0.0,0.0,0.0,-0.8296,-0.8891,-0.9419,-0.9648,-0.9402,-0.9153,-0.9192,-0.9426,-0.9623,-0.9719,0.0,-0.9777,-0.9926,-1.0043,-1.0107,-1.0122,-1.0008,-0.9957,-0.9909,-0.997,-0.9996,-1.0037,-1.0025,-0.9912,-0.9791,-0.9645,-0.9542,-0.9542,-0.9064,-0.8582,-0.8207,-0.8015,-0.777,-0.7458,-0.73,-0.7224,-3.3852,-3.2916,-3.0433,-2.882,-2.797,-2.8561,-2.8795,-2.8865,-2.9495,-2.9325,-2.8537,-2.852,-2.7928,-2.6979,-2.6722,0.0,-2.6369,-2.6883,-2.7005,-2.6925,-2.7851,-2.7969,-2.7423,-2.7769,-2.7565,-2.6904,-2.6683,-2.6503,-2.6337,-2.5953,-2.5689,-2.563,-2.2892,-2.157,-2.1785,-2.1783,-2.2701,-2.4461,-2.4576,-2.522,-2.6383,-2.6304,-2.6113,-2.5962,-2.5742,-2.5203,-2.4285,-2.3578,-2.2593,-2.1225,-1.9402,-1.7742,-1.6331,0.0,0.0,0.0,0.0,0.0,0.0,0.0,0.0,0.0,0.0,0.0,0.0,0.0,0.0,0.0,-0.9952,0.0,-1.0907,-1.0725,0.0,0.0,0.0,-1.0082,-0.9829,-0.9962,-1.0125,-1.0147,0.0,0.0,-1.1318,0.0,-1.1521,-1.0548,-1.0948,-1.1194,-1.105,-1.0887,-1.0849,-1.088,-1.073,-1.0771,-1.1004,-1.1059,-1.1036,-1.1198,-1.1312,-1.1139,-1.0865,-1.0795,-1.0621,-1.0239,-1.0294,-1.0343,-1.0338,-1.0213,-1.0005,-0.9032,-0.8808,-0.8643,-0.8309,-0.8143,-0.7978,-3.5145,-3.4813,-3.4079,-3.219,-2.9713,-2.9814,-2.9822,-2.9776,-2.9869,-2.9719,-2.9447,-2.9415,-2.9093,-2.8558,-2.8433,-2.8179,-2.7898,-2.8025,-2.8234,-2.8559,-2.8714,-2.8929,-2.9162,-2.9115,-2.8891,-2.8556,-2.8326,-2.8108,-2.7856,-2.7145,-2.665,-2.6288,-2.5133,-2.419,-2.3547,-2.3487,-2.3725,-2.4232,-2.5091,-2.6029,-2.7161,-2.7164,-2.6866,-2.6233,-2.5551,-2.4805,-2.41,-2.3053,-2.24,-2.1961,-2.0054,-1.8508,-1.7669,-1.5363,0.0,0.0,0.0,0.0,0.0,0.0,0.0,0.0,0.0,-0.9008,-0.9014,0.0,-0.9963,0.0,-1.1438,-1.2094,-1.2133,-1.2149,0.0,0.0,-1.1919,-1.1793,-1.1402,-1.1772,-1.2093,-1.2236,-1.2343,-1.2595,-1.3126,-1.3423,-1.3484,-1.3273,-1.2593,-1.2066,-1.1995,-1.2018,-1.2058,-1.2071,-1.2063,-1.2136,-1.2114,-1.1945,-1.1686,-1.1606,-1.1646,-1.1632,-1.1657,-1.1527,-1.1442,-1.1272,-1.1054,-1.0838,-1.0833,-1.0534,-1.026,-0.9995,-0.9633,-0.9375,-0.9289,-0.894,-0.869,-3.6552,-3.6077,-3.5978,-3.4643,-3.2503,-3.2004,-3.157,-3.1155,-3.1072,-3.0988,-3.087,-3.0716,-3.0488,-3.0309,-3.0125,-2.9863,-2.9666,-2.9532,-2.9589,-2.9691,-2.9657,-2.9685,-2.9793,-2.9694,-2.9441,-2.9075,-2.8998,-2.8779,-2.8462,-2.7963,-2.7588,-2.7315,-2.6522,-2.5821,-2.5227,-2.4805,-2.4736,-2.493,-2.5879,-2.6651,-2.7219,-2.7194,-2.6784,-2.6007,-2.5479,-2.4662,-2.361,-2.2998,-2.2432,-2.1898,-2.0469,-1.9184,-1.8162,-1.6436,-1.4917,0.0,0.0,0.0,0.0,0.0,0.0,0.0,0.0,0.0,0.0,0.0,-1.1743,0.0,-1.303,-1.3558,-1.3645,-1.3741,-1.3749,-1.3681,-1.364,-1.3515,-1.3083,-1.3474,-1.3705,-1.3769,-1.4009,-1.4287,-1.4609,-1.4733,-1.4793,-1.4827,-1.4223,-1.359,-1.3191,-1.3217,-1.3256,-1.3115,-1.3048,-1.305,-1.299,-1.2688,-1.2496,-1.2374,-1.2242,-1.212,-1.2174,-1.2123,-1.1952,-1.1699,-1.1527,-1.1267,-1.1181,-1.0829,-1.0559,-1.0467,-1.0207,-0.9859,-0.9602,-0.9432,-0.9174,-3.7805,-3.6988,-3.697,-3.6438,-3.5516,-3.4549,-3.365,-3.2823,-3.2789,-3.2686,-3.2476,-3.2223,-3.2061,-3.1938,-3.1619,-3.1359,-3.1207,-3.0992,-3.0773,-3.0526,-3.0443,-3.0215,-2.9897,-2.9793,-2.9589,-2.9213,-2.9121,-2.8936,-2.8668,-2.8541,-2.8381,-2.8204,-2.7397,-2.6916,-2.6756,-2.6024,-2.5756,-2.5985,-2.6667,-2.7034,-2.7041,-2.6899,-2.6393,-2.5582,-2.5386,-2.4568,-2.3138,-2.2985,-2.254,-2.1533,-2.0793,-1.9779,-1.8455,-1.754,-1.6284,0.0,-1.4237,0.0,0.0,0.0,0.0,0.0,0.0,0.0,0.0,-1.3054,-1.3872,-1.4326,-1.4664,-1.4955,-1.5212,-1.5327,-1.5386,-1.5596,-1.5406,-1.5204,-1.4881,-1.5138,-1.5299,-1.5074,-1.558,-1.5914,-1.5823,-1.5791,-1.5822,-1.5677,-1.5724,-1.5367,-1.4712,-1.4424,-1.4288,-1.4108,-1.3851,-1.3602,-1.3464,-1.3281,-1.3112,-1.3124,-1.2857,-1.2705,-1.2534,-1.2448,-1.2283,-1.1866,-1.1699,-1.1613,-1.1435,-1.1181,-1.0916,-1.0738,-1.0467,-1.012,-0.9777,-0.9602,-0.9432,-3.8245,-3.7987,-3.7902,-3.7365,-3.6492,-3.6215,-3.5508,-3.4587,-3.4429,-3.425,-3.4067,-3.3952,-3.3453,-3.2714,-3.2561,-3.2042,-3.119,-3.1151,-3.0935,-3.0651,-3.0526,-3.0401,-3.0274,-2.9941,-2.9766,-2.9633,-2.9289,-2.9075,-2.8998,-2.8826,-2.8589,-2.8332,-2.8161,-2.7969,-2.7758,0.0,0.0,0.0,-2.7299,-2.7402,-2.7181,-2.7055,-2.6396,-2.5243,-2.4953,0.0,-2.278,-2.2494,-2.2203,-2.1888,-2.1041,0.0,0.0,0.0,0.0,0.0,0.0,0.0,0.0,0.0,0.0,0.0,-1.5039,-1.5466,-1.3928,-1.4891,-1.5838,-1.629,-1.6397,-1.6377,-1.6465,-1.6536,-1.6487,-1.6241,-1.6684,-1.6874,-1.6617,-1.6881,-1.7063,-1.7063,-1.6871,-1.6834,-1.7047,-1.6854,-1.6768,-1.6934,-1.6912,-1.6684,-1.6288,-1.5591,-1.5211,-1.5061,-1.4587,-1.4162,-1.3984,-1.3743,-1.3483,-1.3398,-1.3137,-1.3052,-1.2966,-1.2625,-1.2448,-1.2283,-1.1952,-1.1699,-1.1613,-1.1273,-1.1008,-1.0921,-1.0559,-1.0207,-0.9951,-0.9777,-0.9607,-3.8382,0.0,-3.8238,-3.7884,0.0,-3.7338,-3.6932,-3.6328,-3.535,-3.4853,-3.4653,-3.4504,-3.4161,-3.3627,-3.3507,-3.2882,-3.1986,-3.1811,-3.1466,-3.0969,-3.1075,-3.1073,-3.1004,-3.1117,-3.1026,-3.0862,-3.0649,-3.037,-3.0148,-3.002,-2.9826,-2.9565,-2.9206,-2.8889,-2.866,-2.8286,-2.7871,-2.7488,-2.7548,-2.7512,-2.7284,-2.7248,-2.6724,-2.5668,0.0,0.0,0.0,0.0,0.0,0.0,0.0,0.0,0.0,0.0,0.0,-1.8714,-1.8155,-1.7899,-1.7939,-1.7861,-1.7346,-1.6384,-1.8066,-1.8283,-1.6246,-1.6857,-1.7392,-1.7647,-1.7795,-1.7956,-1.8045,-1.8047,-1.8023,-1.7834,-1.7971,-1.7934,-1.7688,-1.7866,-1.8033,-1.7917,-1.781,-1.7857,-1.7961,-1.7669,-1.7506,-1.7513,-1.7383,-1.7139,-1.6894,-1.6312,-1.5809,-1.5477,-1.5075,-1.4657,-1.4328,-1.4082,-1.3828,-1.3568,-1.3398,-1.3228,-1.3137,-1.2875,-1.2705,-1.2448,-1.2198,-1.1952,-1.1699,-1.1527,-1.1267,-1.1008,-1.0829,-1.0559,-1.0212,-0.9951,-0.9781,-3.851,-3.8433,-3.8368,-3.8271,-3.8153,-3.8052,-3.7915,-3.7614,0.0,0.0,0.0,-3.5019,-3.4798,-3.4634,-3.4402,-3.383,-3.3046,-3.2719,-3.2235,-3.1613,-3.1918,-3.1991,-3.1835,-3.2326,-3.2364,-3.2104,-3.201,-3.1742,-3.1372,-3.1323,-3.1126,-3.0845,-3.023,-2.9816,-2.962,-2.8909,-2.8434,-2.8223,-2.7861,-2.759,-2.7488,-2.7401,-2.7024,-2.6273,-2.5644,-2.4911,-2.408,-2.3357,-2.2851,-2.2569,-2.2235,-2.176,-2.1138,-2.0777,-2.0488,-2.0267,-1.9959,-1.9864,-2.0204,-1.9867,-1.9679,-1.9731,-2.0949,-2.0807,-1.8663,-1.8725,-1.8942,-1.8973,-1.9229,-1.94,-1.9493,-1.9501,-1.9478,-1.9404,-1.9168,-1.8909,-1.848,-1.8672,-1.8747,-1.8464,-1.8549,-1.8692,-1.8496,-1.8264,-1.8031,-1.787,-1.7627,-1.7383,-1.7131,-1.664,-1.6139,-1.556,-1.5242,-1.4999,-1.4573,-1.4237,-1.4082,-1.3822,-1.3561,-1.3392,-1.3222,-1.3143,-1.2966,-1.2534,-1.2448,-1.2203,-1.1871,-1.1699,-1.1527,-1.1094,-1.1013,-1.0916,-1.0472,-1.0212,-0.9951,-3.8701,-3.8658,-3.8528,-3.8382,-3.8274,-3.8119,-3.7949,-3.7685,-3.7254,-3.698,-3.6773,-3.6675,-3.6225,-3.5496,-3.53,-3.4743,-3.3955,-3.3745,-3.3475,0.0,-3.3152,-3.2992,-3.2723,-3.2691,-3.259,-3.2393,-3.2134,-3.1963,-3.1869,-3.1646,-3.1421,-3.1191,-3.1016,-3.0835,-3.0585,-3.0253,-3.0053,-3.0022,-2.85,-2.774,-2.774,-2.7539,-2.7075,-2.6421,-2.6184,-2.5619,-2.4781,-2.4631,-2.4379,-2.4,-2.385,-2.3543,-2.3026,-2.2886,-2.2602,-2.2101,-2.1982,-2.182,-2.1475,-2.1681,-2.1987,-2.2414,-2.3107,-2.2645,-2.0542,-2.0467,-2.0684,-2.1083,-2.0614,-2.0276,-2.0308,-2.0419,-2.0227,-1.9938,-2.0146,-2.0149,-1.9637,-1.9468,-1.9446,-1.9289,-1.9116,-1.8922,-1.8843,-1.8603,-1.8362,-1.8273,-1.787,-1.7538,-1.7139,-1.6722,-1.6221,-1.5733,-1.5484,-1.5151,-1.4817,-1.4482,-1.4328,-1.4082,-1.3815,-1.3561,-1.3392,-1.3222,-1.3052,-1.2705,-1.254,-1.2283,-1.2037,-1.1785,-1.1613,-1.1354,-1.1181,-1.1008,-1.0829,-1.0564,-1.0212,-3.8822,-3.8732,-3.864,-3.8528,-3.8401,-3.8186,-3.8,-3.7845,-3.7631,-3.7449,-3.7261,-3.7126,-3.6816,-3.6383,-3.6225,-3.5665,-3.4794,-3.468,-3.4277,-3.3714,-3.388,-3.3938,-3.3816,-3.3918,-3.3935,-3.3796,-3.3561,-3.3371,-3.3113,-3.3015,-3.2818,-3.2551,-3.2051,-3.1694,-3.151,-3.0639,-3.0485,-3.101,-2.9709,-2.8949,-2.8912,-2.8771,-2.8517,-2.8151,-2.7669,-2.7174,-2.6711,-2.6207,-2.5763,-2.5379,-2.5208,-2.4998,-2.465,-2.4463,-2.4204,-2.3861,-2.3887,-2.3759,-2.3457,-2.3568,-2.3617,-2.3624,-2.3984,-2.3823,-2.2779,-2.215,-2.1933,-2.1969,-2.1668,-2.1488,-2.1523,-2.1383,-2.112,-2.0959,-2.0854,-2.0654,-2.0333,-2.0108,-1.9872,-1.9636,-1.9408,-1.924,-1.9002,-1.8843,-1.8603,-1.8442,-1.8023,-1.761,-1.7456,-1.7049,-1.6648,-1.6147,-1.5809,-1.5484,-1.5151,-1.4901,-1.4657,-1.4328,-1.4153,-1.3899,-1.3646,-1.3392,-1.3228,-1.2966,-1.2711,-1.2454,-1.2198,-1.2037,-1.1785,-1.1527,-1.1354,-1.1181,-1.1003,-1.0651,-1.0212,-3.8892,-3.8851,-3.875,-3.864,-3.8478,-3.8234,-3.8086,-3.8018,-3.7845,-3.7667,-3.7466,-3.7243,-3.7126,-3.7009,-3.6908,-3.6417,-3.5769,-3.5578,-3.5145,-3.45,-3.4729,-3.4847,-3.4793,-3.5069,-3.5135,-3.4994,-3.4851,-3.4611,-3.43,-3.4201,-3.405,-3.3748,-3.3013,-3.259,-3.2526,-3.1362,-3.1171,-3.1871,-3.1089,-3.0358,-2.9887,-2.9872,-2.9765,-2.9589,-2.9017,-2.8628,-2.8453,-2.77,-2.7171,-2.6877,-2.6645,-2.6425,-2.6204,-2.5938,-2.5654,-2.5453,-2.5494,-2.5501,-2.5341,-2.509,-2.4878,-2.4632,-2.473,-2.4711,-2.4479,-2.379,-2.3097,-2.28,-2.2578,-2.2524,-2.2435,-2.2231,-2.1959,-2.1807,-2.1436,-2.0974,-2.0731,-2.0498,-2.0186,-1.9872,-1.9636,-1.9478,-1.924,-1.9082,-1.8843,-1.8434,-1.8103,-1.7861,-1.77,-1.7383,-1.7049,-1.664,-1.6147,-1.5733,-1.5484,-1.5235,-1.4992,-1.4559,-1.4391,-1.4237,-1.3906,-1.3652,-1.3398,-1.3143,-1.2966,-1.2705,-1.2448,-1.2198,-1.1952,-1.1693,-1.1527,-1.1348,-1.1008,-1.0738,-1.0294,-3.8997,-3.895,-3.8833,-3.8683,-3.851,-3.8336,-3.8204,-3.8068,-3.8018,-3.7845,-3.7667,-3.7449,-3.7261,-3.7108,-3.7009,-3.6838,-3.6649,-3.6464,-3.6212,-3.6042,-3.6053,-3.5847,-3.5487,-3.5543,-3.5458,-3.5245,-3.4994,-3.4851,-3.4756,-3.4546,-3.4366,-3.405,-3.3732,-3.3531,-3.3499,-3.316,-3.3035,-3.3145,-3.2701,-3.1689,-3.0265,-3.0068,-2.9925,-2.9765,-2.9735,-2.9499,-2.9243,-2.9005,-2.8755,-2.8492,-2.8154,-2.7868,-2.7593,-2.7404,-2.7096,-2.6652,-2.666,-2.6626,-2.6489,-2.5894,-2.5724,-2.6133,-2.5889,-2.5578,-2.5286,-2.5097,-2.4744,-2.4074,-2.3514,-2.3158,-2.299,-2.2703,-2.2402,-2.1949,-2.1731,-2.1512,-2.0974,-2.0731,-2.0489,-2.0264,-1.9872,-1.9557,-1.9478,-1.924,-1.8843,-1.8523,-1.8353,-1.8112,-1.7861,-1.77,-1.7456,-1.7049,-1.664,-1.6139,-1.5643,-1.5394,-1.5144,-1.4817,-1.4566,-1.4321,-1.4075,-1.3822,-1.3568,-1.3307,-1.3052,-1.2881,-1.2619,-1.2363,-1.2203,-1.1866,-1.1699,-1.1532,-1.1094,-1.0824,-1.0472,-3.9064,-3.8997,-3.8939,-3.8803,-3.8609,-3.8465,-3.8336,-3.8223,-3.8138,-3.7966,-3.7845,-3.7667,-3.7449,-3.7261,-3.7108,-3.7009,-3.6891,-3.6748,-3.6568,-3.6402,-3.6318,-3.6165,-3.5949,-3.5711,-3.5532,-3.5458,-3.5245,-3.5058,-3.4899,-3.4659,-3.4448,-3.43,-3.4101,-3.3949,-3.3915,-3.3658,-3.345,-3.3293,-3.3171,-3.2623,-3.1905,-3.1528,-3.1296,-3.1107,-3.1011,-3.0885,-3.063,-3.049,-3.019,-2.9857,-2.9681,-2.943,-2.9011,-2.8844,-2.8419,-2.7856,-2.751,-2.727,-2.7197,-2.6893,-2.6662,-2.6645,-2.6371,-2.6119,-2.6042,-2.556,-2.517,-2.4814,-2.425,-2.3751,-2.3372,-2.3086,-2.2777,-2.2478,-2.2111,-2.1731,-2.1436,-2.1051,-2.0664,-2.0489,-2.0186,-1.9872,-1.9636,-1.924,-1.8922,-1.8763,-1.8603,-1.8273,-1.8112,-1.7861,-1.7619,-1.7448,-1.7049,-1.664,-1.6064,-1.5726,-1.5484,-1.5144,-1.4901,-1.4748,-1.4321,-1.4075,-1.3828,-1.3483,-1.3307,-1.3052,-1.2881,-1.2534,-1.2283,-1.2032,-1.1785,-1.1532,-1.11,-1.0921,-1.0651,-3.9129,-3.9064,-3.9007,-3.8881,-3.8719,-3.859,-3.8465,-3.8336,-3.8219,-3.8101,-3.8018,-3.7845,-3.7667,-3.7485,-3.7261,-3.7108,-3.7027,-3.6908,-3.6731,-3.6568,-3.6444,-3.6318,-3.6191,-3.5932,-3.5711,-3.5622,-3.5441,-3.5291,-3.4977,-3.4739,-3.4594,-3.4594,-3.4349,-3.4201,-3.4201,-3.3949,-3.371,-3.3555,-3.345,-3.3256,-3.2973,-3.2742,-3.2468,-3.215,-3.1996,-3.1868,-3.1625,-3.1452,-3.1204,-3.0851,-3.0687,-3.0447,-3.0068,-2.9619,-2.9069,-2.8307,-2.7948,-2.7628,-2.7538,-2.7498,-2.7335,-2.7011,-2.6714,-2.6533,-2.6389,-2.5923,-2.5523,-2.5229,-2.4814,-2.4322,-2.3824,-2.3457,-2.3224,-2.3001,-2.2402,-2.2111,-2.1797,-2.1359,-2.1051,-2.0731,-2.0498,-2.0186,-1.9794,-1.9399,-1.9161,-1.9082,-1.8763,-1.8523,-1.8442,-1.8112,-1.7861,-1.7781,-1.7456,-1.7049,-1.6566,-1.6072,-1.5741,-1.5484,-1.5242,-1.4915,-1.4573,-1.4328,-1.3997,-1.3646,-1.3392,-1.3222,-1.3052,-1.2711,-1.2454,-1.2363,-1.2032,-1.1613,-1.1354,-1.1094,-1.0829,-3.9183,-3.9156,-3.9064,-3.8921,-3.8773,-3.8719,-3.8609,-3.8478,-3.8354,-3.8223,-3.8119,-3.8018,-3.788,-3.765,-3.7485,-3.7299,-3.7108,-3.7009,-3.6891,-3.6771,-3.6585,-3.6402,-3.6301,-3.6208,-3.6036,-3.58,-3.5667,-3.5503,-3.5308,-3.4994,-3.4899,-3.4851,-3.4611,-3.4497,-3.4448,-3.4201,-3.4101,-3.3984,-3.3797,-3.3555,-3.3309,-3.3256,-3.2958,-3.2453,-3.2398,-3.2247,-3.1981,-3.1667,-3.148,-3.1422,-3.0911,-3.0568,-3.045,-2.9497,-2.8482,-2.7736,-2.7626,-2.7705,-2.7638,-2.7603,-2.751,-2.7403,-2.7134,-2.6875,-2.664,-2.6371,-2.6013,-2.537,-2.5241,-2.4897,-2.4334,-2.397,-2.3593,-2.315,-2.3001,-2.2553,-2.1949,-2.1797,-2.1502,-2.1041,-2.0731,-2.0411,-1.9942,-1.9724,-1.9478,-1.9311,-1.9073,-1.8922,-1.8692,-1.8442,-1.8273,-1.8031,-1.7789,-1.7456,-1.6812,-1.6409,-1.6079,-1.5741,-1.5409,-1.5006,-1.4748,-1.4489,-1.4153,-1.3906,-1.3737,-1.3568,-1.3222,-1.2966,-1.2796,-1.254,-1.2032,-1.1693,-1.1527,-1.1267,-1.1003,-3.9309,-3.9202,-3.9064,-3.895,-3.8892,-3.881,-3.8701,-3.8609,-3.8465,-3.8368,-3.8204,-3.8119,-3.8018,-3.7862,-3.7667,-3.7485,-3.7317,-3.7203,-3.7105,-3.6948,-3.6851,-3.6708,-3.6444,-3.6335,-3.6191,-3.6036,-3.5932,-3.5711,-3.5503,-3.5274,-3.5135,-3.5105,-3.4899,-3.4756,-3.4707,-3.4497,-3.43,-3.4101,-3.4,-3.3813,-3.3555,-3.3466,-3.3293,-3.2973,-3.2617,-3.2342,-3.2247,-3.1966,-3.1724,-3.148,-3.1321,-3.0778,-2.9958,-2.8897,-2.8119,-2.7687,-2.7617,-2.7618,-2.7664,-2.7642,-2.7601,-2.7497,-2.7403,-2.7253,-2.7114,-2.6696,-2.6277,-2.6,-2.5511,-2.517,-2.4897,-2.4394,-2.3959,-2.3593,-2.3224,-2.2927,-2.2553,-2.2101,-2.1731,-2.1425,-2.0964,-2.0498,-2.0264,-1.9951,-1.9715,-1.9478,-1.9311,-1.9152,-1.8922,-1.8772,-1.8531,-1.8273,-1.8031,-1.7789,-1.7456,-1.6812,-1.6409,-1.5997,-1.5665,-1.5333,-1.5075,-1.4915,-1.4664,-1.4237,-1.4068,-1.3822,-1.3483,-1.3137,-1.2966,-1.2534,-1.2118,-1.1866,-1.1699,-1.144,-1.1181,-3.9399,-3.9256,-3.912,-3.9064,-3.8989,-3.8892,-3.884,-3.8719,-3.8609,-3.8496,-3.8368,-3.8252,-3.8135,-3.8018,-3.7897,-3.7739,-3.754,-3.741,-3.7241,-3.7105,-3.7027,-3.6869,-3.6667,-3.6502,-3.6377,-3.6208,-3.6062,-3.5888,-3.5694,-3.5503,-3.5429,-3.5383,-3.5135,-3.5041,-3.4994,-3.4739,-3.4546,-3.4349,-3.4284,-3.4101,-3.3848,-3.3745,-3.3607,-3.3398,-3.2942,-3.2617,-3.2468,-3.2247,-3.2023,-3.1751,-3.1414,-3.0493,-2.9115,-2.8325,-2.7698,-2.7243,-2.7225,-2.7284,-2.7366,-2.755,-2.7719,-2.7853,-2.767,-2.7575,-2.7465,-2.6969,-2.6633,-2.6346,-2.6,-2.5581,-2.5241,-2.4826,-2.4394,-2.4043,-2.3593,-2.3298,-2.299,-2.2467,-2.2101,-2.1731,-2.1195,-2.0731,-2.0508,-2.0264,-2.0029,-1.9882,-1.9548,-1.9311,-1.9152,-1.8922,-1.8772,-1.8594,-1.8362,-1.8031,-1.7789,-1.7302,-1.6812,-1.6402,-1.5906,-1.5575,-1.5325,-1.5166,-1.4999,-1.4573,-1.4321,-1.4075,-1.3737,-1.3392,-1.3052,-1.2705,-1.2369,-1.2118,-1.1866,-1.1613,-1.1332,-3.9451,-3.9373,-3.9275,-3.9175,-3.9101,-3.9036,-3.8939,-3.8822,-3.8738,-3.8609,-3.8478,-3.8415,-3.8285,-3.8153,-3.8068,-3.7984,-3.7828,-3.7577,-3.741,-3.7297,-3.7105,-3.7009,-3.693,-3.6748,-3.6544,-3.6318,-3.6105,-3.6019,-3.5975,-3.5756,-3.5622,-3.5577,-3.5429,-3.5291,-3.5291,-3.5041,-3.4899,-3.4804,-3.4594,-3.4366,-3.4151,-3.405,-3.3965,-3.3694,-3.3398,-3.3081,-3.2648,-3.2468,-3.2302,-3.2059,-3.1237,-2.9703,-2.8294,-2.7766,-2.7216,-2.6505,-2.6623,-2.6679,-2.6759,-2.7242,-2.7824,-2.8157,-2.8007,-2.7525,-2.7222,-2.7141,-2.6873,-2.635,-2.617,-2.5958,-2.5378,-2.5155,-2.485,-2.4334,-2.4127,-2.3751,-2.3298,-2.3001,-2.2628,-2.1959,-2.1425,-2.1138,-2.0906,-2.0654,-2.0489,-2.0264,-1.9951,-1.9636,-1.9548,-1.924,-1.9082,-1.8913,-1.8683,-1.8362,-1.8112,-1.7789,-1.7294,-1.6804,-1.6229,-1.5816,-1.5484,-1.5325,-1.5166,-1.4824,-1.4482,-1.4237,-1.3906,-1.3568,-1.3222,-1.2881,-1.2631,-1.2283,-1.1946,-1.1677,-1.137,-3.9483,-3.9469,-3.9373,-3.9256,-3.9156,-3.9101,-3.9036,-3.8939,-3.8881,-3.8762,-3.8658,-3.8627,-3.8496,-3.8318,-3.8168,-3.8086,-3.8018,-3.7828,-3.7667,-3.7521,-3.7354,-3.7164,-3.7009,-3.6948,-3.6806,-3.6544,-3.6318,-3.6216,-3.6191,-3.5975,-3.5888,-3.5844,-3.5639,-3.5487,-3.5503,-3.5274,-3.5088,-3.4899,-3.4787,-3.4659,-3.4399,-3.4201,-3.405,-3.3949,-3.3694,-3.3382,-3.3065,-3.2742,-3.2453,-3.2342,-3.1921,-3.089,-2.9169,-2.7749,-2.6944,-2.6611,-2.6389,-2.6455,-2.6679,-2.684,-2.723,-2.7577,-2.7344,-2.6814,-2.6319,-2.6283,-2.6207,-2.578,-2.5494,-2.519,-2.4992,-2.4579,-2.4486,-2.4636,-2.4345,-2.407,-2.3649,-2.3254,-2.2703,-2.1959,-2.1655,-2.1502,-2.1118,-2.0934,-2.0653,-2.0508,-2.0197,-1.9972,-1.9756,-1.9464,-1.932,-1.9231,-1.8913,-1.8576,-1.817,-1.788,-1.7481,-1.7065,-1.6545,-1.6139,-1.5816,-1.5484,-1.5242,-1.4992,-1.465,-1.4398,-1.4075,-1.3737,-1.3483,-1.3137,-1.2796,-1.2448,-1.202,-1.1707,-1.1453,-3.9564,-3.9571,-3.9469,-3.9399,-3.9283,-3.9229,-3.9147,-3.9036,-3.9007,-3.891,-3.881,-3.875,-3.8658,-3.8496,-3.8318,-3.8219,-3.8153,-3.8036,-3.7898,-3.7721,-3.754,-3.7354,-3.7164,-3.7009,-3.6948,-3.6788,-3.6585,-3.6444,-3.6444,-3.6233,-3.6088,-3.6062,-3.5888,-3.5711,-3.5667,-3.5503,-3.5321,-3.5135,-3.4961,-3.4802,-3.4643,-3.4448,-3.425,-3.4151,-3.3949,-3.3761,-3.3503,-3.3081,-3.2757,-3.2485,-3.1982,-3.0799,-2.9274,-2.7876,-2.7026,-2.6779,-2.6529,-2.6418,-2.6552,-2.6666,-2.6745,-2.6982,-2.6889,-2.6614,-2.6179,-2.6034,-2.5874,-2.5623,-2.5409,-2.5065,-2.4833,-2.4561,-2.4432,-2.4455,-2.4167,-2.3838,-2.3544,-2.2889,-2.2299,-2.1755,-2.1555,-2.13,-2.1002,-2.0777,-2.0627,-2.0391,-2.0088,-1.986,-1.9631,-1.9382,-1.9189,-1.9034,-1.8702,-1.8357,-1.8186,-1.7874,-1.7569,-1.7276,-1.6831,-1.6561,-1.6237,-1.5824,-1.5492,-1.5166,-1.4824,-1.4566,-1.4321,-1.399,-1.3737,-1.3392,-1.2905,-1.2553,-1.2167,-1.1798,-1.1444,-3.9693,-3.9693,-3.9571,-3.9495,-3.9469,-3.9399,-3.9301,-3.9147,-3.9101,-3.9017,-3.8921,-3.8851,-3.878,-3.8689,-3.8559,-3.8433,-3.8322,-3.8186,-3.8086,-3.7949,-3.7757,-3.7559,-3.7392,-3.7164,-3.7027,-3.6987,-3.6806,-3.6725,-3.6684,-3.6444,-3.6326,-3.6318,-3.6088,-3.5975,-3.5861,-3.5711,-3.5594,-3.5429,-3.5161,-3.4958,-3.4883,-3.4756,-3.4611,-3.4349,-3.4201,-3.405,-3.3848,-3.3487,-3.315,-3.2725,-3.148,-3.0234,-2.8966,-2.8075,-2.7454,-2.7068,-2.689,-2.6568,-2.6375,-2.6496,-2.6666,-2.655,-2.6589,-2.6728,-2.6404,-2.6082,-2.5853,-2.5572,-2.5501,-2.5303,-2.4785,-2.4518,-2.4322,-2.3981,-2.3711,-2.3356,-2.2685,-2.2043,-2.1804,-2.162,-2.1252,-2.091,-2.0637,-2.0555,-2.0257,-1.9968,-1.9624,-1.9443,-1.9296,-1.9142,-1.8786,-1.8592,-1.8498,-1.8309,-1.8096,-1.7867,-1.756,-1.7252,-1.6909,-1.6644,-1.6233,-1.5761,-1.5427,-1.5136,-1.4954,-1.4733,-1.4448,-1.4034,-1.3688,-1.324,-1.2798,-1.2571,-1.2147,-1.1663,-1.128,-3.975,-3.9693,-3.9669,-3.9596,-3.9495,-3.9469,-3.9399,-3.9301,-3.9229,-3.9129,-3.9045,-3.8979,-3.8881,-3.878,-3.8689,-3.8578,-3.8465,-3.835,-3.8201,-3.8068,-3.8018,-3.781,-3.754,-3.7317,-3.722,-3.7182,-3.7027,-3.6908,-3.6908,-3.6708,-3.6602,-3.6585,-3.636,-3.6216,-3.6148,-3.5941,-3.5722,-3.5594,-3.5487,-3.527,-3.5088,-3.4947,-3.4804,-3.4594,-3.4399,-3.4201,-3.405,-3.3761,-3.3346,-3.2834,-3.1789,-3.1006,-3.0479,-2.9191,-2.8233,-2.798,-2.7275,-2.6779,-2.6597,-2.6443,-2.627,-2.6105,-2.6119,-2.5809,-2.5493,-2.5422,-2.519,-2.4957,-2.4675,-2.4549,-2.4283,-2.3872,-2.343,-2.3131,-2.3296,-2.3254,-2.2717,-2.2446,-2.2172,-2.1757,-2.1446,-2.1204,-2.0903,-2.0621,-2.0338,-2.0134,-1.9838,-1.9489,-1.9328,-1.9131,-1.8774,-1.8718,-1.861,-1.8295,-1.8072,-1.7839,-1.7557,-1.729,-1.6886,-1.6459,-1.5944,-1.5354,-1.5095,-1.4764,-1.4656,-1.4479,-1.4125,-1.378,-1.3346,-1.3072,-1.2776,-1.25,-1.1879,-1.141,-1.1056,-3.98,-3.9727,-3.9703,-3.965,-3.9596,-3.959,-3.952,-3.9444,-3.9354,-3.9256,-3.9156,-3.9073,-3.8979,-3.8881,-3.881,-3.8701,-3.859,-3.8546,-3.8433,-3.8252,-3.8153,-3.7967,-3.7739,-3.7503,-3.741,-3.741,-3.722,-3.7143,-3.7105,-3.6908,-3.6829,-3.6806,-3.6585,-3.6419,-3.6259,-3.6156,-3.5985,-3.5783,-3.5667,-3.5487,-3.5304,-3.5135,-3.4963,-3.4787,-3.4594,-3.4448,-3.4151,-3.3949,-3.3607,-3.3008,-3.2279,-3.1716,-3.138,-2.9898,-2.8873,-2.8658,-2.7676,-2.7078,-2.6779,-2.6515,-2.6272,-2.6016,-2.5839,-2.5619,-2.5369,-2.5174,-2.5005,-2.4818,-2.4505,-2.4345,-2.4041,-2.3497,-2.3078,-2.296,-2.3055,-2.2958,-2.2503,-2.2116,-2.1886,-2.1565,-2.1296,-2.1037,-2.0823,-2.0482,-2.0207,-1.991,-1.964,-1.9383,-1.9184,-1.9033,-1.8789,-1.8643,-1.8419,-1.8037,-1.7722,-1.7505,-1.7243,-1.7013,-1.6633,-1.6221,-1.5851,-1.5211,-1.4964,-1.4747,-1.4521,-1.4272,-1.3903,-1.3669,-1.3491,-1.3147,-1.2816,-1.2324,-1.1745,-1.1184,-1.0818,-3.987,-3.9804,-3.9735,-3.9708,-3.9693,-3.9693,-3.9626,-3.9546,-3.9495,-3.938,-3.9256,-3.9175,-3.9092,-3.9007,-3.895,-3.887,-3.8738,-3.8719,-3.8627,-3.8433,-3.8252,-3.8104,-3.7951,-3.7757,-3.7631,-3.7594,-3.741,-3.7334,-3.7297,-3.7126,-3.7009,-3.6987,-3.6846,-3.6626,-3.6485,-3.6385,-3.6216,-3.6002,-3.5844,-3.565,-3.5532,-3.5412,-3.5182,-3.4994,-3.4883,-3.4594,-3.43,-3.4101,-3.3899,-3.3398,-3.2744,-3.2332,-3.1784,-3.0463,-2.948,-2.8946,-2.8207,-2.7372,-2.6989,-2.6832,-2.6621,-2.6272,-2.6056,-2.5893,-2.5674,-2.5453,-2.523,-2.5061,-2.4892,-2.4563,-2.4099,-2.3556,-2.3258,-2.3103,-2.291,-2.2641,-2.2247,-2.1737,-2.1285,-2.1221,-2.0948,-2.0593,-2.0313,-2.0107,-1.9955,-1.9899,-1.9578,-1.927,-1.9076,-1.8813,-1.8577,-1.8321,-1.7987,-1.7674,-1.7389,-1.7121,-1.6897,-1.6669,-1.6243,-1.5914,-1.57,-1.5288,-1.5011,-1.4728,-1.4334,-1.4099,-1.3935,-1.3684,-1.3436,-1.2999,-1.2479,-1.2054,-1.1623,-1.1088,-1.067,-3.9951,-3.9889,-3.9804,-3.9735,-3.9708,-3.9703,-3.9698,-3.9645,-3.9539,-3.9508,-3.9481,-3.9391,-3.9248,-3.9073,-3.9064,-3.8979,-3.8881,-3.8851,-3.8762,-3.8627,-3.8433,-3.8318,-3.8238,-3.8056,-3.79,-3.7793,-3.7631,-3.7558,-3.7484,-3.7334,-3.722,-3.722,-3.7027,-3.6908,-3.6811,-3.6667,-3.6502,-3.6276,-3.6174,-3.5915,-3.565,-3.5594,-3.5458,-3.5228,-3.4994,-3.4756,-3.448,-3.4382,-3.4234,-3.385,-3.3395,-3.2993,-3.2583,-3.1223,-3.0253,-2.9725,-2.8596,-2.7675,-2.7423,-2.7078,-2.6779,-2.6674,-2.6394,-2.6125,-2.5893,-2.5784,-2.5633,-2.5425,-2.5131,-2.4734,-2.4229,-2.3995,-2.3688,-2.339,-2.3138,-2.2969,-2.2726,-2.2309,-2.1788,-2.1463,-2.1221,-2.0967,-2.07,-2.0302,-2.0107,-1.9911,-1.9584,-1.9264,-1.8942,-1.8674,-1.8482,-1.8279,-1.7998,-1.7784,-1.751,-1.7176,-1.689,-1.6612,-1.6211,-1.5805,-1.5607,-1.5251,-1.4954,-1.4572,-1.4116,-1.3963,-1.3901,-1.3433,-1.3064,-1.2634,-1.225,-1.1935,-1.1538,-1.1029,-1.065,-4.0076,-3.9994,-3.9933,-3.9848,-3.98,-3.9758,-3.9731,-3.9684,-3.9618,-3.9588,-3.9527,-3.9483,-3.938,-3.9248,-3.9248,-3.9147,-3.9007,-3.8921,-3.8851,-3.8762,-3.8621,-3.8546,-3.8483,-3.8325,-3.8176,-3.7985,-3.781,-3.7739,-3.7667,-3.7558,-3.7447,-3.741,-3.7259,-3.7066,-3.7009,-3.6869,-3.6708,-3.6502,-3.636,-3.6174,-3.5958,-3.5827,-3.5667,-3.5458,-3.5182,-3.4947,-3.4691,-3.4691,-3.4562,-3.425,-3.3899,-3.3591,-3.3212,-3.1895,-3.092,-3.0421,-2.9035,-2.805,-2.7725,-2.7423,-2.713,-2.6989,-2.6712,-2.6433,-2.6165,-2.6042,-2.5839,-2.5688,-2.5411,-2.5018,-2.4563,-2.4171,-2.3936,-2.376,-2.3497,-2.3258,-2.2969,-2.2555,-2.2123,-2.1788,-2.1463,-2.1285,-2.0967,-2.0635,-2.0302,-2.0107,-1.9977,-1.9649,-1.9208,-1.8942,-1.8674,-1.8472,-1.8202,-1.793,-1.7657,-1.7314,-1.6959,-1.6682,-1.6342,-1.6,-1.5703,-1.532,-1.4832,-1.4521,-1.4183,-1.3958,-1.377,-1.3273,-1.29,-1.2668,-1.2398,-1.188,-1.1422,-1.1091,-1.0726,-4.0157,-4.0098,-4.0038,-3.9994,-3.9933,-3.987,-3.9823,-3.9735,-3.9735,-3.9665,-3.957,-3.9545,-3.9489,-3.9406,-3.9418,-3.9301,-3.9129,-3.8989,-3.8921,-3.8862,-3.8799,-3.8738,-3.8707,-3.8583,-3.8423,-3.8186,-3.8002,-3.7916,-3.7881,-3.7721,-3.7649,-3.7594,-3.7447,-3.7297,-3.7126,-3.7066,-3.6948,-3.6748,-3.6568,-3.6385,-3.6259,-3.6088,-3.5888,-3.5577,-3.5458,-3.5228,-3.4994,-3.493,-3.4738,-3.4414,-3.4186,-3.3824,-3.3187,-3.2233,-3.1065,-3.0854,-2.9257,-2.8458,-2.8073,-2.7825,-2.7524,-2.7269,-2.7026,-2.6765,-2.6539,-2.6258,-2.6111,-2.5907,-2.5688,-2.5355,-2.5005,-2.462,-2.4287,-2.4054,-2.3806,-2.3556,-2.3138,-2.2665,-2.2359,-2.2123,-2.1862,-2.1612,-2.1285,-2.0955,-2.0635,-2.0313,-2.0172,-1.9977,-1.9528,-1.9142,-1.8875,-1.8607,-1.8337,-1.7988,-1.7716,-1.7382,-1.7028,-1.6751,-1.6482,-1.614,-1.5859,-1.5505,-1.507,-1.4713,-1.4361,-1.4072,-1.3783,-1.3346,-1.3046,-1.2826,-1.2452,-1.1929,-1.1477,-1.118,-1.0887,-4.0196,-4.0176,-4.0117,-4.0077,-4.0076,-4.0057,-3.9973,-3.9889,-3.9867,-3.9819,-3.9764,-3.9717,-3.9588,-3.9514,-3.9476,-3.9354,-3.921,-3.9101,-3.9036,-3.8997,-3.8947,-3.8918,-3.884,-3.8738,-3.8645,-3.8515,-3.8303,-3.8119,-3.8036,-3.7933,-3.7846,-3.781,-3.7667,-3.7503,-3.7429,-3.7334,-3.7143,-3.6987,-3.6851,-3.6673,-3.6426,-3.6259,-3.6045,-3.5677,-3.5554,-3.534,-3.5161,-3.5068,-3.4712,-3.3991,-3.3785,-3.3237,-3.2593,-3.1823,-3.1182,-3.0402,-2.9438,-2.8653,-2.8381,-2.8073,-2.7825,-2.7575,-2.7386,-2.7093,-2.687,-2.6659,-2.6447,-2.6218,-2.5948,-2.5619,-2.5061,-2.4835,-2.4549,-2.4274,-2.4041,-2.3865,-2.3509,-2.315,-2.2726,-2.2371,-2.2123,-2.1937,-2.1612,-2.1285,-2.0955,-2.0635,-2.0377,-2.0118,-1.9726,-1.933,-1.9008,-1.8741,-1.8472,-1.8124,-1.7774,-1.7442,-1.7107,-1.6899,-1.6621,-1.6342,-1.5991,-1.5718,-1.5355,-1.4927,-1.4497,-1.4209,-1.3848,-1.3484,-1.3193,-1.29,-1.2452,-1.1929,-1.1558,-1.126,-1.0887,-4.0289,-4.0291,-4.0177,-4.0138,-4.0138,-4.0098,-4.0057,-4.0015,-4.0015,-3.9951,-3.9864,-3.9796,-3.9731,-3.9618,-3.9583,-3.9502,-3.9354,-3.9275,-3.9202,-3.9138,-3.9054,-3.8997,-3.8968,-3.887,-3.884,-3.8732,-3.859,-3.8364,-3.8252,-3.8156,-3.8088,-3.7967,-3.7863,-3.7739,-3.7631,-3.7503,-3.7354,-3.7203,-3.7048,-3.6891,-3.6632,-3.6468,-3.6174,-3.5916,-3.5453,-3.5108,-3.4846,-3.4404,-3.3969,-3.3456,-3.3226,-3.2694,-3.2085,-3.158,-3.1128,-3.0416,-2.9531,-2.8982,-2.8716,-2.8429,-2.8137,-2.7989,-2.7755,-2.7452,-2.7248,-2.7041,-2.6765,-2.6433,-2.6042,-2.5784,-2.5508,-2.523,-2.4892,-2.4607,-2.4376,-2.4099,-2.3865,-2.3628,-2.321,-2.2739,-2.2371,-2.2111,-2.1937,-2.1612,-2.1285,-2.0967,-2.0646,-2.0259,-1.9922,-1.9594,-1.9264,-1.8875,-1.8607,-1.8259,-1.792,-1.7588,-1.7314,-1.7038,-1.676,-1.6482,-1.6202,-1.5859,-1.5497,-1.5133,-1.4705,-1.4353,-1.3992,-1.363,-1.3339,-1.2973,-1.2526,-1.2077,-1.1706,-1.1335,-1.0962,-4.0413,-4.0379,-4.0289,-4.0233,-4.0215,-4.0177,-4.0138,-4.0118,-4.0118,-4.0057,-3.9954,-3.9911,-3.9845,-3.9754,-3.9703,-3.9626,-3.9502,-3.9451,-3.9354,-3.9256,-3.9202,-3.912,-3.9082,-3.8997,-3.8968,-3.8921,-3.8822,-3.8683,-3.8496,-3.8387,-3.8271,-3.8153,-3.8086,-3.7949,-3.781,-3.7721,-3.7577,-3.7429,-3.7241,-3.7087,-3.6891,-3.6632,-3.6281,-3.6101,-3.5341,-3.4831,-3.4398,-3.3905,-3.3372,-3.294,-3.2634,-3.221,-3.1553,-3.1248,-3.1013,-3.0542,-2.9713,-2.9323,-2.9029,-2.8811,-2.8525,-2.8396,-2.7989,-2.779,-2.7539,-2.7299,-2.6937,-2.6578,-2.6312,-2.6002,-2.5839,-2.5453,-2.516,-2.4878,-2.465,-2.4363,-2.4216,-2.3995,-2.376,-2.321,-2.2726,-2.2371,-2.2111,-2.1937,-2.1612,-2.1158,-2.0839,-2.0506,-2.0107,-1.9911,-1.9518,-1.9065,-1.8741,-1.8337,-1.8066,-1.7725,-1.752,-1.7245,-1.6899,-1.6621,-1.6342,-1.607,-1.5709,-1.5346,-1.4991,-1.4633,-1.4274,-1.3848,-1.3411,-1.3046,-1.2599,-1.2224,-1.1781,-1.1484,-1.1111,-4.0444,-4.0415,-4.0379,-4.0381,-4.0362,-4.0381,-4.0289,-4.0215,-4.0177,-4.0138,-4.0058,-3.9996,-3.9954,-3.9867,-3.9754,-3.9642,-3.9526,-3.9496,-3.9464,-3.938,-3.9354,-3.9328,-3.932,-3.9129,-3.9101,-3.9092,-3.8997,-3.884,-3.867,-3.8559,-3.8446,-3.835,-3.8219,-3.8068,-3.8018,-3.7898,-3.7775,-3.7631,-3.7558,-3.7337,-3.6995,-3.6741,-3.6232,-3.5584,-3.5117,-3.4644,-3.3949,-3.3468,-3.3015,-3.2459,-3.2219,-3.1725,-3.0975,-3.0701,-3.0558,-3.033,-2.9989,-2.9589,-2.9335,-2.9075,-2.8858,-2.8621,-2.8396,-2.8152,-2.784,-2.7539,-2.7196,-2.6832,-2.6674,-2.6447,-2.6111,-2.5825,-2.5508,-2.523,-2.4948,-2.4721,-2.4563,-2.4287,-2.4041,-2.3806,-2.3271,-2.2726,-2.2371,-2.2185,-2.1937,-2.1486,-2.1094,-2.07,-2.0366,-2.0107,-1.9715,-1.9198,-1.8942,-1.8607,-1.8269,-1.793,-1.7735,-1.7529,-1.7107,-1.676,-1.6482,-1.6211,-1.5921,-1.5568,-1.5275,-1.4848,-1.4346,-1.392,-1.3564,-1.32,-1.282,-1.2298,-1.1774,-1.1484,-1.126,-4.0583,-4.0523,-4.0476,-4.046,-4.0444,-4.0413,-4.0362,-4.0326,-4.0252,-4.0215,-4.0158,-4.0138,-4.0017,-3.9911,-3.9845,-3.9735,-3.9642,-3.9599,-3.957,-3.9489,-3.9464,-3.9432,-3.9373,-3.9301,-3.9275,-3.9248,-3.9193,-3.9092,-3.895,-3.8803,-3.8683,-3.8578,-3.8465,-3.8336,-3.8238,-3.8104,-3.7967,-3.7828,-3.765,-3.7235,-3.6635,-3.6285,-3.5819,-3.4917,-3.4418,-3.3883,-3.3416,-3.2767,-3.2354,-3.1879,-3.1681,-3.1443,-3.1036,-3.0831,-3.0667,-3.0443,-3.03,-2.9984,-2.9649,-2.9396,-2.9121,-2.8889,-2.8668,-2.8429,-2.8024,-2.774,-2.7488,-2.7284,-2.6989,-2.6674,-2.6394,-2.6111,-2.5839,-2.5564,-2.523,-2.5061,-2.4835,-2.4563,-2.4274,-2.4099,-2.3806,-2.3271,-2.2726,-2.2432,-2.2247,-2.1925,-2.1474,-2.1158,-2.07,-2.0302,-1.9846,-1.9264,-1.9075,-1.8808,-1.8539,-1.8202,-1.794,-1.7735,-1.7382,-1.7028,-1.6691,-1.6412,-1.6132,-1.5709,-1.5355,-1.4927,-1.4497,-1.4137,-1.3775,-1.3411,-1.2973,-1.2526,-1.2077,-1.1706,-1.1335,-4.0694,-4.0648,-4.0564,-4.0534,-4.0539,-4.0479,-4.043,-4.043,-4.036,-4.0307,-4.0252,-4.0196,-4.0099,-3.9996,-3.9954,-3.9889,-3.9754,-3.9735,-3.9665,-3.9599,-3.9551,-3.9539,-3.9508,-3.9458,-3.9406,-3.9425,-3.9373,-3.9275,-3.9175,-3.9036,-3.8892,-3.875,-3.8658,-3.8564,-3.8437,-3.8271,-3.8101,-3.7984,-3.7721,-3.713,-3.6397,-3.607,-3.5379,-3.4512,-3.3719,-3.3117,-3.2763,-3.2288,-3.1832,-3.1644,-3.1547,-3.1414,-3.123,-3.1072,-3.0912,-3.0692,-3.0551,-3.0342,-2.9984,-2.9677,-2.9441,-2.9229,-2.8951,-2.8684,-2.8332,-2.7974,-2.7725,-2.7675,-2.7335,-2.7093,-2.6832,-2.6447,-2.6165,-2.5879,-2.555,-2.5328,-2.5104,-2.4835,-2.4664,-2.4434,-2.4203,-2.3865,-2.333,-2.286,-2.2494,-2.2247,-2.1925,-2.1537,-2.1083,-2.0624,-2.0172,-1.9584,-1.9253,-1.9065,-1.8808,-1.8539,-1.8269,-1.794,-1.7588,-1.7235,-1.6899,-1.6621,-1.6342,-1.5991,-1.5568,-1.5213,-1.4848,-1.4418,-1.4057,-1.3557,-1.3193,-1.2826,-1.2378,-1.199,-1.1385,-4.0788,-4.0757,-4.0648,-4.0607,-4.0593,-4.0583,-4.0558,-4.0511,-4.0499,-4.0432,-4.0362,-4.0271,-4.0215,-4.0176,-4.0077,-4.0015,-3.9889,-3.9889,-3.9804,-3.9731,-3.9708,-3.9665,-3.9618,-3.9545,-3.9521,-3.9496,-3.9483,-3.9425,-3.9328,-3.9237,-3.9073,-3.8892,-3.881,-3.8738,-3.8596,-3.8401,-3.8234,-3.7995,-3.7611,-3.7041,-3.6399,-3.5972,-3.5297,-3.4094,-3.3583,-3.316,-3.2511,-3.2196,-3.1965,-3.1783,-3.1726,-3.1614,-3.1462,-3.1308,-3.1134,-3.0975,-3.0773,-3.0551,-3.0342,-3.0044,-2.983,-2.9672,-2.937,-2.8936,-2.8621,-2.8444,-2.825,-2.7974,-2.7625,-2.7423,-2.7181,-2.6922,-2.6539,-2.6272,-2.5934,-2.5715,-2.5495,-2.5216,-2.4991,-2.4821,-2.4549,-2.4216,-2.3878,-2.3403,-2.2909,-2.2604,-2.2185,-2.18,-2.1348,-2.088,-2.0495,-2.0042,-1.9573,-1.9309,-1.9065,-1.8808,-1.8539,-1.8212,-1.793,-1.752,-1.7116,-1.683,-1.6551,-1.6202,-1.5859,-1.5568,-1.518,-1.4617,-1.4173,-1.3745,-1.3331,-1.2945,-1.233,-1.1668,-1.1181,-4.0804,-4.0804,-4.0745,-4.0694,-4.0654,-4.0607,-4.0583,-4.0558,-4.0527,-4.0463,-4.0398,-4.0307,-4.0252,-4.0196,-4.0177,-4.0098,-4.0036,-4.0015,-3.9933,-3.9867,-3.9823,-3.9758,-3.9693,-3.9609,-3.9642,-3.958,-3.957,-3.9539,-3.9446,-3.9376,-3.9335,-3.9193,-3.8913,-3.881,-3.867,-3.8528,-3.8281,-3.7827,-3.7084,-3.6247,-3.5876,-3.5184,-3.4387,-3.3375,-3.3066,-3.279,-3.2441,-3.2336,-3.2161,-3.2001,-3.1929,-3.1819,-3.1688,-3.1521,-3.1385,-3.123,-3.0975,-3.0855,-3.0651,-3.03,-3.0033,-2.977,-2.9489,-2.9185,-2.8951,-2.8716,-2.8477,-2.8235,-2.8024,-2.7775,-2.7473,-2.7233,-2.6922,-2.6659,-2.6379,-2.615,-2.5879,-2.555,-2.5272,-2.5104,-2.4835,-2.4563,-2.4229,-2.3949,-2.345,-2.2957,-2.2482,-2.2061,-2.1663,-2.1273,-2.088,-2.0495,-2.0031,-1.9639,-1.9462,-1.9131,-1.8808,-1.8472,-1.8212,-1.7872,-1.7451,-1.7047,-1.67,-1.6421,-1.6044,-1.5649,-1.523,-1.4771,-1.4277,-1.3863,-1.3461,-1.3034,-1.2322,-1.1494,-1.0972,-4.0837,-4.0837,-4.0804,-4.0776,-4.0707,-4.0648,-4.0626,-4.0617,-4.0569,-4.0508,-4.043,-4.036,-4.0325,-4.0271,-4.0234,-4.0196,-4.0138,-4.0118,-4.0057,-3.9994,-3.9933,-3.9738,-3.952,-3.9362,-3.9286,-3.9377,-3.9373,-3.9265,-3.9551,-3.9526,-3.9471,-3.9305,-3.8979,-3.8729,-3.8833,-3.8585,-3.8287,-3.7598,-3.6638,-3.5566,-3.5199,-3.4601,-3.3841,-3.3126,-3.2841,-3.2743,-3.2592,-3.2507,-3.2371,-3.2214,-3.2108,-3.2001,-3.1893,-3.1746,-3.1559,-3.1423,-3.1269,-3.1173,-3.0952,-3.0568,-3.0189,-2.9886,-2.9665,-2.9457,-2.9275,-2.8982,-2.8748,-2.8621,-2.8365,-2.8073,-2.7825,-2.7625,-2.7386,-2.7115,-2.6855,-2.6578,-2.6272,-2.6002,-2.5674,-2.5397,-2.5118,-2.4791,-2.4563,-2.4229,-2.3603,-2.3173,-2.2896,-2.242,-2.1987,-2.1663,-2.1336,-2.0955,-2.056,-2.0172,-1.9791,-1.9507,-1.9166,-1.8865,-1.8607,-1.8269,-1.7862,-1.7354,-1.695,-1.6682,-1.6289,-1.5721,-1.5194,-1.4709,-1.4313,-1.3978,-1.3405,-1.2692,-1.2191,-1.1377,-1.0893,-4.0907,-4.0897,-4.0818,-4.0804,-4.0788,-4.0707,-4.07,-4.0687,-4.0607,-4.0564,-4.0508,-4.0479,-4.0449,-4.0379,-4.0326,-4.0271,-4.0215,-4.0196,-4.0138,-4.0098,-3.9849,-3.9524,-3.9121,-3.889,-3.8923,-3.8669,-3.8912,-3.9343,-3.9689,-3.9599,-3.9526,-3.9096,-3.8558,-3.8271,-3.8943,-3.8799,-3.8235,-3.729,-3.6253,-3.5326,-3.4847,-3.4366,-3.371,-3.3252,-3.2961,-3.2834,-3.2755,-3.269,-3.2557,-3.2405,-3.2371,-3.2267,-3.2126,-3.1946,-3.1819,-3.1763,-3.1466,-3.1274,-3.119,-3.0773,-3.0401,-3.0103,-2.993,-2.9738,-2.9637,-2.9366,-2.9121,-2.9029,-2.8748,-2.8525,-2.8332,-2.8122,-2.7825,-2.7575,-2.7269,-2.6959,-2.6645,-2.6394,-2.6071,-2.5784,-2.5342,-2.4948,-2.4791,-2.4434,-2.3813,-2.3399,-2.3185,-2.2811,-2.2262,-2.1844,-2.1463,-2.1202,-2.0739,-2.0493,-2.0171,-1.9922,-1.9607,-1.9233,-1.8818,-1.8364,-1.8022,-1.7658,-1.7233,-1.6927,-1.6333,-1.5665,-1.5154,-1.4589,-1.3982,-1.3332,-1.2741,-1.2093,-1.171,-1.1301,-1.0782,-4.0946,-4.0888,-4.0868,-4.0867,-4.0865,-4.0788,-4.0752,-4.0688,-4.0615,-4.0579,-4.0554,-4.0527,-4.0499,-4.0449,-4.0396,-4.0362,-4.0344,-4.0271,-4.0234,-4.0082,-3.9662,-3.9204,-3.8803,-3.8593,-3.8648,-3.8874,-3.9117,-3.9375,-3.9845,-3.9735,-3.9251,-3.8729,-3.789,-3.7455,-3.7753,-3.797,-3.8061,-3.6567,-3.533,-3.4477,-3.46,-3.4081,-3.3593,-3.3286,-3.3135,-3.3011,-3.2948,-3.2852,-3.2722,-3.2574,-3.2557,-3.2456,-3.2336,-3.2161,-3.209,-3.1929,-3.1637,-3.1504,-3.1312,-3.0998,-3.0773,-3.0485,-3.0231,-3.0087,-2.9902,-2.9694,-2.9515,-2.9335,-2.9121,-2.8858,-2.8605,-2.8381,-2.8137,-2.7875,-2.756,-2.7321,-2.7011,-2.6765,-2.6447,-2.615,-2.577,-2.5328,-2.5005,-2.4603,-2.401,-2.3457,-2.314,-2.2732,-2.2231,-2.1801,-2.1403,-2.1148,-2.0877,-2.0723,-2.0508,-2.0012,-1.9726,-1.9404,-1.8751,-1.813,-1.7839,-1.772,-1.7164,-1.6675,-1.6112,-1.562,-1.4854,-1.4088,-1.334,-1.2664,-1.2276,-1.1867,-1.1528,-1.1127,-1.0607,-4.0963,-4.0917,-4.0937,-4.0927,-4.0888,-4.0815,-4.0761,-4.0725,-4.0675,-4.064,-4.0631,-4.0569,-4.0539,-4.0527,-4.0479,-4.0447,-4.043,-4.0379,-3.9961,-3.9812,-3.9297,-3.8593,-3.8194,-3.8099,-3.8004,-3.8442,-3.8878,-3.9256,-3.9935,-3.9889,-3.9135,-3.8041,-3.7061,-3.6419,-3.6541,-3.6905,-3.7248,-3.5846,-3.4706,-3.4073,-3.4126,-3.3894,-3.3517,-3.3422,-3.3334,-3.3183,-3.3073,-3.3011,-3.2916,-3.277,-3.2705,-3.2657,-3.2541,-3.2457,-3.2354,-3.2108,-3.1875,-3.1728,-3.1504,-3.1389,-3.1117,-3.0814,-3.0568,-3.0359,-3.0146,-2.9957,-2.9782,-2.9605,-2.9396,-2.9167,-2.8889,-2.8668,-2.8477,-2.8204,-2.7974,-2.7725,-2.7372,-2.713,-2.6832,-2.6539,-2.6204,-2.5701,-2.5176,-2.4679,-2.4169,-2.3572,-2.3114,-2.2592,-2.2128,-2.1712,-2.1233,-2.0997,-2.076,-2.0528,-2.022,-1.9834,-1.9614,-1.9519,-1.8795,-1.8039,-1.7853,-1.7681,-1.7026,-1.6408,-1.5952,-1.5387,-1.4421,-1.3655,-1.3129,-1.2617,-1.2254,-1.1845,-1.1475,-1.0978,-1.0504,-4.0988,-4.0991,-4.0991,-4.0954,-4.0907,-4.0839,-4.0815,-4.08,-4.0725,-4.07,-4.07,-4.0621,-4.0593,-4.0593,-4.0534,-4.0504,-4.0508,-4.0447,-3.9915,-3.9342,-3.8944,-3.7993,-3.7175,-3.6833,-3.7219,-3.749,-3.7947,-3.8784,-3.9849,-3.948,-3.8577,-3.7395,-3.6305,-3.5615,-3.5525,-3.5824,-3.6043,-3.5114,-3.4492,-3.4007,-3.3945,-3.378,-3.3633,-3.3577,-3.3462,-3.3393,-3.3304,-3.3226,-3.3104,-3.2993,-3.2916,-3.2852,-3.2755,-3.2641,-3.2507,-3.2336,-3.2091,-3.1912,-3.1802,-3.1654,-3.1483,-3.1173,-3.0855,-3.0609,-3.0426,-3.0215,-3.0044,-2.993,-2.9754,-2.9486,-2.9229,-2.9045,-2.8905,-2.8653,-2.8381,-2.8073,-2.7725,-2.7437,-2.7196,-2.6922,-2.6539,-2.604,-2.5341,-2.4792,-2.415,-2.3352,-2.2747,-2.2159,-2.1716,-2.1524,-2.1063,-2.0746,-2.0459,-2.0251,-1.9924,-1.9698,-1.9452,-1.936,-1.8742,-1.8012,-1.7869,-1.7544,-1.688,-1.6282,-1.5856,-1.517,-1.4277,-1.3636,-1.3194,-1.2723,-1.2336,-1.1907,-1.146,-1.1051,-1.0618,-4.0984,-4.0988,-4.0988,-4.0999,-4.0954,-4.0898,-4.0858,-4.0796,-4.0781,-4.0745,-4.072,-4.0681,-4.0648,-4.0588,-4.0593,-4.0559,-4.0549,-4.0408,-3.9935,-3.9346,-3.8642,-3.7616,-3.6913,-3.6553,-3.6692,-3.7003,-3.7486,-3.8136,-3.8842,-3.8686,-3.775,-3.6515,-3.5656,-3.5009,-3.4886,-3.5027,-3.4904,-3.468,-3.4247,-3.4079,-3.3921,-3.3834,-3.378,-3.3698,-3.3587,-3.3567,-3.3462,-3.3393,-3.3256,-3.3214,-3.3104,-3.2993,-3.2916,-3.282,-3.2722,-3.2473,-3.2336,-3.2196,-3.209,-3.1856,-3.1726,-3.1576,-3.1274,-3.0982,-3.074,-3.0551,-3.0359,-3.0189,-3.006,-2.9798,-2.9576,-2.9396,-2.9213,-2.8982,-2.87,-2.8365,-2.8057,-2.7775,-2.7524,-2.7056,-2.6732,-2.6031,-2.5357,-2.4822,-2.4152,-2.3196,-2.24,-2.1798,-2.1342,-2.1166,-2.0865,-2.0508,-2.0268,-2.0001,-1.9873,-1.9611,-1.9412,-1.9163,-1.8489,-1.7966,-1.7702,-1.7315,-1.6742,-1.6168,-1.5671,-1.4967,-1.4107,-1.3649,-1.3338,-1.2858,-1.2468,-1.2011,-1.1498,-1.1122,-1.0688,-4.1013,-4.0991,-4.0991,-4.0976,-4.098,-4.0954,-4.0927,-4.0878,-4.0856,-4.0804,-4.073,-4.0738,-4.07,-4.0675,-4.0662,-4.0648,-4.064,-4.054,-4.0106,-3.9268,-3.8435,-3.7536,-3.6906,-3.6473,-3.6619,-3.6894,-3.7302,-3.7823,-3.8249,-3.7623,-3.6654,-3.6273,-3.5285,-3.4884,-3.4766,-3.4762,-3.4599,-3.4442,-3.4269,-3.4154,-3.4055,-3.3947,-3.3895,-3.386,-3.3753,-3.3689,-3.3605,-3.352,-3.3452,-3.3393,-3.3268,-3.3196,-3.3104,-3.3028,-3.2884,-3.269,-3.2608,-3.2439,-3.2301,-3.2161,-3.2018,-3.1873,-3.1671,-3.1445,-3.1173,-3.0952,-3.0692,-3.0426,-3.03,-3.013,-2.9913,-2.9738,-2.9515,-2.9259,-2.8967,-2.8685,-2.8398,-2.8122,-2.7659,-2.72,-2.6592,-2.5886,-2.5306,-2.481,-2.4146,-2.3192,-2.2424,-2.1799,-2.1305,-2.0965,-2.0603,-2.0207,-1.9978,-1.9799,-1.9696,-1.9495,-1.9157,-1.8771,-1.8204,-1.7754,-1.7571,-1.7158,-1.6591,-1.6024,-1.541,-1.4775,-1.4309,-1.3941,-1.358,-1.3164,-1.2683,-1.2251,-1.1809,-1.1373,-1.087,-4.1058,-4.0993,-4.1013,-4.0979,-4.0976,-4.098,-4.0991,-4.0982,-4.0937,-4.0877,-4.0818,-4.0807,-4.0784,-4.0769,-4.0725,-4.0713,-4.0688,-4.061,-4.0177,-3.9405,-3.8767,-3.7891,-3.7016,-3.6257,-3.6921,-3.7283,-3.7329,-3.7255,-3.7838,-3.7295,-3.6481,-3.6179,-3.5382,-3.4908,-3.483,-3.4733,-3.4632,-3.4583,-3.4427,-3.4293,-3.4197,-3.4099,-3.4023,-3.3998,-3.3895,-3.3807,-3.378,-3.3698,-3.3633,-3.3577,-3.352,-3.3404,-3.3304,-3.3183,-3.3042,-3.2884,-3.2787,-3.2674,-3.2507,-3.2371,-3.2249,-3.2072,-3.191,-3.178,-3.1555,-3.119,-3.0895,-3.0716,-3.0551,-3.0384,-3.0172,-3.0044,-2.987,-2.956,-2.9227,-2.8967,-2.8685,-2.8211,-2.7567,-2.7018,-2.6347,-2.5658,-2.4887,-2.4345,-2.3877,-2.3048,-2.2422,-2.1822,-2.1429,-2.105,-2.0614,-2.013,-1.9895,-1.9747,-1.9482,-1.9234,-1.8814,-1.8383,-1.7954,-1.769,-1.7533,-1.7094,-1.6555,-1.6066,-1.5536,-1.5118,-1.4656,-1.4291,-1.3872,-1.3459,-1.3033,-1.256,-1.2127,-1.1685,-1.1059,-4.11,-4.1064,-4.102,-4.0986,-4.0979,-4.0976,-4.0988,-4.0988,-4.0982,-4.0946,-4.0877,-4.0837,-4.0807,-4.0796,-4.0784,-4.0773,-4.0761,-4.0655,-4.0178,-3.9709,-3.9155,-3.8569,-3.7874,-3.7398,-3.7665,-3.7526,-3.7247,-3.6665,-3.6527,-3.6332,-3.6073,-3.5524,-3.5091,-3.5001,-3.4927,-3.4813,-3.4773,-3.4728,-3.4645,-3.4495,-3.4363,-3.4245,-3.4148,-3.4124,-3.4067,-3.3972,-3.3921,-3.3868,-3.3807,-3.3753,-3.3671,-3.3549,-3.3393,-3.3334,-3.3226,-3.3073,-3.2948,-3.287,-3.2722,-3.259,-3.2439,-3.2319,-3.2161,-3.2,-3.1726,-3.1385,-3.1095,-3.1015,-3.0855,-3.0651,-3.0426,-3.0342,-3.0172,-2.9853,-2.9483,-2.9227,-2.8935,-2.8155,-2.7376,-2.671,-2.6016,-2.5301,-2.452,-2.392,-2.3443,-2.2951,-2.2489,-2.1996,-2.1773,-2.1388,-2.1059,-2.0562,-2.0042,-1.9745,-1.95,-1.9198,-1.8893,-1.8518,-1.8205,-1.7865,-1.7534,-1.7088,-1.6705,-1.6249,-1.5836,-1.542,-1.501,-1.4597,-1.424,-1.3752,-1.3329,-1.2911,-1.2428,-1.1926,-1.124,-4.1115,-4.11,-4.1058,-4.1052,-4.1046,-4.1025,-4.0991,-4.0984,-4.0988,-4.0982,-4.0936,-4.0878,-4.0839,-4.0828,-4.0828,-4.0818,-4.0807,-4.0773,-4.0548,-4.0169,-3.9642,-3.9212,-3.8781,-3.8421,-3.8446,-3.8252,-3.7579,-3.6844,-3.5705,-3.5592,-3.5583,-3.5264,-3.516,-3.5089,-3.4982,-3.4944,-3.4889,-3.4849,-3.4829,-3.4728,-3.4561,-3.445,-3.4335,-3.4288,-3.4197,-3.4148,-3.408,-3.403,-3.3972,-3.3895,-3.3834,-3.3698,-3.3595,-3.3509,-3.3404,-3.3286,-3.3165,-3.3091,-3.2948,-3.2787,-3.2623,-3.2523,-3.2405,-3.2232,-3.2126,-3.1783,-3.1428,-3.1312,-3.1095,-3.0895,-3.0716,-3.0593,-3.0426,-3.0172,-2.9745,-2.9342,-2.8553,-2.764,-2.681,-2.597,-2.544,-2.4972,-2.4268,-2.3866,-2.3406,-2.3074,-2.2555,-2.231,-2.203,-2.1746,-2.141,-2.1006,-2.0497,-2.0003,-1.9695,-1.9396,-1.9093,-1.8774,-1.841,-1.792,-1.7545,-1.72,-1.6818,-1.6477,-1.6134,-1.572,-1.5362,-1.4951,-1.4488,-1.4001,-1.364,-1.3208,-1.2658,-1.2174,-1.1498,-4.1109,-4.1115,-4.11,-4.11,-4.1095,-4.1052,-4.102,-4.1013,-4.1011,-4.0984,-4.0988,-4.0935,-4.0898,-4.0908,-4.0898,-4.0858,-4.0828,-4.0828,-4.0759,-4.0574,-4.0109,-3.9863,-3.9511,-3.9081,-3.9025,-3.8711,-3.8136,-3.6876,-3.5559,-3.5566,-3.5492,-3.5346,-3.5261,-3.5174,-3.5122,-3.5032,-3.4943,-3.4945,-3.4927,-3.487,-3.4751,-3.4645,-3.4517,-3.445,-3.4381,-3.4335,-3.4293,-3.4203,-3.4148,-3.4049,-3.3947,-3.3834,-3.3726,-3.3661,-3.3577,-3.3462,-3.3393,-3.3274,-3.3104,-3.3011,-3.2884,-3.2787,-3.2623,-3.2489,-3.2405,-3.2179,-3.1839,-3.1617,-3.1406,-3.1173,-3.1015,-3.0838,-3.0675,-3.0285,-2.9848,-2.9323,-2.8255,-2.7209,-2.6318,-2.5438,-2.5019,-2.4602,-2.4187,-2.3771,-2.3451,-2.3127,-2.2859,-2.2618,-2.2356,-2.2077,-2.1746,-2.141,-2.1006,-2.051,-2.0055,-1.9656,-1.9356,-1.9052,-1.8679,-1.8084,-1.7545,-1.7323,-1.7043,-1.6772,-1.6363,-1.6009,-1.5604,-1.5196,-1.4784,-1.4309,-1.3821,-1.3398,-1.2911,-1.2367,-1.1872,-4.1104,-4.1109,-4.1115,-4.1111,-4.1111,-4.1086,-4.1075,-4.1064,-4.1007,-4.0993,-4.0999,-4.0984,-4.098,-4.0999,-4.098,-4.0943,-4.0917,-4.0898,-4.0878,-4.0761,-4.0567,-4.0527,-4.0389,-3.9951,-3.9433,-3.8825,-3.8106,-3.7102,-3.5779,-3.5501,-3.5479,-3.5465,-3.5335,-3.527,-3.5261,-3.519,-3.5122,-3.5089,-3.5056,-3.502,-3.4927,-3.481,-3.4687,-3.4583,-3.4517,-3.4495,-3.445,-3.4404,-3.4316,-3.4227,-3.4124,-3.3998,-3.3895,-3.3815,-3.3707,-3.3643,-3.3595,-3.3462,-3.3298,-3.3226,-3.3135,-3.3011,-3.2834,-3.2755,-3.2623,-3.2489,-3.2232,-3.202,-3.1802,-3.1445,-3.1291,-3.1134,-3.0958,-3.0236,-2.9681,-2.8968,-2.811,-2.6994,-2.5979,-2.5352,-2.4894,-2.4541,-2.4231,-2.3909,-2.3653,-2.3377,-2.3113,-2.2889,-2.2754,-2.2449,-2.2137,-2.1793,-2.1506,-2.1019,-2.051,-2.0003,-1.9656,-1.9356,-1.8999,-1.841,-1.792,-1.749,-1.7211,-1.6998,-1.6648,-1.6249,-1.5836,-1.543,-1.4961,-1.4547,-1.407,-1.3588,-1.3103,-1.2552,-1.2058]},{"header":{"parameterUnit":"m.s-1","parameterCategory":1,"la1":31.0,"la2":29.5877,"lo1":-88.7671,"lo2":-86.6584,"dy":0.0162,"dx":0.0185,"nx":115,"ny":88,"refTime":"2024-04-24T12:00:00:Z","depth":0,"parameterNumber":3,"parameterNumberName":"V-component_of_WINDS"},"data":[0.0,0.0,0.0,0.0,0.0,0.0,0.0,0.0,0.0,0.0,0.0,0.0,0.0,0.0,0.0,0.0,0.0,0.0,0.0,0.0,0.0,0.0,0.0,0.0,0.0,0.0,0.0,0.0,0.0,0.0,0.0,0.0,0.0,0.0,0.0,0.0,0.0,0.0,0.0,0.0,0.0,0.0,0.0,0.0,0.0,0.0,0.0,0.0,0.0,0.0,0.0,0.0,0.0,0.0,0.0,0.0,0.0,0.0,0.0,0.0,0.0,0.0,0.0,0.0,0.0,0.0,0.0,0.0,0.0,0.0,0.0,0.0,0.0,0.0,0.0,0.0,0.0,0.0,0.0,0.0,0.0,0.0,0.0,0.0,0.0,0.0,0.0,0.0,0.0,0.0,0.0,0.0,0.0,0.0,0.0,0.0,0.0,0.0,0.0,0.0,0.0,0.0,0.0,0.0,0.0,0.0,0.0,0.0,0.0,0.0,0.0,0.0,0.0,0.0,0.0,0.0,0.0,0.0,0.0,0.0,0.0,0.0,0.0,0.0,0.0,0.0,0.0,0.0,0.0,0.0,0.0,0.0,0.0,0.0,0.0,0.0,0.0,0.0,0.0,0.0,0.0,0.0,0.0,0.0,0.0,0.0,0.0,0.0,0.0,0.0,0.0,0.0,0.0,0.0,0.0,0.0,0.0,0.0,0.0,0.0,0.0,0.0,0.0,0.0,0.0,0.0,0.0,0.0,0.0,0.0,0.0,0.0,0.0,0.0,0.0,0.0,0.0,0.0,0.0,0.0,0.0,0.0,0.0,0.0,0.0,0.0,0.0,0.0,0.0,0.0,0.0,0.0,0.0,0.0,0.0,0.0,0.0,0.0,0.0,0.0,0.0,0.0,0.0,0.0,0.0,0.0,0.0,0.0,0.0,0.0,0.0,0.0,0.0,0.0,0.0,0.0,0.0,0.0,0.0,0.0,0.0,0.0,0.0,0.0,0.0,0.0,0.0,0.0,0.0,0.0,0.0,0.0,0.0,0.0,0.0,0.0,0.0,0.0,0.0,0.0,0.0,0.0,0.0,0.0,0.0,0.0,0.0,0.0,0.0,0.0,0.0,0.0,0.0,0.0,0.0,0.0,0.0,0.0,0.0,0.0,0.0,0.0,0.0,0.0,0.0,0.0,0.0,0.0,0.0,0.0,0.0,0.0,0.0,0.0,0.0,0.0,0.0,0.0,0.0,0.0,0.0,0.0,0.0,0.0,0.0,0.0,0.0,0.0,0.0,0.0,0.0,0.0,0.0,0.0,0.0,0.0,0.0,0.0,0.0,0.0,0.0,0.0,0.0,0.0,0.0,0.0,0.0,0.0,0.0,0.0,0.0,0.0,0.0,0.0,0.0,0.0,0.0,0.0,0.0,0.0,0.0,0.0,0.0,0.0,0.0,0.0,0.0,0.0,0.0,0.0,0.0,0.0,0.0,0.0,0.0,0.0,0.0,0.0,0.0,0.0,0.0,0.0,0.0,0.0,0.0,0.0,0.0,0.0,0.0,0.0,0.0,0.0,0.0,0.0,0.0,0.0,0.0,0.0,0.0,0.0,0.0,0.0,0.0,0.0,0.0,0.0,0.0,0.0,0.0,0.0,0.0,0.0,0.0,0.0,0.0,0.0,0.0,0.0,0.0,0.0,0.0,0.0,0.0,0.0,0.0,0.0,0.0,0.0,0.0,0.0,0.0,0.0,0.0,0.0,0.0,0.0,0.0,0.0,0.0,0.0,0.0,0.0,0.0,0.0,0.0,0.0,0.0,0.0,0.0,0.0,0.0,0.0,0.0,0.0,0.0,0.0,0.0,0.0,0.0,0.0,0.0,0.0,0.0,0.0,0.0,0.0,0.0,0.0,0.0,0.0,0.0,0.0,0.0,0.0,0.0,0.0,0.0,0.0,0.0,0.0,0.0,0.0,0.0,0.0,0.0,0.0,0.0,0.0,0.0,0.0,0.0,0.0,0.0,0.0,0.0,0.0,0.0,0.0,0.0,0.0,0.0,0.0,0.0,0.0,0.0,0.0,0.0,0.0,0.0,0.0,0.0,0.0,0.0,0.0,0.0,0.0,0.0,0.0,0.0,0.0,0.0,0.0,0.0,0.0,0.0,0.0,0.0,0.0,0.0,0.0,0.0,0.0,0.0,0.0,0.0,0.0,0.0,0.0,0.0,0.0,0.0,0.0,0.0,0.0,0.0,0.0,0.0,0.0,0.0,0.0,0.0,0.0,0.0,0.0,0.0,0.0,0.0,0.0,0.0,0.0,0.0,0.0,0.0,0.0,0.0,0.0,0.0,0.0,0.0,0.0,0.0,0.0,0.0,0.0,0.0,0.0,0.0,0.0,0.0,0.0,0.0,0.0,0.0,0.0,0.0,0.0,0.0,0.0,0.0,0.0,0.0,0.0,0.0,0.0,0.0,0.0,0.0,0.0,0.0,0.0,0.0,0.0,0.0,0.0,0.0,0.0,0.0,0.0,0.0,0.0,0.0,0.0,0.0,0.0,0.0,0.0,0.0,0.0,0.0,0.0,0.0,0.0,0.0,0.0,0.0,0.0,0.0,0.0,0.0,0.0,0.0,0.0,0.0,0.0,0.0,0.0,0.0,0.0,0.0,0.0,0.0,0.0,0.0,0.0,0.0,0.0,0.0,0.0,0.0,0.0,0.0,0.0,0.0,0.0,0.0,0.0,0.0,0.0,0.0,0.0,0.0,0.0,0.0,0.0,0.0,0.0,0.0,0.0,0.0,0.0,0.0,0.0,0.0,0.0,0.0,0.0,0.0,0.0,0.0,0.0,0.0,0.0,0.0,0.0,0.0,0.0,0.0,0.0,0.0,0.0,0.0,0.0,0.0,0.0,0.0,0.0,0.0,0.0,0.0,0.0,0.0,0.0,0.0,0.0,0.0,0.0,0.0,0.0,0.0,0.0,0.0,0.0,0.0,0.0,0.0,0.0,0.0,0.0,0.0,0.0,0.0,0.0,0.0,0.0,0.0,0.0,0.0,0.0,0.0,0.0,0.0,0.0,0.0,0.0,0.0,0.0,0.0,0.0,0.0,0.0,0.0,0.0,0.0,0.0,0.0,0.0,0.0,0.0,0.0,0.0,0.0,0.0,0.0,0.0,0.0,0.0,0.0,0.0,0.0,0.0,0.0,0.0,0.0,0.0,0.0,0.0,0.0,0.0,0.0,0.0,0.0,0.0,0.0,0.0,0.0,0.0,0.0,0.0,0.0,0.0,0.0,0.0,0.0,0.0,0.0,0.0,0.0,0.0,0.0,0.0,0.0,0.0,0.0,0.0,0.0,0.0,0.0,0.0,0.0,0.0,0.0,0.0,0.0,0.0,0.0,0.0,0.0,0.0,0.0,0.0,0.0,0.0,0.0,0.0,0.0,0.0,0.0,0.0,0.0,0.0,0.0,0.0,0.0,0.0,0.0,0.0,0.0,0.0,0.0,0.0,0.0,0.0,0.0,0.0,0.0,0.0,0.0,0.0,0.0,0.0,0.0,0.0,0.0,0.0,0.0,0.0,0.0,0.0,0.0,0.0,0.0,0.0,0.0,0.0,0.0,0.0,0.0,0.0,0.0,0.0,0.0,0.0,0.0,0.0,0.0,0.0,0.0,0.0,0.0,0.0,0.0,0.0,0.0,0.0,0.0,0.0,0.0,0.0,0.0,0.0,0.0,0.0,0.0,0.0,0.0,0.0,0.0,0.0,0.0,0.0,0.0,0.0,0.0,0.0,0.0,0.0,0.0,0.0,0.0,0.0,0.0,0.0,0.0,0.0,0.0,0.0,0.0,0.0,0.0,0.0,0.0,0.0,0.0,0.0,0.0,0.0,0.0,0.0,0.0,0.0,0.0,0.0,0.0,0.0,0.0,0.0,0.0,0.0,0.0,0.0,0.0,0.0,0.0,0.0,0.0,0.0,0.0,0.0,0.0,0.0,0.0,0.0,0.0,0.0,0.0,0.0,0.0,0.0,0.0,0.0,0.0,0.0,0.0,0.0,0.0,0.0,0.0,0.0,0.0,0.0,0.0,0.0,0.0,0.0,0.0,0.0,0.0,0.0,0.0,0.0,0.0,0.0,0.0,0.0,0.0,0.0,0.0,0.0,0.0,0.0,0.0,0.0,0.0,0.0,0.0,0.0,0.0,0.0,0.0,0.0,0.0,0.0,0.0,0.0,0.0,0.0,0.0,0.0,0.0,0.0,0.0,0.0,0.0,0.0,0.0,0.0,-0.6904,0.0,0.0,0.0,0.0,0.0,0.0,0.0,0.0,0.0,0.0,0.0,0.0,0.0,0.0,0.0,0.0,0.0,0.0,0.0,0.0,0.0,0.0,0.0,0.0,0.0,0.0,0.0,0.0,0.0,0.0,0.0,0.0,0.0,0.0,0.0,0.0,0.0,0.0,0.0,0.0,0.0,0.0,0.0,0.0,0.0,0.0,0.0,0.0,0.0,0.0,0.0,0.0,0.0,0.0,0.0,0.0,0.0,0.0,0.0,0.0,0.0,0.0,0.0,0.0,0.0,0.0,0.0,0.0,0.0,0.0,0.0,0.0,0.0,0.0,0.0,0.0,0.0,0.0,0.0,0.0,0.0,0.0,0.0,0.0,0.0,0.0,0.0,0.0,0.0,0.0,0.0,0.0,0.0,0.0,0.0,0.0,0.0,0.0,0.0,0.0,0.0,0.0,0.0,0.0,0.0,0.0,0.0,0.0,0.0,0.0,-0.7155,-0.7058,-0.7026,-0.7203,-0.7611,0.0,0.0,0.0,0.0,0.0,0.0,0.0,0.0,0.0,0.0,0.0,0.0,0.0,0.0,0.0,0.0,0.0,0.0,0.0,0.0,0.0,0.0,0.0,0.0,0.0,0.0,0.0,0.0,0.0,0.0,0.0,0.0,0.0,0.0,0.0,0.0,0.0,0.0,0.0,0.0,0.0,0.0,0.0,0.0,0.0,0.0,0.0,0.0,0.0,0.0,0.0,0.0,0.0,0.0,0.0,0.0,0.0,0.0,0.0,0.0,0.0,0.0,0.0,0.0,0.0,0.0,0.0,0.0,0.0,0.0,0.0,0.0,0.0,0.0,0.0,0.0,0.0,0.0,0.0,0.0,0.0,0.0,0.0,0.0,0.0,0.0,0.0,0.0,0.0,0.0,0.0,0.0,0.0,0.0,0.0,0.0,0.0,0.0,0.0,0.0,0.0,0.0,0.0,0.0,0.0,0.0,0.0,0.0,0.0,0.0,0.0,0.0,-0.739,-0.7834,-0.8751,0.0,0.0,0.0,0.0,0.0,0.0,0.0,0.0,0.0,0.0,0.0,0.0,0.0,0.0,0.0,0.0,0.0,0.0,0.0,0.0,0.0,0.0,0.0,0.0,0.0,0.0,0.0,0.0,0.0,0.0,0.0,0.0,0.0,0.0,0.0,0.0,0.0,0.0,0.0,0.0,0.0,0.0,0.0,0.0,0.0,0.0,0.0,0.0,0.0,0.0,0.0,0.0,0.0,0.0,0.0,0.0,0.0,0.0,0.0,0.0,0.0,0.0,0.0,0.0,0.0,0.0,0.0,0.0,0.0,0.0,0.0,0.0,0.0,0.0,0.0,0.0,0.0,0.0,0.0,0.0,0.0,0.0,0.0,0.0,0.0,0.0,0.0,0.0,0.0,0.0,0.0,0.0,0.0,0.0,0.0,0.0,0.0,0.0,0.0,0.0,0.0,0.0,0.0,0.0,0.0,0.0,0.0,0.0,0.0,0.0,-0.7557,-0.8087,-0.8216,0.0,-1.0377,0.0,0.0,0.0,0.0,0.0,0.0,0.0,0.0,0.0,0.0,0.0,0.0,0.0,0.0,0.0,0.0,0.0,0.0,0.0,0.0,0.0,0.0,0.0,0.0,0.0,0.0,0.0,0.0,0.0,0.0,0.0,0.0,0.0,0.0,0.0,0.0,0.0,0.0,0.0,0.0,0.0,0.0,0.0,0.0,0.0,0.0,0.0,0.0,0.0,0.0,0.0,0.0,0.0,0.0,0.0,0.0,0.0,0.0,0.0,0.0,0.0,0.0,0.0,0.0,0.0,0.0,0.0,0.0,0.0,0.0,0.0,0.0,0.0,0.0,0.0,0.0,0.0,0.0,0.0,0.0,0.0,0.0,0.0,0.0,0.0,0.0,0.0,0.0,0.0,0.0,0.0,0.0,0.0,0.0,0.0,0.0,0.0,0.0,0.0,0.0,0.0,0.0,0.0,0.0,0.0,0.0,0.0,0.0,0.0,0.0,-0.7945,-0.83,-0.8846,-0.9483,0.0,0.0,0.0,0.0,0.0,0.0,0.0,0.0,0.0,0.0,0.0,0.0,0.0,0.0,0.0,0.0,0.0,0.0,0.0,0.0,0.0,0.0,0.0,0.0,0.0,0.0,0.0,0.0,0.0,0.0,0.0,0.0,0.0,0.0,0.0,0.0,0.0,0.0,0.0,0.0,0.0,0.0,0.0,0.0,0.0,0.0,0.0,0.0,0.0,0.0,0.0,0.0,0.0,0.0,0.0,0.0,0.0,0.0,0.0,0.0,0.0,0.0,0.0,0.0,0.0,0.0,0.0,0.0,0.0,0.0,0.0,0.0,0.0,0.0,0.0,0.0,0.0,0.0,0.0,0.0,0.0,0.0,0.0,0.0,0.0,0.0,0.0,0.0,0.0,0.0,0.0,0.0,0.0,0.0,0.0,0.0,0.0,0.0,0.0,0.0,0.0,0.0,0.0,0.0,0.0,0.0,0.0,0.0,0.0,0.0,-0.7858,-0.8436,-0.9021,-0.964,-1.0084,-1.032,0.0,0.0,0.0,0.0,0.0,0.0,0.0,0.0,0.0,0.0,0.0,0.0,0.0,0.0,0.0,0.0,0.0,0.0,0.0,0.0,0.0,0.0,0.0,0.0,0.0,0.0,0.0,0.0,0.0,0.0,0.0,0.0,0.0,0.0,0.0,0.0,0.0,0.0,0.0,0.0,0.0,0.0,0.0,0.0,0.0,0.0,0.0,0.0,0.0,0.0,0.0,0.0,0.0,0.0,0.0,0.0,0.0,0.0,0.0,0.0,0.0,0.0,0.0,0.0,0.0,0.0,0.0,0.0,0.0,0.0,0.0,0.0,0.0,0.0,0.0,0.0,0.0,0.0,0.0,0.0,0.0,0.0,0.0,0.0,0.0,0.0,0.0,0.0,0.0,0.0,0.0,0.0,0.0,0.0,0.0,0.0,0.0,0.0,0.0,0.0,0.0,0.0,0.0,0.0,0.0,0.0,0.0,0.0,-0.732,-0.7982,-0.9056,-1.0515,-1.0747,-1.0917,0.0,0.0,0.0,0.0,0.0,0.0,0.0,0.0,0.0,0.0,0.0,0.0,0.0,0.0,0.0,0.0,0.0,0.0,0.0,0.0,0.0,0.0,0.0,0.0,0.0,0.0,0.0,0.0,0.0,0.0,0.0,0.0,0.0,0.0,0.0,0.0,0.0,0.0,0.0,0.0,0.0,0.0,0.0,0.0,0.0,0.0,0.0,0.0,0.0,0.0,0.0,0.0,0.0,0.0,0.0,0.0,0.0,0.0,0.0,0.0,0.0,0.0,0.0,0.0,0.0,0.0,0.0,0.0,0.0,0.0,0.0,0.0,0.0,0.0,0.0,0.0,0.0,0.0,0.0,0.0,0.0,0.0,0.0,0.0,0.0,0.0,0.0,0.0,0.0,0.0,0.0,0.0,0.0,0.0,0.0,0.0,0.0,0.0,0.0,0.0,0.0,0.0,0.0,0.0,0.0,0.0,0.0,0.0,0.0,-0.7986,-0.9038,-1.0184,-1.1266,-1.1102,-1.0853,0.0,0.0,0.0,0.0,0.0,0.0,0.0,0.0,0.0,0.0,0.0,0.0,0.0,0.0,0.0,0.0,0.0,0.0,0.0,0.0,0.0,0.0,0.0,0.0,0.0,0.0,0.0,0.0,0.0,0.0,0.0,0.0,0.0,0.0,0.0,0.0,0.0,0.0,0.0,0.0,0.0,0.0,0.0,0.0,0.0,0.0,0.0,0.0,0.0,0.0,0.0,0.0,0.0,0.0,0.0,0.0,0.0,0.0,0.0,0.0,0.0,0.0,0.0,0.0,0.0,0.0,0.0,0.0,0.0,0.0,0.0,0.0,0.0,0.0,0.0,0.0,0.0,0.0,0.0,0.0,0.0,0.0,0.0,0.0,0.0,0.0,0.0,0.0,0.0,0.0,0.0,0.0,0.0,0.0,0.0,0.0,0.0,0.0,0.0,0.0,0.0,0.0,0.0,0.0,0.0,0.0,0.0,0.0,0.0,-0.8968,0.0,-1.089,-1.1687,-1.1298,-1.0786,0.0,0.0,0.0,0.0,0.0,0.0,0.0,0.0,0.0,0.0,0.0,0.0,0.0,0.0,0.0,0.0,0.0,0.0,0.0,0.0,0.0,0.0,0.0,0.0,0.0,0.0,0.0,0.0,0.0,0.0,0.0,0.0,0.0,0.0,0.0,0.0,0.0,0.0,0.0,0.0,0.0,0.0,0.0,0.0,0.0,0.0,0.0,0.0,0.0,0.0,0.0,0.0,0.0,0.0,0.0,0.0,0.0,0.0,0.0,0.0,0.0,0.0,0.0,0.0,0.0,0.0,0.0,0.0,0.0,0.0,0.0,0.0,0.0,0.0,0.0,0.0,0.0,0.0,0.0,0.0,0.0,0.0,0.0,0.0,0.0,0.0,0.0,0.0,0.0,0.0,0.0,0.0,0.0,0.0,0.0,0.0,0.0,0.0,0.0,0.0,0.0,0.0,0.0,0.0,0.0,0.0,0.0,0.0,-0.902,-1.0312,-1.0529,-1.1038,-1.1846,-1.1398,-1.0854,0.0,0.0,0.0,0.0,0.0,0.0,0.0,0.0,0.0,0.0,0.0,0.0,0.0,0.0,0.0,0.0,0.0,0.0,0.0,0.0,0.0,0.0,0.0,0.0,0.0,0.0,0.0,0.0,0.0,0.0,0.0,0.0,0.0,0.0,0.0,0.0,0.0,0.0,0.0,0.0,0.0,0.0,0.0,0.0,0.0,0.0,0.0,0.0,0.0,0.0,0.0,0.0,0.0,0.0,0.0,0.0,0.0,0.0,0.0,0.0,0.0,0.0,0.0,0.0,0.0,0.0,0.0,0.0,0.0,0.0,0.0,0.0,0.0,0.0,0.0,0.0,0.0,0.0,0.0,0.0,0.0,0.0,0.0,0.0,0.0,0.0,0.0,0.0,0.0,0.0,0.0,0.0,0.0,0.0,0.0,0.0,0.0,0.0,0.0,0.0,0.0,0.0,0.0,0.0,0.0,0.0,0.0,0.0,0.0,-1.0473,-1.1,-1.1495,-1.1891,-1.1877,-1.1567,0.0,0.0,0.0,0.0,0.0,0.0,0.0,0.0,0.0,0.0,0.0,0.0,0.0,0.0,0.0,0.0,0.0,0.0,0.0,0.0,0.0,0.0,0.0,0.0,0.0,0.0,0.0,0.0,0.0,0.0,0.0,0.0,0.0,0.0,0.0,0.0,0.0,0.0,0.0,0.0,0.0,0.0,0.0,0.0,0.0,0.0,0.0,0.0,0.0,0.0,0.0,0.0,0.0,0.0,0.0,0.0,0.0,0.0,0.0,0.0,0.0,0.0,0.0,0.0,0.0,0.0,0.0,0.0,0.0,0.0,0.0,0.0,0.0,0.0,0.0,0.0,0.0,0.0,0.0,0.0,0.0,0.0,0.0,0.0,0.0,0.0,0.0,0.0,0.0,0.0,0.0,0.0,0.0,0.0,0.0,0.0,0.0,0.0,0.0,0.0,0.0,0.0,0.0,0.0,0.0,0.0,0.0,0.0,0.0,-1.2156,-1.231,-1.2469,-1.269,-1.258,-1.2283,-1.1699,0.0,0.0,0.0,0.0,0.0,0.0,0.0,0.0,0.0,0.0,0.0,0.0,0.0,0.0,0.0,0.0,0.0,0.0,0.0,0.0,0.0,0.0,0.0,0.0,0.0,0.0,0.0,0.0,0.0,0.0,0.0,0.0,0.0,0.0,0.0,0.0,0.0,0.0,0.0,0.0,0.0,0.0,0.0,0.0,0.0,0.0,0.0,0.0,0.0,0.0,0.0,0.0,0.0,0.0,0.0,0.0,0.0,0.0,0.0,0.0,0.0,0.0,0.0,0.0,0.0,0.0,0.0,0.0,0.0,0.0,0.0,0.0,0.0,0.0,0.0,0.0,0.0,0.0,0.0,0.0,0.0,0.0,0.0,0.0,0.0,0.0,0.0,0.0,0.0,0.0,0.0,0.0,0.0,0.0,0.0,0.0,0.0,0.0,0.0,0.0,0.0,0.0,0.0,0.0,0.0,0.0,0.0,0.0,-1.4943,-1.4288,-1.3959,-1.401,-1.3497,-1.2972,0.0,0.0,0.0,0.0,0.0,0.0,0.0,0.0,0.0,0.0,0.0,0.0,0.0,0.0,0.0,0.0,0.0,0.0,0.0,0.0,0.0,0.0,0.0,0.0,0.0,0.0,0.0,0.0,0.0,0.0,0.0,0.0,0.0,0.0,0.0,0.0,0.0,0.0,0.0,0.0,0.0,0.0,0.0,0.0,0.0,0.0,0.0,0.0,0.0,0.0,0.0,0.0,0.0,0.0,0.0,0.0,0.0,0.0,0.0,0.0,0.0,0.0,0.0,0.0,0.0,0.0,0.0,0.0,0.0,0.0,0.0,0.0,0.0,0.0,0.0,0.0,0.0,0.0,0.0,0.0,0.0,0.0,0.0,0.0,0.0,0.0,0.0,0.0,0.0,0.0,0.0,0.0,0.0,0.0,0.0,0.0,0.0,0.0,0.0,0.0,0.0,0.0,0.0,0.0,0.0,0.0,0.0,0.0,0.0,-1.5695,-1.6397,-1.614,-1.4862,-1.4709,-1.4122,0.0,0.0,0.0,0.0,0.0,0.0,0.0,0.0,0.0,0.0,0.0,0.0,0.0,0.0,0.0,0.0,0.0,0.0,0.0,0.0,0.0,0.0,0.0,0.0,0.0,0.0,0.0,0.0,0.0,0.0,0.0,0.0,0.0,0.0,0.0,0.0,0.0,0.0,0.0,0.0,0.0,0.0,0.0,0.0,0.0,0.0,0.0,0.0,0.0,0.0,0.0,0.0,0.0,0.0,0.0,0.0,0.0,0.0,0.0,0.0,0.0,0.0,0.0,0.0,0.0,0.0,0.0,0.0,0.0,0.0,0.0,0.0,0.0,0.0,0.0,0.0,0.0,0.0,0.0,0.0,0.0,0.0,0.0,0.0,0.0,0.0,0.0,0.0,0.0,0.0,0.0,0.0,0.0,0.0,0.0,0.0,0.0,0.0,0.0,0.0,0.0,0.0,0.0,0.0,0.0,0.0,0.0,0.0,-1.5906,-1.7364,-1.829,-1.8322,-1.7317,-1.6139,-1.5129,0.0,0.0,0.0,0.0,0.0,0.0,0.0,0.0,0.0,0.0,0.0,0.0,0.0,0.0,0.0,0.0,0.0,0.0,0.0,0.0,0.0,0.0,0.0,0.0,0.0,0.0,0.0,0.0,0.0,0.0,0.0,0.0,0.0,0.0,0.0,0.0,0.0,0.0,0.0,0.0,0.0,0.0,0.0,0.0,0.0,0.0,0.0,0.0,0.0,0.0,0.0,0.0,0.0,0.0,0.0,0.0,0.0,0.0,0.0,0.0,0.0,0.0,0.0,0.0,0.0,0.0,0.0,0.0,0.0,0.0,0.0,0.0,0.0,0.0,0.0,0.0,0.0,0.0,0.0,0.0,0.0,0.0,0.0,0.0,0.0,0.0,0.0,0.0,0.0,0.0,0.0,0.0,0.0,0.0,0.0,0.0,0.0,0.0,0.0,0.0,0.0,0.0,0.0,0.0,0.0,0.0,0.0,0.0,-1.6769,-1.9225,-1.9836,-2.0203,-2.03,-1.7746,-1.6062,0.0,0.0,0.0,0.0,0.0,0.0,0.0,0.0,0.0,0.0,0.0,0.0,0.0,0.0,0.0,0.0,0.0,0.0,0.0,0.0,0.0,0.0,0.0,0.0,0.0,0.0,0.0,0.0,0.0,0.0,0.0,0.0,0.0,0.0,0.0,0.0,0.0,0.0,0.0,0.0,0.0,0.0,0.0,0.0,0.0,0.0,0.0,0.0,0.0,0.0,0.0,0.0,0.0,0.0,0.0,0.0,0.0,0.0,0.0,0.0,0.0,0.0,0.0,0.0,0.0,0.0,0.0,0.0,0.0,0.0,0.0,0.0,0.0,0.0,0.0,0.0,0.0,0.0,0.0,0.0,0.0,0.0,0.0,0.0,0.0,0.0,0.0,0.0,0.0,0.0,0.0,0.0,0.0,0.0,0.0,0.0,0.0,0.0,0.0,0.0,0.0,0.0,0.0,0.0,0.0,0.0,0.0,0.0,-1.7711,-1.9256,-2.0264,-2.0904,-2.109,-1.9385,-1.7746,0.0,0.0,0.0,0.0,0.0,0.0,0.0,0.0,0.0,0.0,0.0,0.0,0.0,0.0,0.0,0.0,0.0,0.0,0.0,0.0,0.0,0.0,0.0,0.0,0.0,0.0,0.0,0.0,0.0,0.0,0.0,0.0,0.0,0.0,0.0,0.0,0.0,0.0,0.0,0.0,0.0,0.0,0.0,0.0,0.0,0.0,0.0,0.0,-1.2778,0.0,0.0,0.0,0.0,0.0,0.0,0.0,0.0,0.0,0.0,0.0,0.0,0.0,0.0,0.0,0.0,0.0,0.0,0.0,0.0,0.0,0.0,0.0,0.0,0.0,0.0,0.0,0.0,0.0,0.0,0.0,0.0,0.0,0.0,0.0,0.0,0.0,0.0,0.0,0.0,0.0,0.0,0.0,0.0,0.0,0.0,0.0,0.0,0.0,0.0,0.0,0.0,0.0,0.0,0.0,0.0,0.0,0.0,0.0,-1.8625,-2.0143,-2.131,-2.1843,-2.1658,-2.0569,-1.8987,0.0,0.0,0.0,0.0,0.0,0.0,0.0,0.0,0.0,0.0,0.0,0.0,0.0,0.0,0.0,0.0,0.0,0.0,0.0,0.0,0.0,0.0,0.0,0.0,0.0,0.0,0.0,0.0,0.0,0.0,0.0,0.0,0.0,0.0,0.0,0.0,0.0,0.0,0.0,0.0,0.0,0.0,0.0,0.0,0.0,0.0,0.0,0.0,0.0,0.0,0.0,0.0,0.0,0.0,0.0,0.0,0.0,0.0,0.0,0.0,0.0,0.0,0.0,0.0,0.0,0.0,0.0,0.0,0.0,0.0,0.0,0.0,0.0,0.0,0.0,0.0,0.0,0.0,0.0,0.0,0.0,0.0,0.0,0.0,0.0,0.0,0.0,0.0,0.0,0.0,0.0,0.0,0.0,0.0,0.0,0.0,0.0,0.0,0.0,0.0,0.0,0.0,0.0,0.0,0.0,0.0,0.0,-1.7488,-1.9348,-2.1063,-2.2321,-2.2702,-2.2095,-2.144,-1.9958,-1.7616,0.0,0.0,0.0,0.0,0.0,0.0,0.0,0.0,0.0,0.0,0.0,0.0,0.0,0.0,0.0,0.0,0.0,0.0,0.0,0.0,0.0,0.0,0.0,0.0,0.0,0.0,0.0,0.0,0.0,0.0,0.0,0.0,0.0,0.0,0.0,0.0,0.0,0.0,-1.1961,-1.3316,0.0,0.0,0.0,0.0,0.0,0.0,0.0,0.0,-1.5776,0.0,0.0,0.0,0.0,0.0,0.0,0.0,0.0,0.0,0.0,0.0,0.0,0.0,0.0,0.0,0.0,0.0,0.0,0.0,0.0,0.0,0.0,0.0,0.0,0.0,0.0,0.0,0.0,0.0,0.0,0.0,0.0,0.0,0.0,0.0,0.0,0.0,0.0,0.0,0.0,0.0,0.0,0.0,0.0,0.0,0.0,0.0,0.0,0.0,0.0,0.0,0.0,0.0,0.0,0.0,0.0,-1.5405,-1.7806,-1.9725,-2.1094,-2.2243,-2.2566,-2.2048,-2.1888,-2.0639,-1.8177,0.0,0.0,0.0,0.0,0.0,0.0,0.0,0.0,0.0,0.0,0.0,0.0,0.0,0.0,0.0,0.0,0.0,0.0,0.0,0.0,0.0,0.0,0.0,0.0,0.0,0.0,0.0,0.0,0.0,0.0,0.0,0.0,0.0,0.0,0.0,0.0,0.0,0.0,0.0,-1.4548,-1.5219,0.0,0.0,0.0,0.0,0.0,0.0,0.0,0.0,-1.7128,0.0,0.0,0.0,0.0,0.0,0.0,0.0,0.0,0.0,0.0,0.0,0.0,0.0,0.0,0.0,0.0,0.0,0.0,0.0,0.0,0.0,0.0,0.0,0.0,0.0,0.0,0.0,0.0,0.0,0.0,0.0,0.0,0.0,0.0,0.0,0.0,0.0,0.0,0.0,0.0,0.0,0.0,0.0,0.0,0.0,0.0,0.0,0.0,0.0,0.0,0.0,0.0,0.0,0.0,0.0,-1.6406,-1.8904,-2.0808,-2.1963,-2.2858,-2.3039,-2.243,-2.1788,-2.0441,0.0,0.0,0.0,0.0,0.0,0.0,0.0,0.0,0.0,0.0,0.0,0.0,0.0,0.0,0.0,0.0,0.0,0.0,0.0,0.0,0.0,0.0,0.0,0.0,0.0,0.0,0.0,0.0,0.0,0.0,0.0,0.0,0.0,0.0,0.0,0.0,0.0,0.0,0.0,0.0,-1.5761,-1.6157,-1.6542,0.0,0.0,0.0,0.0,0.0,0.0,-1.7854,-1.7709,0.0,0.0,0.0,0.0,0.0,0.0,0.0,0.0,0.0,0.0,0.0,0.0,0.0,0.0,0.0,0.0,0.0,0.0,0.0,0.0,0.0,0.0,0.0,0.0,0.0,0.0,0.0,0.0,0.0,0.0,0.0,0.0,0.0,0.0,0.0,0.0,0.0,0.0,0.0,0.0,0.0,0.0,0.0,0.0,0.0,0.0,0.0,0.0,0.0,0.0,0.0,0.0,0.0,0.0,0.0,-1.7376,-1.9851,-2.1732,-2.2938,-2.351,-2.3423,-2.2776,-2.1665,-2.0157,0.0,0.0,0.0,0.0,0.0,0.0,0.0,0.0,0.0,0.0,0.0,0.0,0.0,0.0,0.0,0.0,0.0,0.0,0.0,0.0,0.0,0.0,0.0,0.0,0.0,0.0,0.0,0.0,0.0,0.0,0.0,0.0,0.0,0.0,0.0,0.0,0.0,0.0,0.0,0.0,0.0,-1.7069,-1.7694,-1.8074,0.0,0.0,0.0,0.0,-1.8802,-1.8648,0.0,0.0,0.0,0.0,0.0,0.0,0.0,0.0,0.0,0.0,0.0,0.0,0.0,0.0,0.0,0.0,0.0,0.0,0.0,0.0,0.0,0.0,0.0,0.0,0.0,0.0,0.0,0.0,0.0,0.0,0.0,0.0,0.0,0.0,0.0,0.0,0.0,0.0,0.0,0.0,0.0,0.0,0.0,0.0,0.0,0.0,0.0,0.0,0.0,0.0,0.0,0.0,0.0,0.0,0.0,0.0,-1.7898,-1.9832,-2.1782,-2.3543,-2.3638,-2.3353,-2.2724,-2.2054,-2.0533,0.0,0.0,0.0,0.0,0.0,0.0,0.0,0.0,0.0,0.0,0.0,0.0,0.0,0.0,0.0,0.0,0.0,0.0,0.0,0.0,0.0,0.0,0.0,0.0,0.0,0.0,0.0,0.0,0.0,0.0,0.0,0.0,0.0,0.0,0.0,0.0,0.0,0.0,0.0,0.0,0.0,-1.7663,-1.7709,-1.9032,-2.0,0.0,0.0,-2.2216,-2.2235,-2.1589,0.0,0.0,0.0,0.0,0.0,0.0,0.0,0.0,0.0,0.0,0.0,0.0,0.0,0.0,0.0,0.0,0.0,0.0,0.0,0.0,0.0,0.0,0.0,0.0,0.0,0.0,0.0,0.0,0.0,0.0,0.0,0.0,0.0,0.0,0.0,0.0,0.0,0.0,0.0,0.0,0.0,0.0,0.0,0.0,0.0,0.0,0.0,0.0,0.0,0.0,0.0,0.0,0.0,0.0,0.0,-1.6564,-1.8383,-2.0671,-2.2527,-2.3956,-2.3955,-2.3822,-2.354,-2.1983,-2.0265,0.0,0.0,0.0,0.0,0.0,0.0,0.0,0.0,0.0,0.0,0.0,0.0,0.0,0.0,0.0,0.0,0.0,0.0,0.0,0.0,0.0,0.0,0.0,0.0,0.0,0.0,0.0,0.0,0.0,0.0,0.0,0.0,0.0,0.0,0.0,0.0,0.0,0.0,0.0,0.0,0.0,0.0,-1.9745,-2.0868,0.0,0.0,0.0,-2.2729,-2.2738,0.0,0.0,0.0,0.0,0.0,0.0,0.0,0.0,0.0,0.0,0.0,0.0,0.0,0.0,0.0,0.0,0.0,0.0,0.0,0.0,0.0,0.0,0.0,0.0,0.0,0.0,0.0,0.0,0.0,0.0,0.0,0.0,0.0,0.0,0.0,0.0,0.0,0.0,0.0,0.0,0.0,0.0,0.0,0.0,0.0,0.0,0.0,0.0,0.0,0.0,0.0,0.0,0.0,0.0,0.0,0.0,0.0,-1.8882,-2.131,-2.3126,-2.4408,-2.4437,-2.4349,-2.4158,-2.2147,0.0,0.0,0.0,0.0,0.0,0.0,0.0,0.0,0.0,0.0,0.0,0.0,0.0,0.0,0.0,0.0,0.0,0.0,0.0,0.0,0.0,0.0,0.0,0.0,0.0,0.0,0.0,-1.1116,0.0,0.0,0.0,0.0,0.0,0.0,0.0,0.0,0.0,0.0,0.0,0.0,0.0,0.0,-2.0802,-2.1579,-2.2601,-2.3201,0.0,0.0,-2.3526,-2.3316,-2.3138,-2.2786,0.0,0.0,0.0,0.0,0.0,0.0,0.0,0.0,0.0,0.0,0.0,0.0,0.0,0.0,0.0,0.0,0.0,0.0,0.0,0.0,0.0,0.0,0.0,0.0,0.0,0.0,0.0,0.0,0.0,0.0,0.0,0.0,0.0,0.0,0.0,0.0,0.0,0.0,0.0,0.0,0.0,0.0,0.0,0.0,0.0,0.0,0.0,0.0,0.0,0.0,0.0,0.0,0.0,0.0,0.0,-1.9325,-2.1316,-2.3209,-2.5041,-2.5114,-2.4835,-2.4187,-2.2892,-2.103,0.0,0.0,0.0,0.0,0.0,0.0,0.0,0.0,0.0,0.0,0.0,0.0,0.0,0.0,0.0,0.0,0.0,0.0,0.0,0.0,0.0,0.0,0.0,0.0,0.0,0.0,0.0,0.0,0.0,0.0,0.0,0.0,0.0,0.0,0.0,0.0,0.0,0.0,0.0,0.0,0.0,-2.1617,-2.2424,-2.3907,-2.465,0.0,0.0,-2.5806,-2.5044,-2.43,-2.3801,-2.3747,0.0,0.0,0.0,0.0,0.0,0.0,0.0,0.0,0.0,0.0,0.0,0.0,0.0,0.0,0.0,0.0,0.0,0.0,0.0,0.0,0.0,0.0,0.0,0.0,0.0,0.0,0.0,0.0,0.0,0.0,0.0,0.0,0.0,0.0,0.0,0.0,0.0,0.0,0.0,0.0,0.0,0.0,0.0,0.0,0.0,0.0,0.0,0.0,0.0,0.0,0.0,0.0,0.0,-1.7605,-1.973,-2.1678,-2.3378,-2.4722,-2.5141,-2.5026,-2.4471,-2.3269,-2.1666,0.0,0.0,0.0,0.0,0.0,0.0,0.0,0.0,0.0,0.0,0.0,0.0,0.0,0.0,0.0,0.0,0.0,0.0,0.0,0.0,0.0,0.0,0.0,0.0,0.0,0.0,0.0,0.0,-1.383,-1.4362,-1.4479,0.0,0.0,0.0,0.0,0.0,0.0,0.0,0.0,0.0,0.0,-2.3026,-2.3246,-2.4714,0.0,0.0,-2.5479,-2.5948,-2.5158,-2.4816,-2.4472,-2.3984,-2.3386,0.0,0.0,0.0,0.0,0.0,0.0,0.0,0.0,0.0,0.0,0.0,0.0,0.0,0.0,0.0,0.0,0.0,0.0,0.0,0.0,0.0,0.0,0.0,0.0,0.0,0.0,0.0,0.0,0.0,0.0,0.0,0.0,0.0,0.0,0.0,0.0,0.0,0.0,0.0,0.0,0.0,0.0,0.0,0.0,0.0,0.0,0.0,0.0,0.0,0.0,0.0,0.0,-1.7876,-1.9897,-2.2011,-2.3546,-2.4469,-2.5269,-2.5383,-2.4812,-2.3702,-2.2322,0.0,0.0,0.0,0.0,0.0,0.0,0.0,0.0,0.0,0.0,0.0,0.0,0.0,0.0,0.0,0.0,0.0,0.0,0.0,0.0,0.0,0.0,0.0,0.0,0.0,0.0,0.0,0.0,-1.4438,-1.4868,-1.4987,0.0,0.0,0.0,0.0,0.0,0.0,0.0,0.0,0.0,0.0,-2.3871,-2.4055,-2.5485,-2.6147,-2.5069,-2.5825,-2.6271,-2.5479,-2.5196,-2.4968,-2.4674,0.0,0.0,0.0,0.0,0.0,0.0,0.0,0.0,0.0,0.0,0.0,0.0,0.0,0.0,0.0,0.0,0.0,0.0,0.0,0.0,0.0,0.0,0.0,0.0,0.0,0.0,0.0,0.0,0.0,0.0,-0.8269,0.0,0.0,0.0,0.0,0.0,0.0,0.0,0.0,0.0,0.0,0.0,0.0,0.0,0.0,0.0,0.0,0.0,0.0,0.0,0.0,0.0,0.0,-1.8468,-1.9741,-2.2178,-2.3803,-2.4512,-2.5683,-2.5944,-2.5369,-2.4155,-2.293,-2.1773,0.0,0.0,0.0,0.0,0.0,0.0,0.0,0.0,0.0,0.0,0.0,0.0,0.0,0.0,0.0,0.0,0.0,0.0,0.0,0.0,0.0,0.0,0.0,0.0,0.0,0.0,-1.4579,-1.4813,-1.4942,0.0,0.0,0.0,0.0,0.0,0.0,0.0,0.0,0.0,0.0,-2.3201,-2.3985,-2.4785,-2.6254,-2.6711,-2.5168,-2.6321,-2.7093,-2.6304,-2.5536,-2.5291,0.0,0.0,0.0,0.0,0.0,0.0,0.0,0.0,0.0,0.0,0.0,0.0,0.0,0.0,0.0,0.0,0.0,0.0,0.0,0.0,0.0,0.0,0.0,0.0,0.0,0.0,0.0,-0.9965,-0.994,0.0,0.0,0.0,0.0,0.0,0.0,0.0,0.0,0.0,0.0,0.0,-1.4619,-1.5109,0.0,0.0,0.0,0.0,0.0,0.0,0.0,0.0,0.0,0.0,0.0,0.0,-1.9039,-2.0696,-2.2273,-2.3562,-2.4462,-2.5324,-2.5558,-2.5057,-2.4648,-2.3609,-2.1873,0.0,0.0,0.0,0.0,0.0,0.0,0.0,0.0,0.0,0.0,0.0,0.0,0.0,0.0,0.0,0.0,0.0,0.0,0.0,0.0,0.0,0.0,0.0,0.0,0.0,-1.5564,0.0,0.0,0.0,0.0,0.0,0.0,0.0,0.0,0.0,0.0,0.0,-2.2168,-2.3206,-2.4005,-2.4771,-2.551,-2.6588,-2.71,0.0,0.0,0.0,0.0,0.0,0.0,0.0,0.0,0.0,0.0,0.0,0.0,0.0,0.0,-2.6631,-2.4181,-2.3712,-2.3727,-2.3721,0.0,0.0,0.0,0.0,0.0,0.0,0.0,0.0,0.0,0.0,0.0,0.0,0.0,0.0,0.0,0.0,-1.0825,0.0,0.0,0.0,0.0,0.0,0.0,0.0,0.0,-1.4626,-1.532,-1.5949,-1.645,-1.6812,0.0,-1.6797,-1.6002,0.0,0.0,0.0,0.0,0.0,0.0,0.0,0.0,-1.9559,-2.1352,-2.2565,-2.3566,-2.4488,-2.5177,-2.5397,-2.5143,-2.4998,-2.4083,-2.2369,-2.0448,-1.8846,0.0,0.0,0.0,0.0,0.0,0.0,0.0,0.0,0.0,0.0,0.0,0.0,0.0,0.0,0.0,0.0,0.0,0.0,0.0,0.0,0.0,0.0,0.0,-1.6616,0.0,0.0,0.0,0.0,0.0,0.0,0.0,0.0,0.0,-2.0575,-2.2201,-2.355,-2.4022,-2.4993,-2.5857,-2.632,0.0,0.0,0.0,0.0,0.0,0.0,0.0,-2.8042,-2.8638,-2.873,-2.8875,-2.9235,-2.9804,-3.0395,-3.0944,0.0,0.0,-2.7643,-2.7104,-2.7094,-2.7103,-2.7113,-2.715,-2.7194,-2.7229,-2.7237,0.0,0.0,0.0,0.0,0.0,0.0,0.0,0.0,-1.2474,-1.257,0.0,-1.2292,0.0,0.0,0.0,0.0,0.0,-1.3727,0.0,0.0,-1.5947,-1.6585,-1.725,-1.741,-1.7571,-1.78,-1.8016,-1.7919,-1.7523,-1.6374,0.0,0.0,0.0,0.0,0.0,0.0,-2.0009,-2.1753,-2.2972,-2.3882,-2.4503,-2.5163,-2.5522,-2.5508,-2.5129,-2.4427,-2.337,-2.2312,-2.124,-2.0056,-1.7713,0.0,0.0,0.0,0.0,0.0,0.0,0.0,0.0,0.0,0.0,0.0,0.0,0.0,0.0,0.0,0.0,0.0,0.0,0.0,0.0,-1.6853,0.0,0.0,0.0,0.0,0.0,0.0,0.0,0.0,0.0,0.0,-2.1495,-2.3404,-2.4813,-2.4859,0.0,0.0,0.0,0.0,-2.8183,-2.745,-2.8065,-2.8928,-2.9734,-2.9225,-2.928,-3.0844,0.0,0.0,-3.2441,-3.259,-3.2659,-3.2746,-3.3465,-3.3276,-3.097,-3.0515,-3.0451,-3.0451,-3.0513,-3.0556,-3.0552,-3.0593,-3.0653,-1.2837,0.0,0.0,0.0,0.0,-1.2397,-1.2623,-1.2956,-1.315,-1.324,-1.3302,-1.2944,0.0,0.0,0.0,0.0,0.0,0.0,-1.5419,-1.6446,-1.7132,-1.7769,-1.8441,-1.8885,-1.9321,-1.966,-1.9383,-1.9405,-1.9673,-1.8573,-1.7555,-1.6822,0.0,0.0,0.0,0.0,-2.0577,-2.1961,-2.2692,-2.3716,-2.5128,-2.5459,-2.5772,-2.5931,-2.5203,-2.4679,-2.4404,-2.3055,-2.1985,-2.1283,-1.942,0.0,0.0,0.0,0.0,0.0,0.0,0.0,0.0,0.0,0.0,0.0,0.0,0.0,0.0,0.0,0.0,0.0,0.0,0.0,-1.8825,-1.9578,-1.9831,0.0,0.0,0.0,0.0,0.0,0.0,0.0,0.0,0.0,-2.4217,-2.4503,-2.5057,0.0,0.0,-2.7233,-2.7811,-2.8614,-2.9306,-2.9643,0.0,0.0,0.0,-3.1241,-3.128,-3.1788,-3.2411,-3.3279,-3.4734,-3.502,-3.5268,-3.5798,-3.6217,-3.6216,-3.5586,-3.4508,-3.383,-3.3808,-3.3819,-3.3844,-3.3887,-3.3934,-3.3961,-1.3902,-1.3559,-1.3158,-1.3107,-1.3235,-1.3334,-1.3561,-1.3884,-1.4037,-1.4114,-1.4185,-1.3922,-1.3931,-1.4194,-1.4268,0.0,0.0,0.0,-1.645,-1.7291,-1.7978,-1.8587,-1.9114,-1.9531,-1.9955,-2.0332,-2.0136,-2.0217,-2.0662,-2.0207,-1.9586,-1.8827,0.0,0.0,-1.919,-1.9854,-2.0922,-2.2297,-2.2644,-2.3564,-2.5042,-2.5258,-2.5432,-2.5636,-2.5232,-2.4952,-2.4833,-2.3759,-2.2772,-2.2116,-2.0417,-1.8826,0.0,0.0,0.0,0.0,0.0,0.0,0.0,0.0,0.0,0.0,0.0,-1.2867,0.0,0.0,0.0,0.0,-1.7894,-1.9308,-2.0569,-2.1259,0.0,0.0,0.0,0.0,0.0,0.0,0.0,-2.3107,-2.4595,-2.5878,-2.6688,-2.6735,-2.6965,-2.7673,-2.8378,-2.8971,-2.9474,0.0,-3.0544,-3.1009,-3.1853,-3.2549,-3.2851,-3.3253,-3.3615,-3.3995,-3.4486,-3.5149,-3.6193,-3.6459,-3.6672,-3.719,-3.7631,-3.7919,-3.7919,-3.7394,-3.6806,-3.627,-3.6153,-3.6167,-3.6252,-3.6285,-3.632,-1.4719,-1.4569,-1.4272,-1.3979,-1.3717,-1.424,-1.4514,-1.4549,-1.4947,-1.5023,-1.5014,-1.5005,-1.5242,-1.5498,-1.5898,0.0,-1.6477,-1.7126,-1.7621,-1.7991,-1.8609,-1.9133,-1.9471,-1.9625,-1.9844,-2.0182,-2.0474,-2.0706,-2.0949,-2.1299,-2.1556,-2.1506,-1.99,-1.9507,-2.0226,-2.0313,-2.1076,-2.2711,-2.2817,-2.3415,-2.4603,-2.4744,-2.4889,-2.4962,-2.5077,-2.4984,-2.4713,-2.4203,-2.3498,-2.2562,-2.0897,-1.9532,-1.854,0.0,0.0,0.0,0.0,0.0,0.0,0.0,0.0,0.0,0.0,0.0,0.0,0.0,0.0,0.0,-2.007,0.0,-2.1995,-2.2236,0.0,0.0,0.0,-2.3898,-2.4024,-2.4813,-2.5379,-2.5433,0.0,0.0,-2.8919,0.0,-3.0013,-2.9582,-3.0704,-3.1612,-3.1642,-3.1843,-3.1959,-3.2051,-3.2781,-3.365,-3.4375,-3.5075,-3.5819,-3.6627,-3.7001,-3.7012,-3.7277,-3.7338,-3.7347,-3.7555,-3.8086,-3.8599,-3.858,-3.9139,-3.9394,-3.7984,-3.7776,-3.7814,-3.7869,-3.7905,-3.794,-1.4828,-1.4957,-1.5173,-1.4755,-1.4013,-1.4301,-1.4465,-1.4603,-1.4811,-1.498,-1.5085,-1.5231,-1.5632,-1.6158,-1.6416,-1.6848,-1.7348,-1.7512,-1.7987,-1.8635,-1.9005,-1.9421,-1.9949,-2.0292,-2.0608,-2.0938,-2.1249,-2.1568,-2.1861,-2.1689,-2.1774,-2.2058,-2.1277,-2.0936,-2.1017,-2.1055,-2.155,-2.2498,-2.2892,-2.3747,-2.4998,-2.511,-2.4944,-2.4677,-2.446,-2.4164,-2.3683,-2.3459,-2.3196,-2.2941,-2.1411,-2.0287,-1.9624,-1.7518,0.0,0.0,0.0,0.0,0.0,0.0,0.0,0.0,0.0,-1.5525,-1.6262,0.0,-1.8349,0.0,-2.1856,-2.3232,-2.3432,-2.4103,0.0,0.0,-2.5561,-2.6027,-2.6222,-2.6913,-2.7647,-2.8309,-2.873,-2.9493,-3.0923,-3.1815,-3.2552,-3.306,-3.2593,-3.2271,-3.2297,-3.3474,-3.4289,-3.4326,-3.5032,-3.575,-3.5943,-3.6226,-3.6782,-3.7667,-3.7797,-3.8047,-3.8733,-3.8915,-3.894,-3.8989,-3.9194,-3.9416,-3.9397,-3.966,-3.9671,-3.9356,-3.9366,-3.9428,-3.9448,-3.9509,-3.9605,-1.4954,-1.5129,-1.5364,-1.5153,-1.4727,-1.4924,-1.4974,-1.5027,-1.5155,-1.5281,-1.556,-1.5905,-1.6296,-1.6628,-1.6958,-1.7416,-1.7825,-1.8009,-1.84,-1.9007,-1.9168,-1.9555,-2.0096,-2.0313,-2.0711,-2.1221,-2.136,-2.1686,-2.2037,-2.1946,-2.2043,-2.2318,-2.196,-2.1763,-2.1737,-2.1658,-2.1885,-2.2546,-2.3098,-2.3787,-2.4616,-2.4702,-2.4543,-2.4146,-2.3968,-2.3609,-2.2899,-2.2798,-2.2728,-2.2676,-2.1664,-2.0753,-1.9995,-1.8578,-1.7312,0.0,0.0,0.0,0.0,0.0,0.0,0.0,0.0,0.0,0.0,0.0,-2.0441,0.0,-2.375,-2.4842,-2.5261,-2.6117,-2.6839,-2.729,-2.7812,-2.8176,-2.8379,-2.906,-2.9727,-3.0213,-3.0919,-3.1716,-3.262,-3.3484,-3.4225,-3.472,-3.455,-3.428,-3.4142,-3.4885,-3.5454,-3.5549,-3.6342,-3.7108,-3.746,-3.7646,-3.7895,-3.8366,-3.8532,-3.8734,-3.9208,-3.9346,-3.9399,-3.9495,-3.9546,-3.962,-3.9645,-3.9722,-3.9754,-3.9758,-3.9826,-3.9914,-3.9996,-4.0057,-4.0137,-1.5083,-1.5227,-1.5219,-1.528,-1.5351,-1.5654,-1.5691,-1.5568,-1.564,-1.5854,-1.628,-1.6774,-1.6958,-1.6982,-1.7527,-1.7832,-1.8018,-1.8347,-1.8674,-1.9075,-1.9208,-1.9528,-1.9977,-2.0096,-2.0431,-2.1031,-2.1158,-2.1411,-2.18,-2.1999,-2.2173,-2.2334,-2.2186,-2.2188,-2.2351,-2.2128,-2.2291,-2.2889,-2.3386,-2.3708,-2.3819,-2.4008,-2.3869,-2.3339,-2.3466,-2.3111,-2.215,-2.2196,-2.215,-2.2105,-2.1626,-2.1026,-2.0229,-1.9739,-1.8815,0.0,-1.7347,0.0,0.0,0.0,0.0,0.0,0.0,0.0,0.0,-2.1618,-2.3201,-2.4814,-2.5656,-2.6434,-2.7163,-2.8082,-2.8937,-2.9644,-3.0073,-3.0328,-3.051,-3.121,-3.1718,-3.1782,-3.3034,-3.3934,-3.4127,-3.4851,-3.533,-3.5629,-3.6163,-3.6422,-3.6186,-3.6155,-3.6272,-3.6279,-3.7046,-3.7886,-3.8556,-3.8847,-3.8905,-3.8942,-3.899,-3.9101,-3.9156,-3.9183,-3.9256,-3.9425,-3.9495,-3.952,-3.9552,-3.9645,-3.9698,-3.9727,-3.9758,-3.9848,-3.9954,-3.9996,-4.0057,-1.4873,-1.5155,-1.5313,-1.5286,-1.5302,-1.5653,-1.5902,-1.5945,-1.6238,-1.6612,-1.6985,-1.7299,-1.7415,-1.7394,-1.7679,-1.7853,-1.8008,-1.8076,-1.8405,-1.8875,-1.9075,-1.9274,-1.9473,-1.9911,-2.0172,-2.0366,-2.0892,-2.1221,-2.136,-2.1624,-2.1937,-2.2235,-2.22,-2.2348,-2.2578,0.0,0.0,0.0,-2.3522,-2.3611,-2.3628,-2.3832,-2.3456,-2.2431,-2.2666,0.0,-2.1336,-2.1439,-2.1629,-2.1698,-2.1411,0.0,0.0,0.0,0.0,0.0,0.0,0.0,0.0,0.0,0.0,0.0,-2.2508,-2.2715,-2.2181,-2.4181,-2.5846,-2.6714,-2.7698,-2.8366,-2.8518,-2.9377,-3.0052,-3.0385,-3.1543,-3.2414,-3.2612,-3.331,-3.3853,-3.3853,-3.4211,-3.4707,-3.5342,-3.5736,-3.6165,-3.6734,-3.7109,-3.7255,-3.7238,-3.7408,-3.7649,-3.7751,-3.8,-3.8389,-3.8683,-3.881,-3.8881,-3.891,-3.8979,-3.9007,-3.9036,-3.9147,-3.9183,-3.9256,-3.9399,-3.9495,-3.952,-3.9639,-3.9693,-3.9717,-3.9754,-3.9826,-3.9911,-3.9954,-4.0015,-1.4734,0.0,-1.5159,-1.5306,0.0,-1.5657,-1.5963,-1.6174,-1.6297,-1.6531,-1.6901,-1.7203,-1.7406,-1.7505,-1.7816,-1.7947,-1.7913,-1.8182,-1.835,-1.8424,-1.9043,-1.9417,-1.9562,-2.0111,-2.0536,-2.0817,-2.1163,-2.1563,-2.1904,-2.2113,-2.2374,-2.2686,-2.2512,-2.257,-2.2797,-2.2702,-2.2873,-2.3271,-2.3321,-2.3394,-2.3509,-2.3582,-2.3231,-2.251,0.0,0.0,0.0,0.0,0.0,0.0,0.0,0.0,0.0,0.0,0.0,-2.1152,-2.107,-2.1237,-2.1762,-2.2454,-2.3123,-2.3838,-2.5211,-2.5632,-2.4661,-2.6081,-2.7432,-2.8241,-2.9182,-2.9884,-3.0331,-3.1258,-3.1856,-3.2008,-3.2757,-3.3377,-3.3619,-3.432,-3.4827,-3.4975,-3.5335,-3.5815,-3.6221,-3.6429,-3.6703,-3.7132,-3.7279,-3.7392,-3.7503,-3.7739,-3.7931,-3.8068,-3.8271,-3.8433,-3.8578,-3.8689,-3.878,-3.8851,-3.891,-3.8968,-3.8979,-3.9045,-3.9101,-3.9183,-3.9283,-3.9399,-3.9495,-3.9546,-3.962,-3.9693,-3.9722,-3.9754,-3.9845,-3.9911,-3.9973,-1.4398,-1.4657,-1.4824,-1.5075,-1.5318,-1.5567,-1.5899,-1.6355,0.0,0.0,0.0,-1.7175,-1.7445,-1.7552,-1.8004,-1.8082,-1.7849,-1.8323,-1.8424,-1.8252,-1.9083,-1.9604,-1.9893,-2.0396,-2.0917,-2.135,-2.149,-2.1815,-2.2377,-2.2446,-2.2718,-2.3033,-2.278,-2.2775,-2.2934,-2.2892,-2.2923,-2.3059,-2.3069,-2.315,-2.3271,-2.3403,-2.3183,-2.2738,-2.239,-2.204,-2.1681,-2.1402,-2.1402,-2.17,-2.2042,-2.2047,-2.1699,-2.1991,-2.2261,-2.241,-2.2658,-2.3155,-2.3866,-2.4425,-2.5075,-2.5948,-2.7549,-2.8119,-2.7154,-2.7891,-2.8755,-2.9782,-3.0476,-3.1198,-3.1967,-3.2942,-3.3567,-3.3609,-3.3879,-3.4114,-3.4393,-3.4932,-3.5445,-3.5659,-3.6209,-3.6684,-3.6696,-3.6834,-3.697,-3.7048,-3.7164,-3.7279,-3.7374,-3.7595,-3.7792,-3.8034,-3.8204,-3.8322,-3.8465,-3.859,-3.8689,-3.8762,-3.8833,-3.8892,-3.895,-3.8997,-3.9036,-3.9156,-3.9183,-3.9301,-3.9444,-3.9495,-3.9546,-3.9669,-3.9712,-3.9698,-3.9777,-3.9845,-3.9911,-1.399,-1.4166,-1.4405,-1.4734,-1.5173,-1.5401,-1.5816,-1.6386,-1.6782,-1.7146,-1.754,-1.7789,-1.7864,-1.7795,-1.8181,-1.8279,-1.8054,-1.8322,-1.8651,0.0,-1.9141,-1.9531,-2.0053,-2.0329,-2.0563,-2.0836,-2.1269,-2.1559,-2.1699,-2.2056,-2.2309,-2.2662,-2.2638,-2.2817,-2.3152,-2.3424,-2.3586,-2.3562,-2.3182,-2.2969,-2.2969,-2.321,-2.3124,-2.2566,-2.2661,-2.2566,-2.2215,-2.2178,-2.2339,-2.2775,-2.2931,-2.3135,-2.3431,-2.3596,-2.3921,-2.4332,-2.4413,-2.4663,-2.5144,-2.5839,-2.7031,-2.8688,-2.9709,-2.9915,-2.9201,-2.9919,-3.081,-3.1554,-3.2048,-3.2448,-3.2658,-3.3484,-3.4169,-3.4361,-3.4895,-3.5433,-3.5608,-3.5856,-3.6002,-3.6086,-3.6333,-3.6544,-3.6585,-3.6708,-3.6829,-3.6851,-3.7048,-3.7185,-3.7392,-3.7559,-3.7756,-3.7984,-3.8086,-3.8219,-3.835,-3.8478,-3.8578,-3.8689,-3.8743,-3.8833,-3.8892,-3.895,-3.9007,-3.9101,-3.9175,-3.9256,-3.9373,-3.9469,-3.952,-3.9596,-3.9645,-3.9693,-3.9722,-3.9773,-3.9845,-1.3652,-1.3906,-1.4159,-1.4405,-1.4741,-1.5235,-1.5643,-1.6064,-1.6558,-1.6968,-1.7375,-1.7708,-1.7857,-1.7942,-1.8259,-1.8369,-1.8306,-1.844,-1.8611,-1.8784,-1.9364,-1.9693,-2.0018,-2.0683,-2.1102,-2.1324,-2.1691,-2.1983,-2.2335,-2.2479,-2.2766,-2.3112,-2.3073,-2.3133,-2.3317,-2.3404,-2.3604,-2.401,-2.3737,-2.3652,-2.3728,-2.3929,-2.3929,-2.3727,-2.3631,-2.3518,-2.3425,-2.3288,-2.3401,-2.3874,-2.4026,-2.4245,-2.4543,-2.4785,-2.5064,-2.5365,-2.5954,-2.6387,-2.663,-2.7594,-2.865,-2.9699,-3.056,-3.0907,-3.0644,-3.091,-3.147,-3.2417,-3.2736,-3.3088,-3.3623,-3.422,-3.4635,-3.471,-3.5227,-3.5594,-3.5756,-3.5905,-3.6036,-3.6165,-3.631,-3.6377,-3.6502,-3.6585,-3.6708,-3.6788,-3.6952,-3.7129,-3.7223,-3.7411,-3.7613,-3.781,-3.7931,-3.8086,-3.8219,-3.8318,-3.8433,-3.8578,-3.8621,-3.8713,-3.8803,-3.8892,-3.8968,-3.9036,-3.912,-3.9202,-3.9283,-3.9373,-3.9469,-3.9546,-3.9596,-3.9645,-3.9674,-3.975,-3.9845,-1.3392,-1.3568,-1.3913,-1.4159,-1.4482,-1.5061,-1.5484,-1.565,-1.6064,-1.6476,-1.6976,-1.7367,-1.7708,-1.7951,-1.8201,-1.8356,-1.8422,-1.862,-1.8687,-1.8732,-1.9449,-1.9916,-2.0088,-2.0968,-2.1425,-2.1655,-2.1883,-2.2262,-2.2703,-2.2852,-2.3075,-2.3412,-2.344,-2.3461,-2.3416,-2.3419,-2.3703,-2.4235,-2.429,-2.4365,-2.4418,-2.4406,-2.4536,-2.4718,-2.4457,-2.4343,-2.4517,-2.44,-2.4465,-2.4845,-2.5065,-2.5297,-2.5527,-2.5825,-2.6106,-2.6357,-2.71,-2.7707,-2.8144,-2.9119,-2.9913,-3.0418,-3.109,-3.1628,-3.1758,-3.1571,-3.1937,-3.2866,-3.316,-3.3551,-3.4219,-3.4561,-3.4804,-3.4899,-3.5152,-3.5429,-3.5549,-3.5684,-3.5861,-3.6036,-3.6165,-3.6251,-3.6377,-3.6461,-3.6585,-3.6771,-3.6913,-3.7031,-3.7108,-3.7279,-3.7411,-3.7595,-3.781,-3.7984,-3.8086,-3.8186,-3.8303,-3.8428,-3.8491,-3.859,-3.8732,-3.8822,-3.891,-3.8997,-3.9036,-3.9101,-3.9183,-3.9283,-3.9399,-3.9476,-3.9546,-3.9577,-3.9693,-3.9727,-3.9804,-1.3143,-1.3222,-1.3561,-1.3984,-1.4398,-1.4908,-1.5242,-1.5477,-1.565,-1.6064,-1.6476,-1.6968,-1.7375,-1.77,-1.7951,-1.8167,-1.8372,-1.878,-1.9052,-1.9164,-1.9474,-1.9972,-2.0488,-2.0624,-2.0886,-2.1282,-2.1655,-2.1883,-2.2035,-2.2327,-2.2639,-2.3075,-2.3401,-2.3588,-2.3565,-2.3872,-2.4112,-2.4192,-2.453,-2.4536,-2.4074,-2.4132,-2.4341,-2.4536,-2.4511,-2.4643,-2.4976,-2.5103,-2.5329,-2.5654,-2.6025,-2.6331,-2.6647,-2.6813,-2.7096,-2.7479,-2.7607,-2.8181,-2.9291,-3.0051,-3.0657,-3.1282,-3.1687,-3.2013,-3.2219,-3.2268,-3.254,-3.3135,-3.3582,-3.3853,-3.4084,-3.43,-3.4497,-3.4787,-3.4947,-3.5105,-3.5429,-3.5549,-3.5667,-3.5817,-3.6036,-3.6208,-3.6251,-3.6377,-3.6585,-3.6748,-3.6811,-3.693,-3.7031,-3.7108,-3.7223,-3.7411,-3.7595,-3.7792,-3.8,-3.8101,-3.8201,-3.835,-3.8446,-3.8559,-3.867,-3.8762,-3.8851,-3.8921,-3.9007,-3.9064,-3.9129,-3.921,-3.9301,-3.9425,-3.9495,-3.9564,-3.9669,-3.9703,-3.9777,-1.2881,-1.3143,-1.3313,-1.3646,-1.4243,-1.4573,-1.4908,-1.5249,-1.5409,-1.5726,-1.6064,-1.6476,-1.6968,-1.7375,-1.77,-1.7951,-1.8193,-1.8523,-1.8834,-1.9152,-1.9311,-1.9636,-2.0029,-2.0411,-2.0722,-2.0886,-2.1282,-2.1589,-2.1807,-2.2187,-2.2478,-2.2703,-2.3001,-2.3224,-2.3309,-2.3677,-2.397,-2.4189,-2.4322,-2.4472,-2.4481,-2.4743,-2.5005,-2.5302,-2.545,-2.5573,-2.5816,-2.6041,-2.6359,-2.6765,-2.696,-2.7205,-2.7651,-2.7854,-2.7927,-2.7856,-2.8116,-2.8862,-3.0073,-3.0397,-3.0807,-3.1336,-3.1567,-3.1826,-3.2016,-3.2277,-3.2508,-3.278,-3.3224,-3.3607,-3.3848,-3.4066,-3.425,-3.4448,-3.4707,-3.4947,-3.5152,-3.5383,-3.5611,-3.5667,-3.5861,-3.6036,-3.6165,-3.6377,-3.6544,-3.6626,-3.6708,-3.6851,-3.693,-3.7031,-3.7147,-3.7206,-3.7411,-3.7595,-3.7845,-3.7966,-3.8086,-3.8201,-3.8318,-3.8419,-3.8559,-3.867,-3.878,-3.8881,-3.8921,-3.9007,-3.9064,-3.9156,-3.9256,-3.9354,-3.9469,-3.9564,-3.9688,-3.9717,-3.975,-1.2619,-1.2881,-1.3052,-1.3483,-1.3997,-1.4237,-1.4573,-1.4908,-1.5151,-1.5394,-1.565,-1.6064,-1.6476,-1.6886,-1.7375,-1.77,-1.7959,-1.8201,-1.8514,-1.8834,-1.9073,-1.9311,-1.9548,-2.002,-2.0411,-2.0566,-2.0876,-2.1205,-2.1645,-2.2025,-2.2252,-2.2252,-2.2628,-2.2852,-2.2852,-2.3224,-2.3604,-2.3824,-2.397,-2.4273,-2.4622,-2.4897,-2.5253,-2.5688,-2.591,-2.6037,-2.6302,-2.6508,-2.6769,-2.7175,-2.739,-2.7656,-2.8039,-2.8231,-2.8071,-2.7817,-2.8316,-2.9114,-3.0053,-3.0406,-3.0762,-3.1073,-3.1278,-3.1482,-3.173,-3.2012,-3.2231,-3.2437,-3.278,-3.3171,-3.3555,-3.3813,-3.3949,-3.4101,-3.4497,-3.4707,-3.4883,-3.5198,-3.5383,-3.5549,-3.5684,-3.5861,-3.6079,-3.6293,-3.6419,-3.6461,-3.6626,-3.6748,-3.6788,-3.693,-3.7031,-3.7069,-3.7223,-3.7411,-3.7649,-3.7863,-3.8002,-3.8086,-3.8204,-3.8354,-3.8465,-3.8578,-3.8719,-3.8803,-3.8892,-3.895,-3.9007,-3.912,-3.9202,-3.921,-3.9354,-3.952,-3.9596,-3.9669,-3.9722,-1.2448,-1.2534,-1.2881,-1.3307,-1.373,-1.3997,-1.4243,-1.4482,-1.4915,-1.5249,-1.5401,-1.565,-1.5982,-1.6468,-1.6886,-1.7294,-1.77,-1.7951,-1.8193,-1.8434,-1.8843,-1.9152,-1.9301,-1.9557,-1.9872,-2.0255,-2.0489,-2.0809,-2.1215,-2.1655,-2.1807,-2.1883,-2.2262,-2.2402,-2.2478,-2.2852,-2.3001,-2.3139,-2.3446,-2.3824,-2.42,-2.4273,-2.4611,-2.5241,-2.5312,-2.5535,-2.5898,-2.622,-2.6414,-2.6483,-2.7108,-2.7523,-2.7537,-2.7506,-2.7385,-2.7256,-2.8112,-2.8689,-2.8997,-2.986,-3.0553,-3.0702,-3.094,-3.119,-3.1468,-3.1567,-3.1838,-3.2327,-3.2453,-3.2742,-3.3187,-3.345,-3.3694,-3.4,-3.4101,-3.4399,-3.4787,-3.4883,-3.5088,-3.5367,-3.5549,-3.5711,-3.5975,-3.614,-3.6251,-3.6318,-3.6444,-3.6544,-3.6684,-3.6788,-3.6851,-3.697,-3.7087,-3.7223,-3.754,-3.7739,-3.7881,-3.8002,-3.8138,-3.834,-3.8419,-3.8496,-3.8621,-3.8732,-3.8792,-3.8851,-3.895,-3.9036,-3.9092,-3.9175,-3.9354,-3.9476,-3.9546,-3.962,-3.9674,-1.2112,-1.2454,-1.2881,-1.3222,-1.3392,-1.3743,-1.399,-1.4243,-1.4573,-1.4824,-1.5242,-1.5401,-1.565,-1.5974,-1.6476,-1.6886,-1.7302,-1.7546,-1.7797,-1.8121,-1.8273,-1.8603,-1.9073,-1.932,-1.9548,-1.9872,-2.002,-2.0411,-2.0809,-2.1195,-2.1425,-2.1512,-2.1807,-2.2035,-2.2111,-2.2402,-2.2703,-2.3001,-2.315,-2.3457,-2.3824,-2.3982,-2.4189,-2.4622,-2.5028,-2.5382,-2.5535,-2.5886,-2.6151,-2.6414,-2.6633,-2.6873,-2.6974,-2.6947,-2.6918,-2.6971,-2.7377,-2.7982,-2.8647,-2.9128,-2.9729,-3.0539,-3.0702,-3.0939,-3.1191,-3.1395,-3.1595,-3.1823,-3.2216,-3.2508,-3.2742,-3.3118,-3.3435,-3.3694,-3.3949,-3.4151,-3.4399,-3.4691,-3.4947,-3.5135,-3.5412,-3.5684,-3.5817,-3.5993,-3.6122,-3.6251,-3.6318,-3.6402,-3.6544,-3.6643,-3.6766,-3.6851,-3.697,-3.7087,-3.7223,-3.754,-3.7739,-3.7916,-3.8054,-3.8189,-3.8271,-3.8354,-3.8451,-3.859,-3.8652,-3.8762,-3.8881,-3.8979,-3.9036,-3.9156,-3.9328,-3.9425,-3.9495,-3.9571,-3.9645,-1.1952,-1.2283,-1.2711,-1.2881,-1.3045,-1.3392,-1.3659,-1.3997,-1.4243,-1.4489,-1.4824,-1.5068,-1.5311,-1.565,-1.5891,-1.6312,-1.6812,-1.7147,-1.7465,-1.7797,-1.7959,-1.8282,-1.8683,-1.9002,-1.924,-1.9557,-1.9784,-2.0098,-2.0401,-2.0809,-2.0974,-2.1051,-2.1425,-2.1578,-2.1655,-2.2025,-2.2327,-2.2628,-2.2692,-2.3001,-2.3372,-2.3519,-2.3751,-2.4043,-2.4599,-2.5028,-2.5253,-2.5535,-2.5816,-2.6057,-2.6127,-2.6159,-2.6101,-2.6069,-2.6056,-2.6194,-2.6521,-2.7047,-2.7847,-2.8404,-2.9082,-2.9868,-3.0329,-3.0626,-3.0908,-3.1161,-3.1321,-3.1537,-3.1823,-3.216,-3.2453,-3.2796,-3.3118,-3.3398,-3.3694,-3.3899,-3.4084,-3.4431,-3.4691,-3.4947,-3.5274,-3.5549,-3.5701,-3.5817,-3.5949,-3.6053,-3.6191,-3.6318,-3.6402,-3.6544,-3.6643,-3.669,-3.6829,-3.697,-3.7087,-3.7317,-3.754,-3.7721,-3.7933,-3.807,-3.8171,-3.8256,-3.8322,-3.8465,-3.8559,-3.867,-3.8792,-3.8892,-3.9007,-3.9101,-3.9229,-3.9328,-3.9425,-3.952,-3.9521,-1.178,-1.2037,-1.2289,-1.254,-1.2705,-1.2966,-1.3313,-1.3652,-1.4004,-1.4243,-1.4482,-1.465,-1.4985,-1.5318,-1.5477,-1.5733,-1.6154,-1.673,-1.7147,-1.7392,-1.7797,-1.7951,-1.8112,-1.8523,-1.8922,-1.9311,-1.9706,-1.9863,-1.9942,-2.0333,-2.0566,-2.0644,-2.0974,-2.1205,-2.1205,-2.1578,-2.1807,-2.1959,-2.2252,-2.2639,-2.2927,-2.3075,-2.3235,-2.3593,-2.4043,-2.4478,-2.5052,-2.5253,-2.5465,-2.5615,-2.5636,-2.5369,-2.5143,-2.5001,-2.4939,-2.5043,-2.5486,-2.599,-2.6411,-2.7722,-2.8437,-2.8904,-2.9643,-3.017,-3.0366,-3.0543,-3.0778,-3.1126,-3.1327,-3.163,-3.2048,-3.2198,-3.2532,-3.3187,-3.3361,-3.3607,-3.3899,-3.4101,-3.4349,-3.4804,-3.5135,-3.5354,-3.5492,-3.5594,-3.5667,-3.5817,-3.5993,-3.6165,-3.6191,-3.6377,-3.6461,-3.6527,-3.6667,-3.6829,-3.693,-3.7087,-3.7299,-3.7522,-3.7774,-3.7949,-3.8086,-3.8171,-3.8256,-3.8368,-3.8478,-3.859,-3.8732,-3.8851,-3.895,-3.9064,-3.9166,-3.9256,-3.938,-3.942,-3.9327,-1.1602,-1.1785,-1.2037,-1.2283,-1.2534,-1.2705,-1.2966,-1.3313,-1.3483,-1.3822,-1.4166,-1.425,-1.4489,-1.4901,-1.5228,-1.5484,-1.565,-1.6154,-1.6574,-1.6902,-1.7221,-1.7627,-1.7951,-1.8121,-1.8451,-1.8922,-1.9311,-1.946,-1.9548,-1.9942,-2.0098,-2.0177,-2.0576,-2.0799,-2.0809,-2.1195,-2.1502,-2.1807,-2.1949,-2.2187,-2.2553,-2.2852,-2.3075,-2.3224,-2.3593,-2.4032,-2.4467,-2.4897,-2.5241,-2.5382,-2.5505,-2.5351,-2.4912,-2.4551,-2.4367,-2.4385,-2.4824,-2.5436,-2.599,-2.6607,-2.7349,-2.794,-2.844,-2.8754,-2.9102,-2.9319,-2.9491,-2.9788,-2.9982,-3.0288,-3.0452,-3.0762,-3.1482,-3.2841,-3.3203,-3.3282,-3.3463,-3.3834,-3.43,-3.4804,-3.4994,-3.5088,-3.5321,-3.5362,-3.5414,-3.552,-3.5698,-3.5847,-3.6011,-3.6036,-3.6335,-3.636,-3.6527,-3.6458,-3.6444,-3.6457,-3.665,-3.7017,-3.7381,-3.7792,-3.7949,-3.8086,-3.8204,-3.8303,-3.8415,-3.851,-3.867,-3.8792,-3.8881,-3.8979,-3.9092,-3.9183,-3.9317,-3.9207,-3.8977,-1.1251,-1.144,-1.1785,-1.1952,-1.2198,-1.2369,-1.2625,-1.2966,-1.3052,-1.3398,-1.3743,-1.3913,-1.4166,-1.4489,-1.4901,-1.5151,-1.5318,-1.5658,-1.5989,-1.6402,-1.6812,-1.7221,-1.7627,-1.7951,-1.8121,-1.8442,-1.8843,-1.9073,-1.9073,-1.9469,-1.9696,-1.9784,-2.0098,-2.0411,-2.0489,-2.0809,-2.1118,-2.1425,-2.1634,-2.1852,-2.2176,-2.2478,-2.2777,-2.2927,-2.3224,-2.353,-2.3897,-2.4478,-2.4909,-2.504,-2.4987,-2.4719,-2.4455,-2.4019,-2.3806,-2.4112,-2.4416,-2.4851,-2.5418,-2.5864,-2.6397,-2.71,-2.7603,-2.7923,-2.8197,-2.8411,-2.861,-2.8834,-2.9101,-2.9347,-2.9594,-2.9795,-3.0578,-3.1727,-3.207,-3.2363,-3.2554,-3.2994,-3.3372,-3.366,-3.3834,-3.4087,-3.4272,-3.4409,-3.4499,-3.4617,-3.4793,-3.4924,-3.5053,-3.5147,-3.5341,-3.5425,-3.5359,-3.5451,-3.5692,-3.585,-3.6022,-3.6423,-3.6932,-3.7417,-3.7792,-3.7967,-3.8104,-3.8256,-3.8368,-3.8446,-3.8559,-3.8701,-3.8792,-3.8892,-3.885,-3.8924,-3.8883,-3.8588,-3.8328,-1.1008,-1.1008,-1.144,-1.1699,-1.1785,-1.1952,-1.2203,-1.2625,-1.2705,-1.296,-1.3307,-1.3568,-1.3828,-1.4082,-1.4321,-1.4657,-1.4999,-1.5235,-1.5484,-1.5816,-1.6319,-1.6722,-1.7139,-1.7627,-1.7959,-1.804,-1.8451,-1.8612,-1.8692,-1.9073,-1.9213,-1.9311,-1.9696,-1.9942,-2.0186,-2.0411,-2.0654,-2.0974,-2.1231,-2.1527,-2.1797,-2.2035,-2.2262,-2.2628,-2.2852,-2.3075,-2.3372,-2.3886,-2.4418,-2.466,-2.4265,-2.4049,-2.3878,-2.3453,-2.3552,-2.4053,-2.4106,-2.4345,-2.4811,-2.5364,-2.5864,-2.6205,-2.694,-2.7678,-2.7582,-2.7726,-2.7967,-2.8277,-2.8446,-2.8726,-2.9149,-2.9349,-2.9637,-3.0014,-3.0624,-3.0994,-3.1223,-3.1775,-3.2175,-3.2205,-3.2262,-3.2508,-3.2867,-3.2895,-3.3056,-3.3232,-3.3481,-3.3677,-3.3761,-3.4006,-3.3891,-3.4065,-3.4427,-3.4616,-3.4948,-3.5066,-3.522,-3.5568,-3.6056,-3.6523,-3.7113,-3.7358,-3.7476,-3.77,-3.7962,-3.8132,-3.8136,-3.8041,-3.8125,-3.818,-3.8248,-3.8405,-3.8234,-3.7853,-3.748,-1.0651,-1.1008,-1.1094,-1.1354,-1.1699,-1.1785,-1.1952,-1.2203,-1.2369,-1.2619,-1.2875,-1.3137,-1.3483,-1.3828,-1.4082,-1.4328,-1.4573,-1.4817,-1.5144,-1.5477,-1.565,-1.6147,-1.6812,-1.7302,-1.7554,-1.7635,-1.7959,-1.8201,-1.8201,-1.8603,-1.8851,-1.8843,-1.9231,-1.946,-1.9627,-1.9923,-2.0313,-2.0654,-2.0799,-2.1088,-2.1502,-2.1731,-2.1959,-2.2252,-2.2553,-2.2852,-2.3075,-2.353,-2.4116,-2.4743,-2.4503,-2.4333,-2.4244,-2.385,-2.369,-2.3898,-2.4025,-2.4112,-2.4371,-2.4767,-2.5148,-2.532,-2.578,-2.6035,-2.6399,-2.6441,-2.6661,-2.688,-2.7165,-2.7384,-2.7568,-2.7951,-2.8297,-2.8693,-2.9684,-3.0581,-3.0982,-3.1323,-3.1518,-3.1805,-3.1945,-3.2036,-3.2187,-3.2368,-3.2547,-3.2696,-3.2854,-3.3085,-3.2976,-3.3136,-3.3182,-3.3594,-3.3922,-3.4048,-3.4167,-3.4268,-3.4457,-3.4679,-3.5008,-3.5296,-3.581,-3.6173,-3.6219,-3.6313,-3.6735,-3.6994,-3.6796,-3.6614,-3.6919,-3.7432,-3.7368,-3.7359,-3.711,-3.6746,-3.6446,-1.0386,-1.0738,-1.0824,-1.1089,-1.1354,-1.1446,-1.1613,-1.1871,-1.2032,-1.2283,-1.2534,-1.279,-1.3137,-1.3483,-1.3743,-1.399,-1.4237,-1.4412,-1.4657,-1.5068,-1.5318,-1.5824,-1.6409,-1.6894,-1.7147,-1.7147,-1.7554,-1.7716,-1.7797,-1.8201,-1.8362,-1.8451,-1.8843,-1.9161,-1.9381,-1.9529,-1.9844,-2.0245,-2.0489,-2.0799,-2.1108,-2.1425,-2.1741,-2.1949,-2.2252,-2.2478,-2.2927,-2.3224,-2.3751,-2.4313,-2.4214,-2.4117,-2.4297,-2.3782,-2.359,-2.3729,-2.3742,-2.3747,-2.4112,-2.4403,-2.4607,-2.4905,-2.5061,-2.5286,-2.5592,-2.5729,-2.5893,-2.6153,-2.6394,-2.6568,-2.6817,-2.7269,-2.7625,-2.7976,-2.8854,-2.9651,-2.9998,-3.0163,-3.0402,-3.0655,-3.0842,-3.1043,-3.1164,-3.1389,-3.1567,-3.1709,-3.1739,-3.1942,-3.2085,-3.2311,-3.2544,-3.2785,-3.2889,-3.2877,-3.2982,-3.3097,-3.3301,-3.3572,-3.3914,-3.42,-3.4781,-3.5193,-3.5468,-3.5602,-3.5716,-3.5774,-3.5751,-3.5841,-3.6325,-3.6618,-3.6445,-3.6305,-3.6147,-3.6018,-3.5661,-1.0033,-1.0294,-1.0554,-1.0733,-1.1008,-1.1008,-1.1176,-1.1527,-1.1699,-1.1946,-1.2283,-1.254,-1.2796,-1.3052,-1.3222,-1.3574,-1.4004,-1.3997,-1.425,-1.4657,-1.5068,-1.5492,-1.5914,-1.6417,-1.6656,-1.6738,-1.7147,-1.731,-1.7392,-1.7708,-1.7951,-1.804,-1.8371,-1.8763,-1.8993,-1.9143,-1.946,-1.9854,-2.0177,-2.0479,-2.0722,-2.0964,-2.1349,-2.1655,-2.1797,-2.2252,-2.2703,-2.3001,-2.3298,-2.4043,-2.3681,-2.3815,-2.406,-2.3375,-2.324,-2.344,-2.3355,-2.3378,-2.3878,-2.4054,-2.4287,-2.4607,-2.4835,-2.5005,-2.523,-2.5453,-2.5674,-2.5839,-2.6002,-2.634,-2.6765,-2.7218,-2.7473,-2.7655,-2.7916,-2.8084,-2.8348,-2.8716,-2.9029,-2.9075,-2.9369,-2.9547,-2.9694,-2.981,-3.0006,-3.0789,-3.0879,-3.1141,-3.1283,-3.1465,-3.1537,-3.1573,-3.163,-3.156,-3.1696,-3.1863,-3.2115,-3.2366,-3.2756,-3.3178,-3.4055,-3.4541,-3.4939,-3.5123,-3.4821,-3.4896,-3.5151,-3.5417,-3.57,-3.5716,-3.5487,-3.551,-3.5509,-3.5435,-3.5175,-0.9868,-1.0038,-1.0294,-1.0554,-1.0733,-1.0824,-1.0916,-1.1181,-1.1338,-1.1516,-1.1882,-1.2043,-1.2375,-1.279,-1.2881,-1.3137,-1.3483,-1.3568,-1.3822,-1.425,-1.4657,-1.4901,-1.5159,-1.5763,-1.6185,-1.6335,-1.6656,-1.682,-1.6984,-1.731,-1.7554,-1.7554,-1.7959,-1.8201,-1.8353,-1.8683,-1.9002,-1.939,-1.9539,-2.001,-2.0479,-2.0654,-2.0886,-2.1272,-2.1655,-2.2035,-2.2392,-2.2542,-2.2767,-2.3265,-2.3711,-2.3971,-2.4001,-2.3635,-2.3424,-2.3434,-2.3157,-2.3017,-2.3318,-2.3747,-2.4112,-2.4229,-2.4505,-2.4791,-2.5005,-2.5118,-2.53,-2.5536,-2.5798,-2.6179,-2.6674,-2.6884,-2.713,-2.7386,-2.7575,-2.774,-2.794,-2.8299,-2.8653,-2.8873,-2.9075,-2.9259,-2.9425,-2.9677,-2.981,-2.9941,-3.0156,-3.0384,-3.0609,-3.0773,-3.0912,-3.1032,-3.1173,-3.1274,-3.1428,-3.1634,-3.1765,-3.1912,-3.2161,-3.2406,-3.328,-3.3659,-3.3984,-3.3916,-3.3664,-3.3918,-3.4407,-3.432,-3.4483,-3.4477,-3.4594,-3.4663,-3.4735,-3.4716,-3.4834,-0.9437,-0.9694,-0.9864,-1.012,-1.0386,-1.0467,-1.0646,-1.0819,-1.0987,-1.1165,-1.1521,-1.1602,-1.1946,-1.2375,-1.2375,-1.2625,-1.3052,-1.3307,-1.3568,-1.3822,-1.4153,-1.4412,-1.458,-1.5097,-1.5521,-1.5831,-1.6245,-1.6409,-1.6574,-1.682,-1.7066,-1.7147,-1.7473,-1.7878,-1.7951,-1.8282,-1.8603,-1.9002,-1.9231,-1.9539,-1.9932,-2.0167,-2.0489,-2.0886,-2.1349,-2.1731,-2.2101,-2.2101,-2.2338,-2.2777,-2.3298,-2.374,-2.38,-2.3387,-2.3194,-2.3238,-2.2889,-2.2714,-2.2957,-2.3318,-2.3688,-2.3878,-2.4157,-2.4434,-2.4721,-2.4821,-2.5061,-2.5244,-2.5522,-2.5907,-2.634,-2.6727,-2.6937,-2.7093,-2.7269,-2.7473,-2.774,-2.8103,-2.8444,-2.8653,-2.8873,-2.9029,-2.9259,-2.947,-2.9677,-2.981,-2.9897,-3.0113,-3.0443,-3.0609,-3.0773,-3.0895,-3.1055,-3.1213,-3.1368,-3.1559,-3.1728,-3.1875,-3.2073,-3.2267,-3.2737,-3.2854,-3.2927,-3.3001,-3.3212,-3.3286,-3.3659,-3.3481,-3.3605,-3.3881,-3.4064,-3.402,-3.4136,-3.4389,-3.4545,-0.8995,-0.9257,-0.9428,-0.9694,-0.9864,-1.0033,-1.0299,-1.0554,-1.0554,-1.0814,-1.116,-1.1246,-1.151,-1.186,-1.1957,-1.2203,-1.2619,-1.3045,-1.3307,-1.3476,-1.3835,-1.4004,-1.4088,-1.4426,-1.4846,-1.5235,-1.5741,-1.5997,-1.6079,-1.6402,-1.6566,-1.6738,-1.7066,-1.7392,-1.7708,-1.7878,-1.8121,-1.8523,-1.8834,-1.9143,-1.9381,-1.9696,-2.0098,-2.0644,-2.0886,-2.1272,-2.1655,-2.1721,-2.1918,-2.2242,-2.252,-2.2922,-2.3022,-2.2886,-2.257,-2.2726,-2.2349,-2.2234,-2.2531,-2.2836,-2.3198,-2.3497,-2.3806,-2.4099,-2.4319,-2.4593,-2.4778,-2.5018,-2.5244,-2.5578,-2.5893,-2.6286,-2.6621,-2.6832,-2.7026,-2.7218,-2.7575,-2.7989,-2.8235,-2.8444,-2.8621,-2.8811,-2.9029,-2.9243,-2.947,-2.9694,-2.9766,-2.9897,-3.0215,-3.0485,-3.0651,-3.0814,-3.0975,-3.1157,-3.1312,-3.1521,-3.1691,-3.1839,-3.2001,-3.2196,-3.2336,-3.2507,-3.269,-3.2852,-3.3028,-3.3152,-3.3274,-3.3452,-3.3549,-3.3633,-3.3753,-3.3921,-3.4055,-3.4154,-3.4269,-0.8727,-0.8999,-0.9262,-0.9345,-0.9437,-0.9432,-0.9781,-1.0038,-1.0125,-1.0391,-1.0748,-1.0921,-1.1165,-1.1424,-1.1693,-1.2032,-1.2363,-1.2705,-1.2966,-1.3143,-1.3411,-1.3496,-1.3659,-1.4004,-1.4257,-1.4496,-1.4992,-1.5401,-1.5658,-1.5906,-1.6162,-1.6245,-1.6574,-1.6894,-1.7057,-1.731,-1.7716,-1.804,-1.8273,-1.8585,-1.9063,-1.9381,-1.9775,-2.0391,-2.0527,-2.0817,-2.1231,-2.1385,-2.148,-2.1343,-2.1523,-2.1688,-2.1778,-2.1973,-2.2037,-2.1987,-2.1783,-2.1788,-2.2173,-2.2531,-2.2836,-2.3138,-2.339,-2.376,-2.3982,-2.4216,-2.4447,-2.4664,-2.4948,-2.5286,-2.5839,-2.6056,-2.6326,-2.6606,-2.6817,-2.6974,-2.7284,-2.759,-2.794,-2.825,-2.8444,-2.8589,-2.8811,-2.9029,-2.9243,-2.947,-2.9649,-2.9826,-3.0087,-3.0342,-3.0568,-3.0733,-3.0895,-3.1078,-3.1257,-3.1466,-3.1671,-3.1783,-3.1929,-3.2073,-3.2249,-3.2405,-3.2557,-3.2755,-3.2948,-3.3073,-3.3226,-3.3375,-3.3491,-3.3605,-3.3753,-3.3921,-3.4049,-3.4148,-3.4269,-0.8288,-0.8472,-0.8815,-0.899,-0.899,-0.9257,-0.9432,-0.9607,-0.9607,-0.9868,-1.0217,-1.0477,-1.0646,-1.0987,-1.1257,-1.1607,-1.2032,-1.2289,-1.2454,-1.2717,-1.2973,-1.3143,-1.3228,-1.3574,-1.3659,-1.3906,-1.4237,-1.4727,-1.5068,-1.5416,-1.5582,-1.5824,-1.6072,-1.6312,-1.6558,-1.6894,-1.7221,-1.7546,-1.787,-1.8193,-1.8665,-1.8984,-1.9539,-1.9806,-1.9956,-2.0168,-2.0424,-2.0367,-2.041,-2.0502,-2.0762,-2.0728,-2.0737,-2.0902,-2.1294,-2.1396,-2.1358,-2.1348,-2.1737,-2.2111,-2.2482,-2.2665,-2.2982,-2.3343,-2.3582,-2.3819,-2.4099,-2.4434,-2.4821,-2.5118,-2.5397,-2.5674,-2.6002,-2.6272,-2.6486,-2.6765,-2.6974,-2.7181,-2.7539,-2.7955,-2.825,-2.8429,-2.8589,-2.8811,-2.9029,-2.9259,-2.9486,-2.9754,-2.9957,-3.0172,-3.0384,-3.0651,-3.0814,-3.0998,-3.1196,-3.1406,-3.1559,-3.1709,-3.1856,-3.2001,-3.2144,-3.2336,-3.2489,-3.2639,-3.2834,-3.3011,-3.3165,-3.3316,-3.3433,-3.3577,-3.3726,-3.3868,-3.3998,-3.4124,-3.4245,-0.7764,-0.794,-0.8288,-0.846,-0.8548,-0.8815,-0.9082,-0.917,-0.917,-0.9432,-0.9777,-0.9951,-1.0212,-1.0559,-1.0824,-1.1176,-1.1607,-1.178,-1.2032,-1.2283,-1.2454,-1.2711,-1.2887,-1.3143,-1.3228,-1.3307,-1.3652,-1.3984,-1.4489,-1.4831,-1.5075,-1.5318,-1.5484,-1.5816,-1.6147,-1.6402,-1.673,-1.7057,-1.7465,-1.7789,-1.8193,-1.8665,-1.9088,-1.9094,-1.9189,-1.9307,-1.956,-1.9477,-1.9462,-1.9695,-1.99,-2.0029,-1.9717,-1.9907,-2.0236,-2.0698,-2.0902,-2.1012,-2.1285,-2.1612,-2.1987,-2.2185,-2.2665,-2.2909,-2.321,-2.3522,-2.3936,-2.4247,-2.4536,-2.4892,-2.5061,-2.5453,-2.5715,-2.5988,-2.6204,-2.6472,-2.6659,-2.6884,-2.7093,-2.7539,-2.794,-2.825,-2.8429,-2.8589,-2.8811,-2.9121,-2.935,-2.956,-2.981,-2.9941,-3.0199,-3.051,-3.0733,-3.0975,-3.1134,-3.1329,-3.1445,-3.1596,-3.1783,-3.1929,-3.2073,-3.2232,-3.2387,-3.2539,-3.2705,-3.2866,-3.3024,-3.3226,-3.3404,-3.3549,-3.3698,-3.3815,-3.3972,-3.4074,-3.4197,-0.7496,-0.7856,-0.794,-0.8032,-0.8028,-0.8032,-0.8288,-0.864,-0.8723,-0.899,-0.934,-0.9602,-0.9777,-1.0125,-1.0559,-1.0901,-1.1241,-1.1419,-1.1596,-1.1946,-1.2032,-1.2118,-1.2209,-1.2619,-1.2705,-1.2796,-1.3143,-1.3659,-1.4075,-1.4321,-1.4566,-1.4817,-1.5151,-1.5477,-1.565,-1.5989,-1.6327,-1.6656,-1.682,-1.7212,-1.7844,-1.8318,-1.8461,-1.8524,-1.8574,-1.8713,-1.8722,-1.8743,-1.887,-1.874,-1.9073,-1.9062,-1.8981,-1.9091,-1.9281,-1.9603,-1.9944,-2.0431,-2.0828,-2.1221,-2.1549,-2.1862,-2.2185,-2.2494,-2.2848,-2.321,-2.3641,-2.4054,-2.4229,-2.4447,-2.4778,-2.5048,-2.5397,-2.5674,-2.5948,-2.6165,-2.634,-2.6621,-2.6817,-2.7026,-2.7488,-2.794,-2.825,-2.8396,-2.8589,-2.8905,-2.9167,-2.9425,-2.9633,-2.981,-3.007,-3.0426,-3.0609,-3.0814,-3.1015,-3.1213,-3.1346,-3.1462,-3.1671,-3.1856,-3.2001,-3.2161,-3.2284,-3.2456,-3.2573,-3.277,-3.2993,-3.3196,-3.3364,-3.3509,-3.3615,-3.3788,-3.3954,-3.4074,-3.4148,-0.67,-0.7054,-0.7319,-0.7408,-0.7496,-0.7764,-0.8028,-0.8204,-0.8372,-0.8548,-0.8903,-0.9082,-0.9515,-0.9951,-1.0212,-1.0554,-1.0901,-1.0982,-1.116,-1.151,-1.1596,-1.1774,-1.2037,-1.2203,-1.2289,-1.2375,-1.2546,-1.2796,-1.3222,-1.3646,-1.3984,-1.4328,-1.4573,-1.4908,-1.5159,-1.5492,-1.5824,-1.6154,-1.6468,-1.6871,-1.7376,-1.7697,-1.7761,-1.76,-1.7632,-1.7732,-1.7861,-1.7791,-1.7934,-1.7944,-1.8291,-1.8429,-1.8464,-1.8617,-1.8885,-1.9208,-1.9396,-1.9846,-2.0377,-2.0775,-2.1158,-2.1474,-2.18,-2.2111,-2.2592,-2.2969,-2.3271,-2.3509,-2.3878,-2.4229,-2.4505,-2.4778,-2.5061,-2.5342,-2.5674,-2.5839,-2.6056,-2.634,-2.6606,-2.6765,-2.7026,-2.7488,-2.794,-2.8201,-2.8348,-2.8573,-2.8889,-2.9121,-2.9425,-2.9677,-2.9984,-3.0384,-3.0526,-3.0692,-3.0855,-3.1055,-3.123,-3.1346,-3.1521,-3.1691,-3.1893,-3.2037,-3.2179,-3.2387,-3.2557,-3.2755,-3.2948,-3.3104,-3.3256,-3.3404,-3.3577,-3.3726,-3.3868,-3.3998,-3.4124,-0.5991,-0.6166,-0.6697,-0.6874,-0.6966,-0.7411,-0.7676,-0.7676,-0.7937,-0.8201,-0.8464,-0.8727,-0.9165,-0.9602,-0.9777,-1.0038,-1.0559,-1.0554,-1.0814,-1.0982,-1.1154,-1.1338,-1.1516,-1.1688,-1.186,-1.1866,-1.2037,-1.2289,-1.254,-1.2966,-1.3392,-1.3913,-1.4166,-1.4419,-1.4755,-1.5075,-1.5394,-1.5733,-1.6304,-1.6629,-1.6779,-1.7108,-1.697,-1.6833,-1.672,-1.6874,-1.6965,-1.6988,-1.7014,-1.7361,-1.7577,-1.7773,-1.794,-1.8212,-1.8482,-1.8808,-1.8998,-1.933,-1.9846,-2.0302,-2.0711,-2.1042,-2.1423,-2.1812,-2.2235,-2.2653,-2.2957,-2.3017,-2.345,-2.376,-2.4054,-2.4447,-2.4721,-2.4991,-2.5328,-2.555,-2.577,-2.6056,-2.6218,-2.6433,-2.6645,-2.6974,-2.7437,-2.7855,-2.8152,-2.8348,-2.8573,-2.8842,-2.9152,-2.9454,-2.9766,-3.0156,-3.0368,-3.051,-3.0692,-3.0855,-3.1015,-3.123,-3.1406,-3.1579,-3.1783,-3.1929,-3.2073,-3.2249,-3.2456,-3.2623,-3.277,-3.2961,-3.3117,-3.3345,-3.3491,-3.3633,-3.378,-3.3858,-3.4025,-0.546,-0.5547,-0.6166,-0.6432,-0.652,-0.67,-0.6969,-0.7234,-0.7415,-0.7768,-0.8028,-0.8376,-0.8732,-0.8999,-0.9345,-0.9607,-1.0038,-1.0038,-1.0294,-1.0646,-1.0733,-1.0814,-1.0987,-1.1246,-1.1332,-1.1419,-1.1602,-1.1866,-1.2118,-1.2277,-1.279,-1.3392,-1.3743,-1.4004,-1.4334,-1.4741,-1.5061,-1.5448,-1.5965,-1.6202,-1.6301,-1.6393,-1.6272,-1.608,-1.6108,-1.6263,-1.5945,-1.6228,-1.6551,-1.6899,-1.7047,-1.7254,-1.7529,-1.7803,-1.8066,-1.8337,-1.8674,-1.8998,-1.933,-1.9791,-2.0216,-2.0584,-2.1047,-2.1509,-2.1862,-2.2123,-2.2371,-2.2653,-2.3078,-2.3318,-2.3628,-2.3923,-2.4319,-2.4607,-2.4935,-2.516,-2.5384,-2.566,-2.5879,-2.6042,-2.6326,-2.6659,-2.6989,-2.7401,-2.779,-2.8039,-2.8396,-2.8668,-2.8982,-2.9273,-2.9544,-2.9853,-3.014,-3.0309,-3.051,-3.0692,-3.0855,-3.1072,-3.1213,-3.1445,-3.1688,-3.1819,-3.1965,-3.2144,-3.2336,-3.2456,-3.2553,-3.2638,-3.2791,-3.3184,-3.3415,-3.3504,-3.3423,-3.3412,-3.366,-0.5191,-0.5191,-0.5636,-0.5991,-0.6257,-0.6432,-0.67,-0.6969,-0.7146,-0.7499,-0.7944,-0.8201,-0.8464,-0.8727,-0.8907,-0.9257,-0.9519,-0.9607,-0.9864,-1.0125,-1.0299,-1.0467,-1.0636,-1.0799,-1.0901,-1.0977,-1.116,-1.1338,-1.1591,-1.1757,-1.2026,-1.2546,-1.3209,-1.3743,-1.4075,-1.4405,-1.4887,-1.5187,-1.5456,-1.5479,-1.5599,-1.5573,-1.549,-1.5122,-1.5419,-1.5728,-1.5822,-1.5947,-1.6211,-1.6482,-1.6621,-1.683,-1.7116,-1.7382,-1.7666,-1.794,-1.8337,-1.8539,-1.8875,-1.9396,-1.9878,-2.027,-2.0744,-2.1204,-2.1423,-2.1737,-2.2049,-2.2359,-2.2592,-2.2896,-2.3258,-2.3569,-2.3923,-2.4216,-2.4492,-2.4708,-2.4991,-2.5328,-2.5605,-2.577,-2.6056,-2.634,-2.6674,-2.6951,-2.7335,-2.7725,-2.8137,-2.8493,-2.8748,-2.9013,-2.9273,-2.9544,-2.9837,-3.0097,-3.0258,-3.0468,-3.0692,-3.0895,-3.1072,-3.1269,-3.1483,-3.1726,-3.191,-3.2054,-3.2179,-3.2264,-3.2292,-3.2225,-3.2447,-3.2859,-3.311,-3.3302,-3.3176,-3.2914,-3.303,-0.4924,-0.4924,-0.5191,-0.5549,-0.5902,-0.6166,-0.6435,-0.6615,-0.6789,-0.7143,-0.7676,-0.7937,-0.8113,-0.8376,-0.8644,-0.8819,-0.9082,-0.917,-0.9432,-0.9694,-0.9864,-1.0,-1.0221,-1.0363,-1.0343,-1.0459,-1.055,-1.0797,-1.1154,-1.1241,-1.1505,-1.1923,-1.2383,-1.2959,-1.3561,-1.4139,-1.4601,-1.481,-1.4896,-1.4732,-1.485,-1.4955,-1.4891,-1.4576,-1.488,-1.5095,-1.5371,-1.5505,-1.5788,-1.6061,-1.6272,-1.6482,-1.6691,-1.6968,-1.7314,-1.7598,-1.7872,-1.7998,-1.8414,-1.9008,-1.9605,-2.0064,-2.0388,-2.0722,-2.0978,-2.1348,-2.1663,-2.1862,-2.2161,-2.2531,-2.2836,-2.3078,-2.339,-2.3675,-2.3969,-2.4247,-2.4607,-2.4892,-2.523,-2.5508,-2.5784,-2.6125,-2.634,-2.6674,-2.7152,-2.7494,-2.7775,-2.8186,-2.8525,-2.8748,-2.8967,-2.9243,-2.9499,-2.9766,-3.0044,-3.0182,-3.0377,-3.0634,-3.0814,-3.1015,-3.1252,-3.147,-3.1711,-3.1875,-3.1968,-3.2055,-3.1855,-3.1544,-3.1961,-3.2534,-3.2564,-3.2429,-3.2391,-3.2127,-3.2088,-0.4661,-0.475,-0.4921,-0.5191,-0.546,-0.5902,-0.6083,-0.6171,-0.6432,-0.6697,-0.7143,-0.7411,-0.768,-0.794,-0.8204,-0.8376,-0.864,-0.8819,-0.9082,-0.9257,-0.9291,-0.9307,-0.9482,-0.9606,-0.9795,-1.0001,-1.0154,-1.0358,-1.0727,-1.0982,-1.1241,-1.1395,-1.1696,-1.2159,-1.2747,-1.336,-1.3728,-1.4035,-1.4281,-1.4183,-1.4168,-1.4411,-1.4309,-1.4286,-1.4418,-1.4705,-1.4927,-1.507,-1.5355,-1.5718,-1.5788,-1.6,-1.6281,-1.663,-1.683,-1.6978,-1.7442,-1.7784,-1.8008,-1.8674,-1.9274,-1.9736,-1.9998,-2.0248,-2.0464,-2.085,-2.1158,-2.1285,-2.1663,-2.1987,-2.2235,-2.2469,-2.2836,-2.3138,-2.3497,-2.3852,-2.4203,-2.4505,-2.4848,-2.5118,-2.5564,-2.5948,-2.6125,-2.6433,-2.6916,-2.7276,-2.7509,-2.7795,-2.8112,-2.834,-2.8483,-2.8653,-2.8942,-2.9403,-2.9625,-2.9816,-3.0048,-3.0335,-3.041,-3.0413,-3.0594,-3.0738,-3.109,-3.1502,-3.1374,-3.108,-3.0898,-3.0759,-3.1039,-3.1218,-3.1337,-3.13,-3.132,-3.1262,-3.1094,-0.4304,-0.4478,-0.4656,-0.4837,-0.5018,-0.546,-0.5727,-0.5899,-0.6251,-0.6609,-0.6877,-0.7146,-0.7415,-0.768,-0.7852,-0.8028,-0.8116,-0.8376,-0.8552,-0.8794,-0.8793,-0.8961,-0.9048,-0.9087,-0.9279,-0.9423,-0.9662,-1.0,-1.0212,-1.0554,-1.0701,-1.0831,-1.1134,-1.163,-1.2176,-1.2705,-1.3105,-1.34,-1.3474,-1.3407,-1.3629,-1.377,-1.3829,-1.3702,-1.4065,-1.4353,-1.4497,-1.4713,-1.4999,-1.5363,-1.5355,-1.5568,-1.5859,-1.6211,-1.6351,-1.6621,-1.7088,-1.7373,-1.7716,-1.8259,-1.8674,-1.9142,-1.9539,-1.9726,-2.0074,-2.0313,-2.0571,-2.0828,-2.1158,-2.1549,-2.1851,-2.2173,-2.2482,-2.2775,-2.3125,-2.3437,-2.3793,-2.4099,-2.4447,-2.4708,-2.5104,-2.555,-2.5893,-2.5926,-2.6318,-2.663,-2.6855,-2.6971,-2.721,-2.7531,-2.7767,-2.7937,-2.8213,-2.8785,-2.9154,-2.9118,-2.9383,-2.9737,-2.9576,-2.9297,-2.9543,-2.9933,-3.0031,-3.0238,-3.0144,-3.0006,-2.9957,-2.9872,-2.9614,-2.9655,-3.0008,-3.0319,-3.0428,-3.0161,-2.9747,-0.3944,-0.421,-0.4393,-0.4482,-0.4659,-0.5102,-0.5366,-0.5633,-0.5988,-0.6346,-0.6526,-0.6789,-0.6966,-0.7146,-0.7411,-0.7588,-0.7676,-0.794,-0.8039,-0.8281,-0.8263,-0.8379,-0.8467,-0.8621,-0.8774,-0.8875,-0.9155,-0.9424,-0.9772,-1.0038,-1.0303,-1.046,-1.0627,-1.0874,-1.1346,-1.1813,-1.2463,-1.2694,-1.2804,-1.2824,-1.3014,-1.3181,-1.3287,-1.3419,-1.3637,-1.4,-1.4209,-1.4353,-1.4569,-1.4848,-1.4991,-1.5141,-1.5434,-1.5655,-1.5867,-1.6272,-1.6682,-1.6959,-1.7373,-1.7579,-1.8056,-1.8607,-1.9008,-1.9341,-1.9671,-1.9922,-2.0183,-2.0442,-2.0775,-2.1094,-2.1474,-2.18,-2.2049,-2.2334,-2.2653,-2.2957,-2.3378,-2.3688,-2.4054,-2.4319,-2.465,-2.5147,-2.5508,-2.5556,-2.5692,-2.5951,-2.6126,-2.6219,-2.6255,-2.6574,-2.6934,-2.7118,-2.73,-2.7742,-2.8088,-2.8195,-2.8539,-2.9075,-2.8805,-2.8316,-2.871,-2.9137,-2.905,-2.9,-2.9076,-2.9092,-2.9082,-2.8953,-2.8809,-2.8846,-2.9044,-2.9318,-2.9507,-2.9362,-2.9058,-0.3676,-0.3857,-0.3857,-0.4034,-0.43,-0.4743,-0.5102,-0.5371,-0.5633,-0.5811,-0.6083,-0.6343,-0.652,-0.652,-0.6874,-0.7051,-0.7143,-0.7588,-0.7668,-0.7647,-0.7746,-0.7816,-0.7817,-0.7829,-0.8081,-0.8483,-0.8761,-0.8954,-0.9291,-0.9661,-0.9887,-0.9932,-1.0068,-1.0213,-1.0523,-1.0952,-1.1624,-1.2005,-1.213,-1.221,-1.2439,-1.2714,-1.2826,-1.2973,-1.3266,-1.3492,-1.371,-1.3848,-1.4137,-1.4346,-1.4569,-1.4713,-1.4927,-1.5221,-1.5505,-1.5859,-1.6263,-1.6612,-1.6821,-1.7097,-1.7451,-1.7998,-1.8539,-1.8942,-1.9198,-1.9528,-1.9791,-1.9998,-2.0259,-2.0646,-2.1042,-2.1296,-2.1486,-2.1788,-2.2173,-2.2531,-2.2957,-2.333,-2.3641,-2.3923,-2.4319,-2.4711,-2.5011,-2.5119,-2.4899,-2.4824,-2.4933,-2.4936,-2.5091,-2.5538,-2.5894,-2.6198,-2.6423,-2.6632,-2.6926,-2.7237,-2.7652,-2.8168,-2.7786,-2.7473,-2.7915,-2.8213,-2.8092,-2.806,-2.8168,-2.8233,-2.8324,-2.827,-2.8134,-2.8243,-2.8542,-2.8745,-2.9094,-2.9168,-2.8975,-0.3496,-0.3676,-0.3676,-0.3767,-0.4034,-0.4389,-0.4746,-0.5099,-0.5369,-0.5636,-0.5813,-0.608,-0.6166,-0.6428,-0.652,-0.6605,-0.6786,-0.7034,-0.7131,-0.7204,-0.7249,-0.7312,-0.7343,-0.7354,-0.7549,-0.7781,-0.8139,-0.8455,-0.8789,-0.9288,-0.9412,-0.9358,-0.9554,-0.9627,-0.9921,-1.0209,-1.0755,-1.1268,-1.1459,-1.1651,-1.1929,-1.2231,-1.2378,-1.2599,-1.2893,-1.3053,-1.3266,-1.3492,-1.3775,-1.3928,-1.4137,-1.4346,-1.4569,-1.4784,-1.4999,-1.5576,-1.5859,-1.614,-1.6351,-1.676,-1.7047,-1.7323,-1.7784,-1.825,-1.8654,-1.8998,-1.9341,-1.9605,-1.9802,-2.0194,-2.0518,-2.0775,-2.1031,-2.1348,-2.1726,-2.2161,-2.2519,-2.2896,-2.3198,-2.3416,-2.3755,-2.4063,-2.438,-2.4286,-2.4047,-2.3811,-2.3709,-2.3789,-2.4017,-2.4456,-2.4866,-2.5213,-2.5481,-2.5716,-2.6134,-2.6502,-2.6841,-2.7115,-2.6776,-2.6636,-2.7,-2.718,-2.7055,-2.7175,-2.7419,-2.7566,-2.7687,-2.7677,-2.7806,-2.8053,-2.8335,-2.8468,-2.8637,-2.8785,-2.897,-0.3138,-0.3406,-0.3406,-0.3585,-0.3765,-0.4034,-0.4302,-0.4567,-0.4926,-0.5191,-0.5453,-0.5544,-0.5811,-0.5988,-0.6077,-0.6166,-0.6346,-0.6602,-0.6711,-0.6748,-0.6864,-0.6788,-0.6757,-0.6842,-0.7118,-0.7339,-0.7589,-0.7867,-0.8305,-0.86,-0.88,-0.896,-0.9043,-0.9266,-0.9478,-0.964,-1.0003,-1.053,-1.0887,-1.118,-1.1477,-1.1855,-1.2003,-1.2157,-1.2452,-1.268,-1.29,-1.3119,-1.3346,-1.3492,-1.3695,-1.392,-1.4137,-1.4361,-1.4641,-1.507,-1.5292,-1.5647,-1.5929,-1.6211,-1.6491,-1.6769,-1.7107,-1.752,-1.7998,-1.8414,-1.8808,-1.9198,-1.9396,-1.966,-1.9987,-2.0248,-2.0571,-2.0967,-2.1336,-2.1714,-2.2087,-2.2469,-2.2699,-2.2824,-2.3116,-2.3411,-2.3495,-2.3339,-2.3216,-2.299,-2.2818,-2.2771,-2.3048,-2.3489,-2.3911,-2.4297,-2.4561,-2.478,-2.521,-2.5637,-2.589,-2.6075,-2.5998,-2.5954,-2.6172,-2.6421,-2.6551,-2.6669,-2.6826,-2.707,-2.7341,-2.7509,-2.7689,-2.7911,-2.8154,-2.8345,-2.851,-2.8687,-2.8881,-0.2781,-0.3136,-0.3138,-0.3315,-0.3585,-0.3765,-0.3857,-0.3946,-0.4393,-0.4748,-0.4921,-0.501,-0.5188,-0.5458,-0.5633,-0.5722,-0.5899,-0.616,-0.6274,-0.6153,-0.6314,-0.6341,-0.6361,-0.6393,-0.6676,-0.7078,-0.7256,-0.7326,-0.7698,-0.8098,-0.8339,-0.8602,-0.8658,-0.8784,-0.9089,-0.9226,-0.9523,-0.9916,-1.0443,-1.0812,-1.1111,-1.1409,-1.1632,-1.1706,-1.2003,-1.2305,-1.2378,-1.2599,-1.2826,-1.2973,-1.3119,-1.3411,-1.371,-1.4,-1.4281,-1.4641,-1.4856,-1.515,-1.5505,-1.5788,-1.6079,-1.643,-1.67,-1.6987,-1.7401,-1.8008,-1.8472,-1.8731,-1.8998,-1.9264,-1.9594,-1.9791,-2.0053,-2.0506,-2.0944,-2.1336,-2.1714,-2.2041,-2.2224,-2.2371,-2.2502,-2.27,-2.2507,-2.2406,-2.2364,-2.216,-2.213,-2.2013,-2.2287,-2.2672,-2.3096,-2.357,-2.3921,-2.4169,-2.4383,-2.4729,-2.4854,-2.4957,-2.5171,-2.5381,-2.575,-2.595,-2.6112,-2.6347,-2.664,-2.6858,-2.7135,-2.7307,-2.7522,-2.7748,-2.795,-2.8209,-2.8398,-2.8562,-2.881,-0.2424,-0.2691,-0.3048,-0.3226,-0.3315,-0.3585,-0.3676,-0.3676,-0.3946,-0.4304,-0.4748,-0.4924,-0.501,-0.5099,-0.5188,-0.5277,-0.5366,-0.5714,-0.5736,-0.5846,-0.5852,-0.5936,-0.6083,-0.6091,-0.6388,-0.6617,-0.6735,-0.6878,-0.7183,-0.7557,-0.7832,-0.7876,-0.8021,-0.8403,-0.8708,-0.8841,-0.9074,-0.9468,-0.9771,-1.0218,-1.0588,-1.0962,-1.126,-1.1335,-1.1564,-1.1781,-1.1929,-1.2077,-1.2305,-1.2452,-1.2673,-1.3046,-1.3492,-1.3637,-1.3848,-1.4209,-1.4497,-1.4721,-1.4999,-1.5284,-1.5647,-1.5938,-1.6211,-1.6569,-1.7047,-1.7666,-1.8134,-1.8269,-1.8539,-1.8875,-1.9198,-1.933,-1.9594,-2.0042,-2.0549,-2.0944,-2.1313,-2.1507,-2.1776,-2.1823,-2.1927,-2.1801,-2.1598,-2.1538,-2.1482,-2.1496,-2.1529,-2.1616,-2.1868,-2.2245,-2.2583,-2.3037,-2.3466,-2.3741,-2.3867,-2.4135,-2.44,-2.4686,-2.4942,-2.5162,-2.5394,-2.5696,-2.597,-2.6258,-2.6486,-2.6708,-2.694,-2.7166,-2.7355,-2.7582,-2.7789,-2.8007,-2.8246,-2.844,-2.8718,-0.2155,-0.2424,-0.2781,-0.2871,-0.296,-0.3229,-0.3406,-0.3496,-0.3676,-0.3946,-0.4212,-0.4567,-0.4743,-0.4832,-0.4832,-0.4921,-0.501,-0.5277,-0.5338,-0.5378,-0.5483,-0.5598,-0.5709,-0.5742,-0.6089,-0.6315,-0.6542,-0.6662,-0.6698,-0.708,-0.732,-0.7415,-0.7714,-0.794,-0.8318,-0.8389,-0.8618,-0.9013,-0.917,-0.9468,-0.9992,-1.0368,-1.0743,-1.0893,-1.1111,-1.126,-1.1403,-1.1552,-1.1781,-1.2003,-1.2231,-1.2599,-1.298,-1.32,-1.3411,-1.3702,-1.3992,-1.4217,-1.4497,-1.4856,-1.5213,-1.5426,-1.5718,-1.607,-1.6281,-1.6899,-1.751,-1.7716,-1.8134,-1.8472,-1.8731,-1.8931,-1.9198,-1.9594,-2.0063,-2.0546,-2.0745,-2.0828,-2.0852,-2.075,-2.0785,-2.0769,-2.0636,-2.0564,-2.0617,-2.0959,-2.1033,-2.1264,-2.1554,-2.1841,-2.217,-2.2526,-2.2965,-2.3421,-2.3681,-2.3952,-2.4219,-2.4467,-2.4766,-2.5123,-2.541,-2.5621,-2.5897,-2.6115,-2.6329,-2.6555,-2.6742,-2.6973,-2.7247,-2.7478,-2.7659,-2.7847,-2.8101,-2.8335,-2.8637,-0.1885,-0.2155,-0.2424,-0.2424,-0.2513,-0.2871,-0.3048,-0.3138,-0.3408,-0.3496,-0.3676,-0.4032,-0.4389,-0.448,-0.4569,-0.4746,-0.4832,-0.4832,-0.4914,-0.4982,-0.4925,-0.516,-0.5289,-0.5406,-0.5658,-0.6045,-0.6296,-0.6254,-0.619,-0.6592,-0.6979,-0.7111,-0.7334,-0.7557,-0.7706,-0.7927,-0.8228,-0.847,-0.8627,-0.8856,-0.9311,-0.9771,-1.0143,-1.0368,-1.0594,-1.0743,-1.0812,-1.1031,-1.126,-1.1558,-1.1855,-1.2231,-1.2526,-1.2753,-1.2973,-1.3266,-1.3492,-1.3783,-1.4137,-1.4353,-1.4641,-1.4856,-1.5213,-1.5497,-1.5718,-1.6132,-1.6751,-1.7166,-1.7588,-1.7998,-1.8269,-1.8529,-1.8798,-1.9201,-1.9662,-2.0059,-2.0154,-2.0133,-1.9922,-1.9785,-1.9812,-1.9834,-1.985,-1.977,-2.0029,-2.0372,-2.0673,-2.0908,-2.1215,-2.1506,-2.1841,-2.217,-2.2526,-2.2979,-2.3377,-2.3739,-2.4009,-2.4276,-2.4564,-2.5005,-2.541,-2.5562,-2.5749,-2.595,-2.6187,-2.6382,-2.6623,-2.6859,-2.7087,-2.7341,-2.7569,-2.7777,-2.8007,-2.8273,-2.8484,-0.1525,-0.1885,-0.2155,-0.2244,-0.2244,-0.2333,-0.2512,-0.2691,-0.2957,-0.3136,-0.3317,-0.3496,-0.3765,-0.3767,-0.3765,-0.3942,-0.421,-0.4389,-0.4567,-0.4734,-0.4712,-0.4886,-0.5049,-0.5082,-0.5279,-0.5543,-0.5865,-0.5959,-0.5827,-0.618,-0.6416,-0.6493,-0.6868,-0.7096,-0.7334,-0.748,-0.7706,-0.794,-0.8174,-0.8327,-0.8708,-0.9165,-0.962,-0.9916,-1.0143,-1.0218,-1.0368,-1.0519,-1.0738,-1.0956,-1.1335,-1.1706,-1.2003,-1.2224,-1.2519,-1.2746,-1.298,-1.3266,-1.3622,-1.3848,-1.4065,-1.4353,-1.4705,-1.4927,-1.5213,-1.5497,-1.5982,-1.6403,-1.6821,-1.752,-1.7794,-1.8066,-1.8327,-1.8802,-1.9275,-1.9539,-1.9683,-1.9433,-1.9136,-1.9191,-1.9275,-1.9347,-1.9361,-1.9448,-1.9759,-2.0055,-2.0359,-2.061,-2.0759,-2.1118,-2.1471,-2.1793,-2.2077,-2.254,-2.2979,-2.3421,-2.3739,-2.4009,-2.4317,-2.4766,-2.5123,-2.5448,-2.5637,-2.5803,-2.6007,-2.6258,-2.6486,-2.6725,-2.699,-2.7215,-2.7465,-2.7707,-2.794,-2.8191,-2.8406]}]]